[[{"header":{"parameterUnit":"m.s-1","parameterCategory":1,"la1":31.0,"la2":29.5877,"lo1":-88.7671,"lo2":-86.6584,"dy":0.0162,"dx":0.0185,"nx":115,"ny":88,"refTime":"2023-07-05T00:00:00:Z","depth":0,"parameterNumber":2,"parameterNumberName":"U-component_of_WINDS"},"data":[0.0,0.0,0.0,0.0,0.0,0.0,0.0,0.0,0.0,0.0,0.0,0.0,0.0,0.0,0.0,0.0,0.0,0.0,0.0,0.0,0.0,0.0,0.0,0.0,0.0,0.0,0.0,0.0,0.0,0.0,0.0,0.0,0.0,0.0,0.0,0.0,0.0,0.0,0.0,0.0,0.0,0.0,0.0,0.0,0.0,0.0,0.0,0.0,0.0,0.0,0.0,0.0,0.0,0.0,0.0,0.0,0.0,0.0,0.0,0.0,0.0,0.0,0.0,0.0,0.0,0.0,0.0,0.0,0.0,0.0,0.0,0.0,0.0,0.0,0.0,0.0,0.0,0.0,0.0,0.0,0.0,0.0,0.0,0.0,0.0,0.0,0.0,0.0,0.0,0.0,0.0,0.0,0.0,0.0,0.0,0.0,0.0,0.0,0.0,0.0,0.0,0.0,0.0,0.0,0.0,0.0,0.0,0.0,0.0,0.0,0.0,0.0,0.0,0.0,0.0,0.0,0.0,0.0,0.0,0.0,0.0,0.0,0.0,0.0,0.0,0.0,0.0,0.0,0.0,0.0,0.0,0.0,0.0,0.0,0.0,0.0,0.0,0.0,0.0,0.0,0.0,0.0,0.0,0.0,0.0,0.0,0.0,0.0,0.0,0.0,0.0,0.0,0.0,0.0,0.0,0.0,0.0,0.0,0.0,0.0,0.0,0.0,0.0,0.0,0.0,0.0,0.0,0.0,0.0,0.0,0.0,0.0,0.0,0.0,0.0,0.0,0.0,0.0,0.0,0.0,0.0,0.0,0.0,0.0,0.0,0.0,0.0,0.0,0.0,0.0,0.0,0.0,0.0,0.0,0.0,0.0,0.0,0.0,0.0,0.0,0.0,0.0,0.0,0.0,0.0,0.0,0.0,0.0,0.0,0.0,0.0,0.0,0.0,0.0,0.0,0.0,0.0,0.0,0.0,0.0,0.0,0.0,0.0,0.0,0.0,0.0,0.0,0.0,0.0,0.0,0.0,0.0,0.0,0.0,0.0,0.0,0.0,0.0,0.0,0.0,0.0,0.0,0.0,0.0,0.0,0.0,0.0,0.0,0.0,0.0,0.0,0.0,0.0,0.0,0.0,0.0,0.0,0.0,0.0,0.0,0.0,0.0,0.0,0.0,0.0,0.0,0.0,0.0,0.0,0.0,0.0,0.0,0.0,0.0,0.0,0.0,0.0,0.0,0.0,0.0,0.0,0.0,0.0,0.0,0.0,0.0,0.0,0.0,0.0,0.0,0.0,0.0,0.0,0.0,0.0,0.0,0.0,0.0,0.0,0.0,0.0,0.0,0.0,0.0,0.0,0.0,0.0,0.0,0.0,0.0,0.0,0.0,0.0,0.0,0.0,0.0,0.0,0.0,0.0,0.0,0.0,0.0,0.0,0.0,0.0,0.0,0.0,0.0,0.0,0.0,0.0,0.0,0.0,0.0,0.0,0.0,0.0,0.0,0.0,0.0,0.0,0.0,0.0,0.0,0.0,0.0,0.0,0.0,0.0,0.0,0.0,0.0,0.0,0.0,0.0,0.0,0.0,0.0,0.0,0.0,0.0,0.0,0.0,0.0,0.0,0.0,0.0,0.0,0.0,0.0,0.0,0.0,0.0,0.0,0.0,0.0,0.0,0.0,0.0,0.0,0.0,0.0,0.0,0.0,0.0,0.0,0.0,0.0,0.0,0.0,0.0,0.0,0.0,0.0,0.0,0.0,0.0,0.0,0.0,0.0,0.0,0.0,0.0,0.0,0.0,0.0,0.0,0.0,0.0,0.0,0.0,0.0,0.0,0.0,0.0,0.0,0.0,0.0,0.0,0.0,0.0,0.0,0.0,0.0,0.0,0.0,0.0,0.0,0.0,0.0,0.0,0.0,0.0,0.0,0.0,0.0,0.0,0.0,0.0,0.0,0.0,0.0,0.0,0.0,0.0,0.0,0.0,0.0,0.0,0.0,0.0,0.0,0.0,0.0,0.0,0.0,0.0,0.0,0.0,0.0,0.0,0.0,0.0,0.0,0.0,0.0,0.0,0.0,0.0,0.0,0.0,0.0,0.0,0.0,0.0,0.0,0.0,0.0,0.0,0.0,0.0,0.0,0.0,0.0,0.0,0.0,0.0,0.0,0.0,0.0,0.0,0.0,0.0,0.0,0.0,0.0,0.0,0.0,0.0,0.0,0.0,0.0,0.0,0.0,0.0,0.0,0.0,0.0,0.0,0.0,0.0,0.0,0.0,0.0,0.0,0.0,0.0,0.0,0.0,0.0,0.0,0.0,0.0,0.0,0.0,0.0,0.0,0.0,0.0,0.0,0.0,0.0,0.0,0.0,0.0,0.0,0.0,0.0,0.0,0.0,0.0,0.0,0.0,0.0,0.0,0.0,0.0,0.0,0.0,0.0,0.0,0.0,0.0,0.0,0.0,0.0,0.0,0.0,0.0,0.0,0.0,0.0,0.0,0.0,0.0,0.0,0.0,0.0,0.0,0.0,0.0,0.0,0.0,0.0,0.0,0.0,0.0,0.0,0.0,0.0,0.0,0.0,0.0,0.0,0.0,0.0,0.0,0.0,0.0,0.0,0.0,0.0,0.0,0.0,0.0,0.0,0.0,0.0,0.0,0.0,0.0,0.0,0.0,0.0,0.0,0.0,0.0,0.0,0.0,0.0,0.0,0.0,0.0,0.0,0.0,0.0,0.0,0.0,0.0,0.0,0.0,0.0,0.0,0.0,0.0,0.0,0.0,0.0,0.0,0.0,0.0,0.0,0.0,0.0,0.0,0.0,0.0,0.0,0.0,0.0,0.0,0.0,0.0,0.0,0.0,0.0,0.0,0.0,0.0,0.0,0.0,0.0,0.0,0.0,0.0,0.0,0.0,0.0,0.0,0.0,0.0,0.0,0.0,0.0,0.0,0.0,0.0,0.0,0.0,0.0,0.0,0.0,0.0,0.0,0.0,0.0,0.0,0.0,0.0,0.0,0.0,0.0,0.0,0.0,0.0,0.0,0.0,0.0,0.0,0.0,0.0,0.0,0.0,0.0,0.0,0.0,0.0,0.0,0.0,0.0,0.0,0.0,0.0,0.0,0.0,0.0,0.0,0.0,0.0,0.0,0.0,0.0,0.0,0.0,0.0,0.0,0.0,0.0,0.0,0.0,0.0,0.0,0.0,0.0,0.0,0.0,0.0,0.0,0.0,0.0,0.0,0.0,0.0,0.0,0.0,0.0,0.0,0.0,0.0,0.0,0.0,0.0,0.0,0.0,0.0,0.0,0.0,0.0,0.0,0.0,0.0,0.0,0.0,0.0,0.0,0.0,0.0,0.0,0.0,0.0,0.0,0.0,0.0,0.0,0.0,0.0,0.0,0.0,0.0,0.0,0.0,0.0,0.0,0.0,0.0,0.0,0.0,0.0,0.0,0.0,0.0,0.0,0.0,0.0,0.0,0.0,0.0,0.0,0.0,0.0,0.0,0.0,0.0,0.0,0.0,0.0,0.0,0.0,0.0,0.0,0.0,0.0,0.0,0.0,0.0,0.0,0.0,0.0,0.0,0.0,0.0,0.0,0.0,0.0,0.0,0.0,0.0,0.0,0.0,0.0,0.0,0.0,0.0,0.0,0.0,0.0,0.0,0.0,0.0,0.0,0.0,0.0,0.0,0.0,0.0,0.0,0.0,0.0,0.0,0.0,0.0,0.0,0.0,0.0,0.0,0.0,0.0,0.0,0.0,0.0,0.0,0.0,0.0,0.0,0.0,0.0,0.0,0.0,0.0,0.0,0.0,0.0,0.0,0.0,0.0,0.0,0.0,0.0,0.0,0.0,0.0,0.0,0.0,0.0,0.0,0.0,0.0,0.0,0.0,0.0,0.0,0.0,0.0,0.0,0.0,0.0,0.0,0.0,0.0,0.0,0.0,0.0,0.0,0.0,0.0,0.0,0.0,0.0,0.0,0.0,0.0,0.0,0.0,0.0,0.0,0.0,0.0,0.0,0.0,0.0,0.0,0.0,0.0,0.0,0.0,0.0,0.0,0.0,0.0,0.0,0.0,0.0,0.0,0.0,0.0,0.0,0.0,0.0,0.0,0.0,0.0,0.0,0.0,0.0,0.0,0.0,0.0,0.0,0.0,0.0,0.0,0.0,0.0,0.0,0.0,0.0,0.0,0.0,0.0,0.0,0.0,0.0,0.0,0.0,0.0,0.0,0.0,0.0,0.0,0.0,0.0,0.0,0.0,0.0,0.0,0.0,-1.009,0.0,0.0,0.0,0.0,0.0,0.0,0.0,0.0,0.0,0.0,0.0,0.0,0.0,0.0,0.0,0.0,0.0,0.0,0.0,0.0,0.0,0.0,0.0,0.0,0.0,0.0,0.0,0.0,0.0,0.0,0.0,0.0,0.0,0.0,0.0,0.0,0.0,0.0,0.0,0.0,0.0,0.0,0.0,0.0,0.0,0.0,0.0,0.0,0.0,0.0,0.0,0.0,0.0,0.0,0.0,0.0,0.0,0.0,0.0,0.0,0.0,0.0,0.0,0.0,0.0,0.0,0.0,0.0,0.0,0.0,0.0,0.0,0.0,0.0,0.0,0.0,0.0,0.0,0.0,0.0,0.0,0.0,0.0,0.0,0.0,0.0,0.0,0.0,0.0,0.0,0.0,0.0,0.0,0.0,0.0,0.0,0.0,0.0,0.0,0.0,0.0,0.0,0.0,0.0,0.0,0.0,0.0,0.0,0.0,0.0,-0.8312,-0.8908,-0.8014,-0.8409,-1.0352,0.0,0.0,0.0,0.0,0.0,0.0,0.0,0.0,0.0,0.0,0.0,0.0,0.0,0.0,0.0,0.0,0.0,0.0,0.0,0.0,0.0,0.0,0.0,0.0,0.0,0.0,0.0,0.0,0.0,0.0,0.0,0.0,0.0,0.0,0.0,0.0,0.0,0.0,0.0,0.0,0.0,0.0,0.0,0.0,0.0,0.0,0.0,0.0,0.0,0.0,0.0,0.0,0.0,0.0,0.0,0.0,0.0,0.0,0.0,0.0,0.0,0.0,0.0,0.0,0.0,0.0,0.0,0.0,0.0,0.0,0.0,0.0,0.0,0.0,0.0,0.0,0.0,0.0,0.0,0.0,0.0,0.0,0.0,0.0,0.0,0.0,0.0,0.0,0.0,0.0,0.0,0.0,0.0,0.0,0.0,0.0,0.0,0.0,0.0,0.0,0.0,0.0,0.0,0.0,0.0,0.0,0.0,0.0,0.0,0.0,0.0,0.0,-0.8973,-0.9458,-1.1527,0.0,0.0,0.0,0.0,0.0,0.0,0.0,0.0,0.0,0.0,0.0,0.0,0.0,0.0,0.0,0.0,0.0,0.0,0.0,0.0,0.0,0.0,0.0,0.0,0.0,0.0,0.0,0.0,0.0,0.0,0.0,0.0,0.0,0.0,0.0,0.0,0.0,0.0,0.0,0.0,0.0,0.0,0.0,0.0,0.0,0.0,0.0,0.0,0.0,0.0,0.0,0.0,0.0,0.0,0.0,0.0,0.0,0.0,0.0,0.0,0.0,0.0,0.0,0.0,0.0,0.0,0.0,0.0,0.0,0.0,0.0,0.0,0.0,0.0,0.0,0.0,0.0,0.0,0.0,0.0,0.0,0.0,0.0,0.0,0.0,0.0,0.0,0.0,0.0,0.0,0.0,0.0,0.0,0.0,0.0,0.0,0.0,0.0,0.0,0.0,0.0,0.0,0.0,0.0,0.0,0.0,0.0,0.0,0.0,0.0,-1.0242,-1.2622,-1.2751,0.0,-1.5283,0.0,0.0,0.0,0.0,0.0,0.0,0.0,0.0,0.0,0.0,0.0,0.0,0.0,0.0,0.0,0.0,0.0,0.0,0.0,0.0,0.0,0.0,0.0,0.0,0.0,0.0,0.0,0.0,0.0,0.0,0.0,0.0,0.0,0.0,0.0,0.0,0.0,0.0,0.0,0.0,0.0,0.0,0.0,0.0,0.0,0.0,0.0,0.0,0.0,0.0,0.0,0.0,0.0,0.0,0.0,0.0,0.0,0.0,0.0,0.0,0.0,0.0,0.0,0.0,0.0,0.0,0.0,0.0,0.0,0.0,0.0,0.0,0.0,0.0,0.0,0.0,0.0,0.0,0.0,0.0,0.0,0.0,0.0,0.0,0.0,0.0,0.0,0.0,0.0,0.0,0.0,0.0,0.0,0.0,0.0,0.0,0.0,0.0,0.0,0.0,0.0,0.0,0.0,0.0,0.0,0.0,0.0,0.0,0.0,0.0,-1.1626,-1.3112,-1.3811,-1.4554,0.0,0.0,0.0,0.0,0.0,0.0,0.0,0.0,0.0,0.0,0.0,0.0,0.0,0.0,0.0,0.0,0.0,0.0,0.0,0.0,0.0,0.0,0.0,0.0,0.0,0.0,0.0,0.0,0.0,0.0,0.0,0.0,0.0,0.0,0.0,0.0,0.0,0.0,0.0,0.0,0.0,0.0,0.0,0.0,0.0,0.0,0.0,0.0,0.0,0.0,0.0,0.0,0.0,0.0,0.0,0.0,0.0,0.0,0.0,0.0,0.0,0.0,0.0,0.0,0.0,0.0,0.0,0.0,0.0,0.0,0.0,0.0,0.0,0.0,0.0,0.0,0.0,0.0,0.0,0.0,0.0,0.0,0.0,0.0,0.0,0.0,0.0,0.0,0.0,0.0,0.0,0.0,0.0,0.0,0.0,0.0,0.0,0.0,0.0,0.0,0.0,0.0,0.0,0.0,0.0,0.0,0.0,0.0,0.0,0.0,-1.1764,-1.273,-1.4027,-1.4545,-1.4811,-1.4959,0.0,0.0,0.0,0.0,0.0,0.0,0.0,0.0,0.0,0.0,0.0,0.0,0.0,0.0,0.0,0.0,0.0,0.0,0.0,0.0,0.0,0.0,0.0,0.0,0.0,0.0,0.0,0.0,0.0,0.0,0.0,0.0,0.0,0.0,0.0,0.0,0.0,0.0,0.0,0.0,0.0,0.0,0.0,0.0,0.0,0.0,0.0,0.0,0.0,0.0,0.0,0.0,0.0,0.0,0.0,0.0,0.0,0.0,0.0,0.0,0.0,0.0,0.0,0.0,0.0,0.0,0.0,0.0,0.0,0.0,0.0,0.0,0.0,0.0,0.0,0.0,0.0,0.0,0.0,0.0,0.0,0.0,0.0,0.0,0.0,0.0,0.0,0.0,0.0,0.0,0.0,0.0,0.0,0.0,0.0,0.0,0.0,0.0,0.0,0.0,0.0,0.0,0.0,0.0,0.0,0.0,0.0,0.0,0.0,-1.3415,-1.3541,-1.6253,-1.5463,-1.5026,0.0,0.0,0.0,0.0,0.0,0.0,0.0,0.0,0.0,0.0,0.0,0.0,0.0,0.0,0.0,0.0,0.0,0.0,0.0,0.0,0.0,0.0,0.0,0.0,0.0,0.0,0.0,0.0,0.0,0.0,0.0,0.0,0.0,0.0,0.0,0.0,0.0,0.0,0.0,0.0,0.0,0.0,0.0,0.0,0.0,0.0,0.0,0.0,0.0,0.0,0.0,0.0,0.0,0.0,0.0,0.0,0.0,0.0,0.0,0.0,0.0,0.0,0.0,0.0,0.0,0.0,0.0,0.0,0.0,0.0,0.0,0.0,0.0,0.0,0.0,0.0,0.0,0.0,0.0,0.0,0.0,0.0,0.0,0.0,0.0,0.0,0.0,0.0,0.0,0.0,0.0,0.0,0.0,0.0,0.0,0.0,0.0,0.0,0.0,0.0,0.0,0.0,0.0,0.0,0.0,0.0,0.0,0.0,0.0,-1.3235,-1.4282,-1.5951,-1.8119,-1.6308,-1.5472,0.0,0.0,0.0,0.0,0.0,0.0,0.0,0.0,0.0,0.0,0.0,0.0,0.0,0.0,0.0,0.0,0.0,0.0,0.0,0.0,0.0,0.0,0.0,0.0,0.0,0.0,0.0,0.0,0.0,0.0,0.0,0.0,0.0,0.0,0.0,0.0,0.0,0.0,0.0,0.0,0.0,0.0,0.0,0.0,0.0,0.0,0.0,0.0,0.0,0.0,0.0,0.0,0.0,0.0,0.0,0.0,0.0,0.0,0.0,0.0,0.0,0.0,0.0,0.0,0.0,0.0,0.0,0.0,0.0,0.0,0.0,0.0,0.0,0.0,0.0,0.0,0.0,0.0,0.0,0.0,0.0,0.0,0.0,0.0,0.0,0.0,0.0,0.0,0.0,0.0,0.0,0.0,0.0,0.0,0.0,0.0,0.0,0.0,0.0,0.0,0.0,0.0,0.0,0.0,0.0,0.0,0.0,0.0,0.0,-1.3058,0.0,-1.7343,0.0,-1.6716,-1.5613,0.0,0.0,0.0,0.0,0.0,0.0,0.0,0.0,0.0,0.0,0.0,0.0,0.0,0.0,0.0,0.0,0.0,0.0,0.0,0.0,0.0,0.0,0.0,0.0,0.0,0.0,0.0,0.0,0.0,0.0,0.0,0.0,0.0,0.0,0.0,0.0,0.0,0.0,0.0,0.0,0.0,0.0,0.0,0.0,0.0,0.0,0.0,0.0,0.0,0.0,0.0,0.0,0.0,0.0,0.0,0.0,0.0,0.0,0.0,0.0,0.0,0.0,0.0,0.0,0.0,0.0,0.0,0.0,0.0,0.0,0.0,0.0,0.0,0.0,0.0,0.0,0.0,0.0,0.0,0.0,0.0,0.0,0.0,0.0,0.0,0.0,0.0,0.0,0.0,0.0,0.0,0.0,0.0,0.0,0.0,0.0,0.0,0.0,0.0,0.0,0.0,0.0,0.0,0.0,0.0,0.0,0.0,0.0,-1.2335,-1.5511,-1.7008,-1.7419,-1.6751,-1.6591,-1.5351,0.0,0.0,0.0,0.0,0.0,0.0,0.0,0.0,0.0,0.0,0.0,0.0,0.0,0.0,0.0,0.0,0.0,0.0,0.0,0.0,0.0,0.0,0.0,0.0,0.0,0.0,0.0,0.0,0.0,0.0,0.0,0.0,0.0,0.0,0.0,0.0,0.0,0.0,0.0,0.0,0.0,0.0,0.0,0.0,0.0,0.0,0.0,0.0,0.0,0.0,0.0,0.0,0.0,0.0,0.0,0.0,0.0,0.0,0.0,0.0,0.0,0.0,0.0,0.0,0.0,0.0,0.0,0.0,0.0,0.0,0.0,0.0,0.0,0.0,0.0,0.0,0.0,0.0,0.0,0.0,0.0,0.0,0.0,0.0,0.0,0.0,0.0,0.0,0.0,0.0,0.0,0.0,0.0,0.0,0.0,0.0,0.0,0.0,0.0,0.0,0.0,0.0,0.0,0.0,0.0,0.0,0.0,0.0,0.0,-1.5561,-1.5653,-1.6297,-1.7443,-1.5091,-1.395,0.0,0.0,0.0,0.0,0.0,0.0,0.0,0.0,0.0,0.0,0.0,0.0,0.0,0.0,0.0,0.0,0.0,0.0,0.0,0.0,0.0,0.0,0.0,0.0,0.0,0.0,0.0,0.0,0.0,0.0,0.0,0.0,0.0,0.0,0.0,0.0,0.0,0.0,0.0,0.0,0.0,0.0,0.0,0.0,0.0,0.0,0.0,0.0,0.0,0.0,0.0,0.0,0.0,0.0,0.0,0.0,0.0,0.0,0.0,0.0,0.0,0.0,0.0,0.0,0.0,0.0,0.0,0.0,0.0,0.0,0.0,0.0,0.0,0.0,0.0,0.0,0.0,0.0,0.0,0.0,0.0,0.0,0.0,0.0,0.0,0.0,0.0,0.0,0.0,0.0,0.0,0.0,0.0,0.0,0.0,0.0,0.0,0.0,0.0,0.0,0.0,0.0,0.0,0.0,0.0,0.0,0.0,0.0,0.0,-1.6034,-1.5695,-1.6054,-1.7037,-1.4769,-1.3982,-1.4849,0.0,0.0,0.0,0.0,0.0,0.0,0.0,0.0,0.0,0.0,0.0,0.0,0.0,0.0,0.0,0.0,0.0,0.0,0.0,0.0,0.0,0.0,0.0,0.0,0.0,0.0,0.0,0.0,0.0,0.0,0.0,0.0,0.0,0.0,0.0,0.0,0.0,0.0,0.0,0.0,0.0,0.0,0.0,0.0,0.0,0.0,0.0,0.0,0.0,0.0,0.0,0.0,0.0,0.0,0.0,0.0,0.0,0.0,0.0,0.0,0.0,0.0,0.0,0.0,0.0,0.0,0.0,0.0,0.0,0.0,0.0,0.0,0.0,0.0,0.0,0.0,0.0,0.0,0.0,0.0,0.0,0.0,0.0,0.0,0.0,0.0,0.0,0.0,0.0,0.0,0.0,0.0,0.0,0.0,0.0,0.0,0.0,0.0,0.0,0.0,0.0,0.0,0.0,0.0,0.0,0.0,0.0,0.0,-1.6708,-1.6516,-1.5992,-1.5278,-1.5284,-1.494,0.0,0.0,0.0,0.0,0.0,0.0,0.0,0.0,0.0,0.0,0.0,0.0,0.0,0.0,0.0,0.0,0.0,0.0,0.0,0.0,0.0,0.0,0.0,0.0,0.0,0.0,0.0,0.0,0.0,0.0,0.0,0.0,0.0,0.0,0.0,0.0,0.0,0.0,0.0,0.0,0.0,0.0,0.0,0.0,0.0,0.0,0.0,0.0,0.0,0.0,0.0,0.0,0.0,0.0,0.0,0.0,0.0,0.0,0.0,0.0,0.0,0.0,0.0,0.0,0.0,0.0,0.0,0.0,0.0,0.0,0.0,0.0,0.0,0.0,0.0,0.0,0.0,0.0,0.0,0.0,0.0,0.0,0.0,0.0,0.0,0.0,0.0,0.0,0.0,0.0,0.0,0.0,0.0,0.0,0.0,0.0,0.0,0.0,0.0,0.0,0.0,0.0,0.0,0.0,0.0,0.0,0.0,0.0,0.0,-1.5282,-1.1799,-1.0703,-1.2328,-1.3449,-1.2741,0.0,0.0,0.0,0.0,0.0,0.0,0.0,0.0,0.0,0.0,0.0,0.0,0.0,0.0,0.0,0.0,0.0,0.0,0.0,0.0,0.0,0.0,0.0,0.0,0.0,0.0,0.0,0.0,0.0,0.0,0.0,0.0,0.0,0.0,0.0,0.0,0.0,0.0,0.0,0.0,0.0,0.0,0.0,0.0,0.0,0.0,0.0,0.0,0.0,0.0,0.0,0.0,0.0,0.0,0.0,0.0,0.0,0.0,0.0,0.0,0.0,0.0,0.0,0.0,0.0,0.0,0.0,0.0,0.0,0.0,0.0,0.0,0.0,0.0,0.0,0.0,0.0,0.0,0.0,0.0,0.0,0.0,0.0,0.0,0.0,0.0,0.0,0.0,0.0,0.0,0.0,0.0,0.0,0.0,0.0,0.0,0.0,0.0,0.0,0.0,0.0,0.0,0.0,0.0,0.0,0.0,0.0,0.0,-1.702,-1.5175,-1.0474,-0.8045,-0.8187,-0.7859,-0.7795,0.0,0.0,0.0,0.0,0.0,0.0,0.0,0.0,0.0,0.0,0.0,0.0,0.0,0.0,0.0,0.0,0.0,0.0,0.0,0.0,0.0,0.0,0.0,0.0,0.0,0.0,0.0,0.0,0.0,0.0,0.0,0.0,0.0,0.0,0.0,0.0,0.0,0.0,0.0,0.0,0.0,0.0,0.0,0.0,0.0,0.0,0.0,0.0,0.0,0.0,0.0,0.0,0.0,0.0,0.0,0.0,0.0,0.0,0.0,0.0,0.0,0.0,0.0,0.0,0.0,0.0,0.0,0.0,0.0,0.0,0.0,0.0,0.0,0.0,0.0,0.0,0.0,0.0,0.0,0.0,0.0,0.0,0.0,0.0,0.0,0.0,0.0,0.0,0.0,0.0,0.0,0.0,0.0,0.0,0.0,0.0,0.0,0.0,0.0,0.0,0.0,0.0,0.0,0.0,0.0,0.0,0.0,0.0,-1.6285,-1.5029,-1.0307,-0.6426,-0.3601,-0.1339,-0.2115,0.0,0.0,0.0,0.0,0.0,0.0,0.0,0.0,0.0,0.0,0.0,0.0,0.0,0.0,0.0,0.0,0.0,0.0,0.0,0.0,0.0,0.0,0.0,0.0,0.0,0.0,0.0,0.0,0.0,0.0,0.0,0.0,0.0,0.0,0.0,0.0,0.0,0.0,0.0,0.0,0.0,0.0,0.0,0.0,0.0,0.0,0.0,0.0,0.0,0.0,0.0,0.0,0.0,0.0,0.0,0.0,0.0,0.0,0.0,0.0,0.0,0.0,0.0,0.0,0.0,0.0,0.0,0.0,0.0,0.0,0.0,0.0,0.0,0.0,0.0,0.0,0.0,0.0,0.0,0.0,0.0,0.0,0.0,0.0,0.0,0.0,0.0,0.0,0.0,0.0,0.0,0.0,0.0,0.0,0.0,0.0,0.0,0.0,0.0,0.0,0.0,0.0,0.0,0.0,0.0,0.0,0.0,0.0,-1.1644,-1.0731,-0.4651,-0.1199,-0.0783,-0.2028,-0.2363,0.0,0.0,0.0,0.0,0.0,0.0,0.0,0.0,0.0,0.0,0.0,0.0,0.0,0.0,0.0,0.0,0.0,0.0,0.0,0.0,0.0,0.0,0.0,0.0,0.0,0.0,0.0,0.0,0.0,0.0,0.0,0.0,0.0,0.0,0.0,0.0,0.0,0.0,0.0,0.0,0.0,0.0,0.0,0.0,0.0,0.0,0.0,0.0,-0.9493,0.0,0.0,0.0,0.0,0.0,0.0,0.0,0.0,0.0,0.0,0.0,0.0,0.0,0.0,0.0,0.0,0.0,0.0,0.0,0.0,0.0,0.0,0.0,0.0,0.0,0.0,0.0,0.0,0.0,0.0,0.0,0.0,0.0,0.0,0.0,0.0,0.0,0.0,0.0,0.0,0.0,0.0,0.0,0.0,0.0,0.0,0.0,0.0,0.0,0.0,0.0,0.0,0.0,0.0,0.0,0.0,0.0,0.0,0.0,-0.9855,-0.9509,-0.3782,-0.1049,-0.1711,-0.23,-0.2126,0.0,0.0,0.0,0.0,0.0,0.0,0.0,0.0,0.0,0.0,0.0,0.0,0.0,0.0,0.0,0.0,0.0,0.0,0.0,0.0,0.0,0.0,0.0,0.0,0.0,0.0,0.0,0.0,0.0,0.0,0.0,0.0,0.0,0.0,0.0,0.0,0.0,0.0,0.0,0.0,0.0,0.0,0.0,0.0,0.0,0.0,0.0,0.0,0.0,0.0,0.0,0.0,0.0,0.0,0.0,0.0,0.0,0.0,0.0,0.0,0.0,0.0,0.0,0.0,0.0,0.0,0.0,0.0,0.0,0.0,0.0,0.0,0.0,0.0,0.0,0.0,0.0,0.0,0.0,0.0,0.0,0.0,0.0,0.0,0.0,0.0,0.0,0.0,0.0,0.0,0.0,0.0,0.0,0.0,0.0,0.0,0.0,0.0,0.0,0.0,0.0,0.0,0.0,0.0,0.0,0.0,0.0,-0.9686,-0.9257,-0.9509,-0.4885,-0.2881,-0.4043,-0.3277,-0.2827,-0.2805,0.0,0.0,0.0,0.0,0.0,0.0,0.0,0.0,0.0,0.0,0.0,0.0,0.0,0.0,0.0,0.0,0.0,0.0,0.0,0.0,0.0,0.0,0.0,0.0,0.0,0.0,0.0,0.0,0.0,0.0,0.0,0.0,0.0,0.0,0.0,0.0,0.0,0.0,-1.3169,-1.4028,0.0,0.0,0.0,0.0,0.0,0.0,0.0,0.0,-1.1994,0.0,0.0,0.0,0.0,0.0,0.0,0.0,0.0,0.0,0.0,0.0,0.0,0.0,0.0,0.0,0.0,0.0,0.0,0.0,0.0,0.0,0.0,0.0,0.0,0.0,0.0,0.0,0.0,0.0,0.0,0.0,0.0,0.0,0.0,0.0,0.0,0.0,0.0,0.0,0.0,0.0,0.0,0.0,0.0,0.0,0.0,0.0,0.0,0.0,0.0,0.0,0.0,0.0,0.0,0.0,0.0,-1.0621,-0.8458,-0.7947,-0.9169,-0.5125,-0.3709,-0.5354,-0.7264,-0.7854,-0.6964,0.0,0.0,0.0,0.0,0.0,0.0,0.0,0.0,0.0,0.0,0.0,0.0,0.0,0.0,0.0,0.0,0.0,0.0,0.0,0.0,0.0,0.0,0.0,0.0,0.0,0.0,0.0,0.0,0.0,0.0,0.0,0.0,0.0,0.0,0.0,0.0,0.0,0.0,0.0,-1.522,-1.586,0.0,0.0,0.0,0.0,0.0,0.0,0.0,0.0,-1.3007,0.0,0.0,0.0,0.0,0.0,0.0,0.0,0.0,0.0,0.0,0.0,0.0,0.0,0.0,0.0,0.0,0.0,0.0,0.0,0.0,0.0,0.0,0.0,0.0,0.0,0.0,0.0,0.0,0.0,0.0,0.0,0.0,0.0,0.0,0.0,0.0,0.0,0.0,0.0,0.0,0.0,0.0,0.0,0.0,0.0,0.0,0.0,0.0,0.0,0.0,0.0,0.0,0.0,0.0,0.0,-1.0326,-0.8036,-0.7518,-0.8985,-0.7469,-0.7204,-0.8512,-1.0818,-1.1746,0.0,0.0,0.0,0.0,0.0,0.0,0.0,0.0,0.0,0.0,0.0,0.0,0.0,0.0,0.0,0.0,0.0,0.0,0.0,0.0,0.0,0.0,0.0,0.0,0.0,0.0,0.0,0.0,0.0,0.0,0.0,0.0,0.0,0.0,0.0,0.0,0.0,0.0,0.0,0.0,-1.6241,-1.636,-1.5642,0.0,0.0,0.0,0.0,0.0,0.0,-1.414,-1.3991,0.0,0.0,0.0,0.0,0.0,0.0,0.0,0.0,0.0,0.0,0.0,0.0,0.0,0.0,0.0,0.0,0.0,0.0,0.0,0.0,0.0,0.0,0.0,0.0,0.0,0.0,0.0,0.0,0.0,0.0,0.0,0.0,0.0,0.0,0.0,0.0,0.0,0.0,0.0,0.0,0.0,0.0,0.0,0.0,0.0,0.0,0.0,0.0,0.0,0.0,0.0,0.0,0.0,0.0,0.0,-1.0727,-0.9193,-0.9041,-1.0446,-1.1271,-1.2012,-1.2663,-1.415,-1.4804,0.0,0.0,0.0,0.0,0.0,0.0,0.0,0.0,0.0,0.0,0.0,0.0,0.0,0.0,0.0,0.0,0.0,0.0,0.0,0.0,0.0,0.0,0.0,0.0,0.0,0.0,0.0,0.0,0.0,0.0,0.0,0.0,0.0,0.0,0.0,0.0,0.0,0.0,0.0,0.0,0.0,-1.6599,-1.6318,-1.6414,0.0,0.0,0.0,0.0,-1.5226,-1.5006,0.0,0.0,0.0,0.0,0.0,0.0,0.0,0.0,0.0,0.0,0.0,0.0,0.0,0.0,0.0,0.0,0.0,0.0,0.0,0.0,0.0,0.0,0.0,0.0,0.0,0.0,0.0,0.0,0.0,0.0,0.0,0.0,0.0,0.0,0.0,0.0,0.0,0.0,0.0,0.0,0.0,0.0,0.0,0.0,0.0,0.0,0.0,0.0,0.0,0.0,0.0,0.0,0.0,0.0,0.0,0.0,-1.2291,-1.3565,-1.4613,-1.5556,-1.6952,-1.7876,-1.8055,-1.7363,-1.6526,0.0,0.0,0.0,0.0,0.0,0.0,0.0,0.0,0.0,0.0,0.0,0.0,0.0,0.0,0.0,0.0,0.0,0.0,0.0,0.0,0.0,0.0,0.0,0.0,0.0,0.0,0.0,0.0,0.0,0.0,0.0,0.0,0.0,0.0,0.0,0.0,0.0,0.0,0.0,0.0,0.0,-1.6464,-1.6232,-1.6454,-1.6625,0.0,0.0,0.0,-1.6126,-1.5948,0.0,0.0,0.0,0.0,0.0,0.0,0.0,0.0,0.0,0.0,0.0,0.0,0.0,0.0,0.0,0.0,0.0,0.0,0.0,0.0,0.0,0.0,0.0,0.0,0.0,0.0,0.0,0.0,0.0,0.0,0.0,0.0,0.0,0.0,0.0,0.0,0.0,0.0,0.0,0.0,0.0,0.0,0.0,0.0,0.0,0.0,0.0,0.0,0.0,0.0,0.0,0.0,0.0,0.0,0.0,-1.2904,-1.3932,-1.4924,-1.6382,-1.8163,-1.8986,-1.9712,-2.0456,-1.945,-1.8521,0.0,0.0,0.0,0.0,0.0,0.0,0.0,0.0,0.0,0.0,0.0,0.0,0.0,0.0,0.0,0.0,0.0,0.0,0.0,0.0,0.0,0.0,0.0,0.0,0.0,0.0,0.0,0.0,0.0,0.0,0.0,0.0,0.0,0.0,0.0,0.0,0.0,0.0,0.0,0.0,0.0,0.0,-1.6244,-1.6287,0.0,0.0,0.0,-1.6608,-1.62,0.0,0.0,0.0,0.0,0.0,0.0,0.0,0.0,0.0,0.0,0.0,0.0,0.0,0.0,0.0,0.0,0.0,0.0,0.0,0.0,0.0,0.0,0.0,0.0,0.0,0.0,0.0,0.0,0.0,0.0,0.0,0.0,0.0,0.0,0.0,0.0,0.0,0.0,0.0,0.0,0.0,0.0,0.0,0.0,0.0,0.0,0.0,0.0,0.0,0.0,0.0,0.0,0.0,0.0,0.0,0.0,0.0,-1.5736,-1.6321,-1.7811,-2.0312,-2.0509,-2.1097,-2.2116,-2.1066,0.0,0.0,0.0,0.0,0.0,0.0,0.0,0.0,0.0,0.0,0.0,0.0,0.0,0.0,0.0,0.0,0.0,0.0,0.0,0.0,0.0,0.0,0.0,0.0,0.0,0.0,0.0,-1.7512,0.0,0.0,0.0,0.0,0.0,0.0,0.0,0.0,0.0,0.0,0.0,0.0,0.0,0.0,-1.6064,-1.5981,-1.5913,-1.6001,0.0,0.0,-1.6553,-1.5961,-1.6009,-1.5588,0.0,0.0,0.0,0.0,0.0,0.0,0.0,0.0,0.0,0.0,0.0,0.0,0.0,0.0,0.0,0.0,0.0,0.0,0.0,0.0,0.0,0.0,0.0,0.0,0.0,0.0,0.0,0.0,0.0,0.0,0.0,0.0,0.0,0.0,0.0,0.0,0.0,0.0,0.0,0.0,0.0,0.0,0.0,0.0,0.0,0.0,0.0,0.0,0.0,0.0,0.0,0.0,0.0,0.0,0.0,-1.7853,-1.8549,-2.0078,-2.2496,-2.2656,-2.3049,-2.3717,-2.2393,-2.1152,0.0,0.0,0.0,0.0,0.0,0.0,0.0,0.0,0.0,0.0,0.0,0.0,0.0,0.0,0.0,0.0,0.0,0.0,0.0,0.0,0.0,0.0,0.0,0.0,0.0,0.0,0.0,0.0,0.0,0.0,0.0,0.0,0.0,0.0,0.0,0.0,0.0,0.0,0.0,0.0,0.0,-1.5513,-1.5357,-1.5513,-1.5691,0.0,0.0,-1.5763,-1.5647,-1.5845,-1.5591,-1.4465,0.0,0.0,0.0,0.0,0.0,0.0,0.0,0.0,0.0,0.0,0.0,0.0,0.0,0.0,0.0,0.0,0.0,0.0,0.0,0.0,0.0,0.0,0.0,0.0,0.0,0.0,0.0,0.0,0.0,0.0,0.0,0.0,0.0,0.0,0.0,0.0,0.0,0.0,0.0,0.0,0.0,0.0,0.0,0.0,0.0,0.0,0.0,0.0,0.0,0.0,0.0,0.0,0.0,-1.6788,-1.868,-1.9528,-2.1256,-2.3777,-2.3743,-2.3926,-2.4519,-2.283,-2.1526,0.0,0.0,0.0,0.0,0.0,0.0,0.0,0.0,0.0,0.0,0.0,0.0,0.0,0.0,0.0,0.0,0.0,0.0,0.0,0.0,0.0,0.0,0.0,0.0,0.0,0.0,0.0,0.0,-1.6815,-1.6728,-1.6269,0.0,0.0,0.0,0.0,0.0,0.0,0.0,0.0,0.0,0.0,-1.472,-1.5108,-1.5522,0.0,0.0,-1.6514,-1.6754,-1.5742,-1.6121,-1.6006,-1.4598,-1.427,0.0,0.0,0.0,0.0,0.0,0.0,0.0,0.0,0.0,0.0,0.0,0.0,0.0,0.0,0.0,0.0,0.0,0.0,0.0,0.0,0.0,0.0,0.0,0.0,0.0,0.0,0.0,0.0,0.0,0.0,0.0,0.0,0.0,0.0,0.0,0.0,0.0,0.0,0.0,0.0,0.0,0.0,0.0,0.0,0.0,0.0,0.0,0.0,0.0,0.0,0.0,0.0,-1.7425,-1.9993,-2.064,-2.2271,-2.5073,-2.4693,-2.4622,-2.4907,-2.346,-2.2134,0.0,0.0,0.0,0.0,0.0,0.0,0.0,0.0,0.0,0.0,0.0,0.0,0.0,0.0,0.0,0.0,0.0,0.0,0.0,0.0,0.0,0.0,0.0,0.0,0.0,0.0,0.0,0.0,-1.6825,-1.667,-1.6343,0.0,0.0,0.0,0.0,0.0,0.0,0.0,0.0,0.0,0.0,-1.4435,-1.5013,-1.5841,-1.6313,-1.6161,-1.7331,-1.7747,-1.6517,-1.6686,-1.6546,-1.528,0.0,0.0,0.0,0.0,0.0,0.0,0.0,0.0,0.0,0.0,0.0,0.0,0.0,0.0,0.0,0.0,0.0,0.0,0.0,0.0,0.0,0.0,0.0,0.0,0.0,0.0,0.0,0.0,0.0,0.0,0.0,0.0,0.0,0.0,0.0,0.0,0.0,0.0,0.0,0.0,0.0,0.0,0.0,0.0,0.0,0.0,0.0,0.0,0.0,0.0,0.0,0.0,0.0,0.0,-2.2049,-2.1979,-2.3335,-2.6228,-2.5723,-2.5272,-2.5091,-2.4417,-2.3068,-2.1046,0.0,0.0,0.0,0.0,0.0,0.0,0.0,0.0,0.0,0.0,0.0,0.0,0.0,0.0,0.0,0.0,0.0,0.0,0.0,0.0,0.0,0.0,0.0,0.0,0.0,0.0,-1.6753,-1.6747,-1.6586,0.0,0.0,0.0,0.0,0.0,0.0,0.0,0.0,0.0,0.0,-1.4379,-1.4811,-1.5067,-1.6395,-1.7252,-1.6993,-1.7968,-1.8536,-1.8014,-1.7605,-1.7219,0.0,0.0,0.0,0.0,0.0,0.0,0.0,0.0,0.0,0.0,0.0,0.0,0.0,0.0,0.0,0.0,0.0,0.0,0.0,0.0,0.0,0.0,0.0,0.0,0.0,0.0,0.0,0.0,-2.8827,0.0,0.0,0.0,0.0,0.0,0.0,0.0,0.0,0.0,0.0,0.0,-2.5556,-2.5905,0.0,0.0,0.0,0.0,0.0,0.0,0.0,0.0,0.0,0.0,0.0,0.0,-2.0141,-2.284,-2.3153,-2.4368,-2.6657,-2.5896,-2.5509,-2.5825,-2.3922,-2.2379,-2.1292,0.0,0.0,0.0,0.0,0.0,0.0,0.0,0.0,0.0,0.0,0.0,0.0,0.0,0.0,0.0,0.0,0.0,0.0,0.0,0.0,0.0,0.0,0.0,0.0,0.0,-1.7421,0.0,0.0,0.0,0.0,0.0,0.0,0.0,0.0,0.0,0.0,0.0,-1.3711,-1.3972,-1.3925,-1.4399,-1.5659,-1.6749,-1.7557,0.0,0.0,0.0,0.0,0.0,0.0,0.0,0.0,0.0,0.0,0.0,0.0,0.0,0.0,-1.6736,-1.26,-1.1622,-1.1154,-1.0416,0.0,0.0,0.0,0.0,0.0,0.0,0.0,0.0,0.0,0.0,0.0,0.0,0.0,0.0,0.0,0.0,-2.9946,0.0,0.0,0.0,0.0,0.0,0.0,0.0,0.0,-2.6523,-2.6946,-2.7403,-2.7823,-2.8373,0.0,-2.8467,-2.7283,0.0,0.0,0.0,0.0,0.0,0.0,0.0,0.0,-2.1388,-2.3619,-2.4193,-2.5407,-2.7134,-2.6609,-2.6176,-2.5893,-2.357,-2.1993,-2.1374,-1.9922,-1.8778,0.0,0.0,0.0,0.0,0.0,0.0,0.0,0.0,0.0,0.0,0.0,0.0,0.0,0.0,0.0,0.0,0.0,0.0,0.0,0.0,0.0,0.0,0.0,-1.7409,0.0,0.0,0.0,0.0,0.0,0.0,0.0,0.0,0.0,-1.4,-1.373,-1.3898,-1.4707,-1.472,-1.5227,-1.6831,0.0,0.0,0.0,0.0,0.0,0.0,0.0,-1.9282,-1.9525,-1.9522,-1.9336,-1.9108,-1.9966,-2.0689,-2.0476,0.0,0.0,-1.6052,-1.4902,-1.4333,-1.3687,-1.3986,-1.4223,-1.3957,-1.4792,-1.5724,0.0,0.0,0.0,0.0,0.0,0.0,0.0,0.0,-3.0196,-3.1055,0.0,-3.1566,0.0,0.0,0.0,0.0,0.0,0.0,0.0,0.0,-2.8685,-2.947,-2.8826,-2.9377,-3.0099,-3.0904,-3.111,-3.0275,-2.8286,-2.4211,0.0,0.0,0.0,0.0,0.0,0.0,-2.2711,-2.4368,-2.5172,-2.6335,-2.775,-2.791,-2.7097,-2.5444,-2.3496,-2.2069,-2.1252,-2.0088,-1.8939,-1.7805,-1.8372,0.0,0.0,0.0,0.0,0.0,0.0,0.0,0.0,0.0,0.0,0.0,0.0,0.0,0.0,0.0,0.0,0.0,0.0,0.0,0.0,-1.672,0.0,0.0,0.0,0.0,0.0,0.0,0.0,0.0,0.0,0.0,-1.4707,-1.4346,-1.4759,-1.6317,0.0,0.0,0.0,0.0,-2.0519,-2.0703,-2.1457,-2.1911,-2.186,-2.1554,-2.1412,-2.1741,0.0,0.0,-1.9873,-2.0265,-2.0677,-2.0041,-2.0207,-2.0409,-2.1185,-1.9674,-1.8507,-1.8384,-1.788,-1.7721,-1.7777,-1.7838,-1.821,-3.5237,0.0,0.0,0.0,0.0,-3.1627,-3.2244,-3.2572,-3.353,-3.3456,-3.2665,-3.2353,0.0,0.0,0.0,0.0,0.0,0.0,-2.8763,-2.8873,-3.0728,-3.1656,-3.1901,-3.2523,-3.3023,-3.3393,-3.2019,-3.0847,-2.984,-2.7486,-2.5711,-2.4499,0.0,0.0,0.0,0.0,-2.4678,-2.6559,-2.6914,-2.7457,-2.835,-2.7871,-2.6764,-2.5017,-2.467,-2.3733,-2.2039,-2.0983,-1.9895,-1.8731,-1.8173,0.0,0.0,0.0,0.0,0.0,0.0,0.0,0.0,0.0,0.0,0.0,0.0,0.0,0.0,0.0,0.0,0.0,0.0,0.0,-1.8419,-1.7413,-1.7354,0.0,0.0,0.0,0.0,0.0,0.0,0.0,0.0,0.0,-1.8589,-1.711,-1.6791,0.0,0.0,-1.9282,-2.1683,-2.1652,-2.1616,-2.2141,0.0,0.0,0.0,-2.2244,-2.2331,-2.2185,-2.2664,-2.3205,-2.3404,-2.3255,-2.3115,-2.3179,-2.2636,-2.2189,-2.2065,-2.0636,-1.9497,-1.9451,-1.9403,-1.9207,-1.8983,-1.9358,-1.9863,-3.9877,-3.5571,-3.4235,-3.3514,-3.3365,-3.4222,-3.4773,-3.4998,-3.5721,-3.5379,-3.4289,-3.4285,-3.3213,-3.1308,-2.9963,0.0,0.0,0.0,-3.0668,-3.0979,-3.2727,-3.3739,-3.4152,-3.4783,-3.5237,-3.5432,-3.3982,-3.2844,-3.2123,-3.0717,-2.9343,-2.7953,0.0,0.0,-2.6222,-2.6231,-2.6758,-2.7938,-2.8186,-2.8654,-2.9446,-2.8323,-2.6902,-2.5213,-2.5044,-2.4072,-2.2176,-2.1398,-2.0312,-1.875,-1.8382,-1.817,0.0,0.0,0.0,0.0,0.0,0.0,0.0,0.0,0.0,0.0,0.0,-1.9261,0.0,0.0,0.0,0.0,-1.8991,-1.9161,-1.9765,-1.9098,0.0,0.0,0.0,0.0,0.0,0.0,0.0,-1.8903,-1.9951,-2.0933,-2.1393,-2.0757,-2.0696,-2.1748,-2.1368,-2.1773,-2.3909,0.0,-2.2964,-2.35,-2.3338,-2.3122,-2.3057,-2.3371,-2.355,-2.3321,-2.4012,-2.458,-2.4648,-2.4442,-2.4279,-2.4204,-2.3642,-2.3096,-2.3044,-2.1741,-2.0649,-2.0681,-2.0733,-2.0705,-2.0542,-2.0927,-2.1244,-4.4398,-4.294,-3.8904,-3.7188,-3.7001,-3.6943,-3.6915,-3.7054,-3.7199,-3.6908,-3.6416,-3.6839,-3.5981,-3.4089,-3.2406,0.0,0.0,-3.2367,-3.282,-3.2972,-3.4788,-3.5637,-3.5734,-3.6411,-3.6837,-3.7086,-3.6345,-3.553,-3.4558,-3.3496,-3.2547,-3.1672,-2.9144,-2.7829,-2.772,-2.8435,-2.8841,-2.8807,-2.9108,-2.9721,-3.0666,-2.9107,-2.74,-2.5691,-2.4815,-2.3567,-2.1874,-2.1481,-2.0357,-1.8262,-1.8796,-1.8769,-1.7876,0.0,0.0,0.0,0.0,0.0,0.0,0.0,0.0,0.0,0.0,0.0,0.0,0.0,0.0,0.0,-1.8867,0.0,-2.0585,-2.1296,0.0,0.0,0.0,-2.1599,-2.1826,-2.2322,-2.215,-2.0915,0.0,0.0,0.0,0.0,-2.546,-2.4693,-2.4259,-2.4478,-2.5727,-2.5016,-2.4531,-2.4851,-2.439,-2.4146,-2.4323,-2.457,-2.4738,-2.4788,-2.5302,-2.5288,-2.4686,-2.4589,-2.441,-2.4202,-2.3687,-2.3478,-2.389,-2.2997,-2.2311,-2.1984,-2.1992,-2.2119,-2.2287,-2.2192,-2.2282,-4.5763,-4.54,-4.4363,-4.2706,-4.0674,-4.0192,-3.9919,-3.9761,-3.9703,-3.8856,-3.7514,-3.7404,-3.6102,-3.3888,-3.3908,-3.3883,-3.3773,-3.516,-3.5864,-3.6054,-3.7197,-3.7679,-3.7559,-3.7508,-3.7406,-3.7164,-3.64,-3.553,-3.4729,-3.413,-3.3396,-3.2578,-3.1681,-3.0741,-2.9855,-2.9552,-2.9713,-3.0391,-3.062,-3.0476,-3.006,-2.9354,-2.7936,-2.5831,-2.523,-2.3914,-2.1874,-2.1288,-2.0378,-1.9064,-1.8515,-1.8231,-1.8171,-1.9922,0.0,0.0,0.0,0.0,0.0,0.0,0.0,0.0,0.0,-1.9442,-2.1374,0.0,-1.8973,0.0,-2.0657,-2.1279,-2.2244,-2.2047,0.0,0.0,-2.3689,-2.3823,-2.4978,-2.521,-2.4951,-2.4107,-2.5587,-2.6739,-2.6804,-2.7078,-2.7367,-2.7508,-2.6587,-2.6398,-2.7552,-2.669,-2.5878,-2.5903,-2.5577,-2.5301,-2.5356,-2.5216,-2.5211,-2.5615,-2.572,-2.5774,-2.5697,-2.549,-2.5384,-2.5488,-2.4661,-2.4086,-2.4112,-2.3671,-2.3304,-2.3049,-2.2712,-2.2386,-2.2508,-2.2489,-2.2572,-4.7063,-4.7347,-4.7605,-4.6629,-4.4601,-4.3685,-4.3069,-4.2729,-4.2252,-4.1096,-3.9349,-3.856,-3.7054,-3.5305,-3.5902,-3.622,-3.6209,-3.7005,-3.7632,-3.7987,-3.8616,-3.8685,-3.846,-3.8321,-3.8174,-3.8133,-3.7255,-3.6598,-3.6079,-3.5282,-3.4429,-3.3349,-3.3011,-3.2376,-3.1548,-3.1197,-3.1477,-3.2374,-3.2143,-3.1256,-2.9707,-2.9623,-2.8445,-2.6093,-2.5401,-2.4065,-2.1965,-2.1527,-2.0623,-1.929,-1.8508,-1.8092,-1.8078,-1.8986,-2.0193,0.0,0.0,0.0,0.0,0.0,0.0,0.0,0.0,0.0,0.0,0.0,-2.0219,0.0,-2.3346,0.0,-2.5105,-2.5443,-2.6026,-2.7004,-2.6832,-2.7072,-2.8188,-2.7795,-2.7444,-2.7694,-2.829,-2.8783,-2.9154,-2.8725,-2.84,-2.8538,-2.7721,-2.7515,-2.8311,-2.7708,-2.6978,-2.6734,-2.6354,-2.605,-2.6018,-2.577,-2.5716,-2.5966,-2.6049,-2.6106,-2.6218,-2.6186,-2.6169,-2.6191,-2.5766,-2.5408,-2.5319,-2.5163,-2.4872,-2.4468,-2.4073,-2.3718,-2.3402,-2.3201,-2.3179,-4.7927,-4.8275,-4.9023,-4.8891,-4.8009,-4.691,-4.5927,-4.5016,-4.4429,-4.3037,-4.1176,-3.9787,-3.8366,-3.7162,-3.7989,-3.8293,-3.8202,-3.8494,-3.8886,-3.9405,-3.9533,-3.9345,-3.8928,-3.8982,-3.9038,-3.9092,-3.8296,-3.7738,-3.7499,-3.6519,-3.5315,-3.3979,-3.3666,-3.3244,-3.2801,-3.2905,-3.3256,-3.3944,-3.3379,-3.1977,-2.9735,-2.998,-2.8919,-2.6367,-2.5502,-2.4125,-2.2002,-2.1896,-2.1102,-1.9355,-1.8858,-1.8428,-1.8017,-1.8037,-1.8675,0.0,-2.1,0.0,0.0,0.0,0.0,0.0,0.0,0.0,0.0,-2.0583,-2.1966,-2.4924,-2.6462,-2.7501,-2.813,-2.9444,-3.0127,-2.99,-2.9896,-3.0258,-3.0911,-2.9911,-2.9618,-3.0842,-3.0604,-3.0369,-3.0443,-2.9748,-2.9038,-2.8491,-2.8222,-2.8173,-2.8493,-2.8201,-2.7748,-2.7285,-2.6856,-2.6524,-2.64,-2.6286,-2.6233,-2.6286,-2.6315,-2.6365,-2.6394,-2.6736,-2.6865,-2.6713,-2.6879,-2.7072,-2.6904,-2.6792,-2.651,-2.5967,-2.5567,-2.5024,-2.4373,-2.3814,-2.3961,-4.649,-4.6344,-4.7443,-4.7996,-4.8213,-4.8106,-4.6478,-4.401,-4.4464,-4.3331,-4.1116,-4.0318,-3.9283,-3.8288,-3.9653,-3.9899,-3.9272,-4.0163,-4.0747,-4.1144,-4.1144,-4.083,-4.0135,-3.9785,-3.9367,-3.8794,-3.8093,-3.734,-3.6627,-3.6209,-3.5416,-3.4287,-3.4112,-3.3992,0.0,0.0,0.0,0.0,-3.3029,-3.2338,-3.1059,-3.0387,-2.8837,-2.6466,-2.5712,0.0,-2.1471,-2.1945,-2.1622,-2.0268,-2.0347,0.0,0.0,0.0,0.0,0.0,0.0,0.0,0.0,0.0,0.0,0.0,-2.1979,-2.1274,-2.0828,-2.2643,-2.4859,-2.7026,-2.8714,-2.958,-2.9355,-3.0013,-3.0615,-3.0777,-3.0511,-3.069,-3.1737,-3.126,-3.08,-3.0834,-3.0765,-3.0488,-2.9975,-2.9775,-2.9361,-2.8457,-2.8616,-2.8538,-2.7985,-2.8064,-2.798,-2.7523,-2.7032,-2.6755,-2.6688,-2.6794,-2.6712,-2.6578,-2.6578,-2.6683,-2.6841,-2.7203,-2.763,-2.7783,-2.786,-2.7807,-2.7993,-2.7474,-2.704,-2.6819,-2.6123,-2.5191,-2.4126,-2.3644,-2.3402,-4.646,0.0,-4.6812,-4.7109,0.0,-4.8142,-4.7082,-4.4837,-4.5139,-4.3848,-4.1459,-4.1426,-4.0642,-3.9526,-4.0587,-4.0868,-4.0587,-4.1242,-4.1704,-4.1882,-4.1968,-4.1425,-4.0481,-4.007,-3.9724,-3.944,-3.8684,-3.8119,-3.7651,-3.7344,-3.6415,-3.4818,-3.4912,-3.4576,-3.3789,-3.3184,-3.2749,-3.2554,-3.2554,-3.2105,-3.1128,-3.0273,-2.8906,-2.713,0.0,0.0,0.0,0.0,0.0,0.0,0.0,0.0,0.0,0.0,0.0,-1.9133,-2.0143,-2.1213,-2.2131,-2.2433,-2.2658,-2.2942,-2.343,-2.3576,-2.33,-2.5652,-2.7874,-2.9589,-3.0964,-3.1849,-3.2048,-3.2741,-3.3349,-3.348,-3.3215,-3.3306,-3.36,-3.2717,-3.1893,-3.1668,-3.1027,-3.0411,-3.0249,-2.9763,-2.9364,-2.8774,-2.8853,-2.8781,-2.8222,-2.8263,-2.8216,-2.7666,-2.7169,-2.6846,-2.7003,-2.7107,-2.7159,-2.6997,-2.7049,-2.7203,-2.7357,-2.771,-2.8155,-2.8575,-2.8698,-2.878,-2.897,-2.8626,-2.8176,-2.7783,-2.7186,-2.6212,-2.4915,-2.4206,-2.3847,-4.6446,-4.5637,-4.6252,-4.6297,-4.6018,-4.7437,-4.7325,-4.6064,0.0,0.0,0.0,-4.2545,-4.1947,-4.0705,-4.1302,-4.1551,-4.1488,-4.1852,-4.1992,-4.2012,-4.228,-4.1799,-4.0637,-4.0278,-4.0181,-4.0091,-3.9274,-3.8867,-3.8898,-3.8573,-3.7483,-3.5733,-3.5808,-3.516,-3.3594,-3.2822,-3.2407,-3.2273,-3.2144,-3.1693,-3.087,-3.0073,-2.903,-2.7748,-2.6133,-2.5026,-2.4574,-2.3719,-2.3226,-2.3132,-2.2122,-2.1296,-2.0754,-1.9674,-1.8903,-1.8619,-1.9064,-1.9898,-2.1135,-2.1949,-2.267,-2.3366,-2.5294,-2.6349,-2.6242,-2.8623,-3.0624,-3.197,-3.3161,-3.4037,-3.4616,-3.5533,-3.6146,-3.6088,-3.5828,-3.5523,-3.54,-3.3847,-3.2599,-3.2382,-3.1286,-3.052,-3.0551,-2.9936,-2.9314,-2.9256,-2.9192,-2.8866,-2.8474,-2.8298,-2.8098,-2.7698,-2.7169,-2.687,-2.7181,-2.7386,-2.7488,-2.7488,-2.761,-2.774,-2.789,-2.8155,-2.859,-2.8982,-2.9335,-2.9605,-2.9858,-2.9661,-2.9355,-2.8646,-2.8202,-2.7494,-2.6019,-2.5031,-2.4459,-4.5558,-4.4468,-4.494,-4.5307,-4.5627,-4.6218,-4.6624,-4.6767,-4.4718,-4.3525,-4.3164,-4.3262,-4.2443,-4.0991,-4.2333,-4.2259,-4.1158,-4.135,-4.1484,0.0,-4.2145,-4.1915,-4.106,-4.0795,-4.0282,-3.956,-3.8851,-3.8411,-3.831,-3.8274,-3.7795,-3.7181,-3.6969,-3.6005,-3.4243,-3.2984,-3.247,-3.2632,-3.193,-3.145,-3.1187,-3.0247,-2.9195,-2.8027,-2.7161,-2.5952,-2.4425,-2.5061,-2.5049,-2.4259,-2.4336,-2.3927,-2.2858,-2.223,-2.1741,-2.1256,-2.1412,-2.2076,-2.3285,-2.3771,-2.4368,-2.5354,-2.7523,-2.855,-2.7996,-3.035,-3.2283,-3.3183,-3.4898,-3.5894,-3.5577,-3.6253,-3.6667,-3.6426,-3.537,-3.4836,-3.5365,-3.3879,-3.2467,-3.1827,-3.1368,-3.0716,-3.0278,-3.0083,-2.974,-2.9428,-2.9508,-2.9525,-2.8446,-2.7726,-2.7543,-2.7533,-2.714,-2.698,-2.7408,-2.774,-2.789,-2.794,-2.8008,-2.8088,-2.7989,-2.8381,-2.8826,-2.9198,-2.956,-2.9826,-3.0119,-2.9957,-2.9673,-2.938,-2.8761,-2.7784,-2.6585,-2.5615,-2.4656,-4.6445,-4.5789,-4.5817,-4.5627,-4.5417,-4.5947,-4.6718,-4.735,-4.5831,-4.4735,-4.4103,-4.4131,-4.3567,-4.2716,-4.3395,-4.3492,-4.3062,-4.3377,-4.3087,-4.2518,-4.3088,-4.2747,-4.1741,-4.1604,-4.1392,-4.1014,-4.0426,-3.992,-3.9546,-3.9335,-3.8691,-3.7623,-3.6887,-3.5892,-3.4755,-3.3696,-3.2996,-3.2782,-3.2038,-3.1604,-3.1693,-3.0485,-2.9578,-2.8937,-2.7726,-2.6755,-2.6179,-2.6012,-2.594,-2.6016,-2.5632,-2.5215,-2.4829,-2.4182,-2.3867,-2.3955,-2.4311,-2.4998,-2.6144,-2.668,-2.736,-2.8298,-2.9545,-3.034,-3.0232,-3.1459,-3.2904,-3.4391,-3.5601,-3.6366,-3.6781,-3.7189,-3.7221,-3.6635,-3.5918,-3.5257,-3.4612,-3.3658,-3.2496,-3.1544,-3.1003,-3.0459,-2.9988,-3.005,-3.0054,-2.974,-2.9846,-2.9313,-2.8144,-2.7515,-2.7242,-2.7285,-2.7075,-2.7211,-2.773,-2.8137,-2.8284,-2.8301,-2.835,-2.8332,-2.8314,-2.859,-2.9028,-2.9425,-2.9782,-3.0044,-3.0258,-3.0087,-2.9913,-2.9705,-2.9278,-2.8329,-2.7042,-2.5518,-2.4118,-4.7362,-4.7094,-4.6715,-4.5982,-4.5279,-4.6022,-4.6948,-4.7799,-4.7243,-4.6314,-4.5346,-4.5308,-4.4995,-4.4489,-4.4746,-4.4915,-4.4951,-4.5069,-4.4449,-4.3323,-4.3787,-4.3372,-4.2202,-4.216,-4.2206,-4.2132,-4.1656,-4.119,-4.0636,-4.0337,-3.952,-3.8106,-3.6895,-3.597,-3.5339,-3.4526,-3.3817,-3.3443,-3.2573,-3.2111,-3.1977,-3.0891,-3.0191,-2.9755,-2.8502,-2.7856,-2.8002,-2.7306,-2.7218,-2.7831,-2.6931,-2.6436,-2.6582,-2.5855,-2.5683,-2.6409,-2.6849,-2.7585,-2.883,-2.9486,-3.0078,-3.0629,-3.1043,-3.1473,-3.1873,-3.2183,-3.3181,-3.5068,-3.5705,-3.6374,-3.7202,-3.7514,-3.7265,-3.661,-3.6204,-3.5502,-3.4416,-3.3441,-3.2496,-3.1575,-3.0826,-3.0221,-2.9865,-2.9837,-2.9837,-2.9775,-2.9679,-2.9049,-2.7956,-2.7499,-2.7279,-2.7169,-2.7132,-2.7408,-2.8027,-2.8446,-2.8668,-2.8606,-2.8685,-2.8621,-2.8621,-2.8873,-2.9257,-2.9572,-3.0,-3.0333,-3.0459,-3.0333,-3.0087,-2.9924,-2.9585,-2.8889,-2.7469,-2.5364,-2.3688,-4.7556,-4.6751,-4.6567,-4.5804,-4.5018,-4.6147,-4.7029,-4.7658,-4.7935,-4.7597,-4.6895,-4.7053,-4.6686,-4.6067,-4.6566,-4.6281,-4.5341,-4.4984,-4.4299,-4.3389,-4.3352,-4.3012,-4.224,-4.2119,-4.191,-4.1716,-4.1368,-4.1092,-4.082,-4.0683,-4.007,-3.9015,-3.7816,-3.6855,-3.6258,-3.5264,-3.4854,-3.5164,-3.4044,-3.2919,-3.1976,-3.1833,-3.1295,-3.0269,-3.0218,-2.99,-2.9292,-2.9379,-2.9478,-2.9516,-2.8681,-2.8195,-2.8089,-2.7528,-2.7399,-2.8057,-2.8546,-2.9342,-3.063,-3.1364,-3.1541,-3.1213,-3.1428,-3.1747,-3.2112,-3.2602,-3.3379,-3.4633,-3.5721,-3.6305,-3.65,-3.6558,-3.6463,-3.6184,-3.5411,-3.4865,-3.4809,-3.3576,-3.2316,-3.1968,-3.1019,-3.027,-2.9547,-2.9373,-2.931,-2.9129,-2.9038,-2.8657,-2.7816,-2.7621,-2.757,-2.7436,-2.7276,-2.758,-2.8271,-2.8701,-2.892,-2.9013,-2.9045,-2.8951,-2.8905,-2.9137,-2.956,-2.9793,-3.0215,-3.0551,-3.0775,-3.0634,-3.0417,-3.0228,-2.9902,-2.9315,-2.7892,-2.5895,-2.4173,-4.8211,-4.7828,-4.7179,-4.6222,-4.5194,-4.5639,-4.6253,-4.6802,-4.8024,-4.8199,-4.7764,-4.8111,-4.7584,-4.6383,-4.7028,-4.7068,-4.6717,-4.6487,-4.5763,-4.4847,-4.4527,-4.4008,-4.3434,-4.2928,-4.2743,-4.2724,-4.2287,-4.1892,-4.1624,-4.1062,-4.0205,-3.9044,-3.8204,-3.7374,-3.6439,-3.5826,-3.5517,-3.5447,-3.4965,-3.4229,-3.3391,-3.2378,-3.1675,-3.126,-3.0852,-3.069,-3.0645,-3.0472,-3.0566,-3.0979,-3.0186,-2.9846,-3.0243,-2.9705,-2.9825,-3.0858,-3.2,-3.2541,-3.236,-3.285,-3.2943,-3.2582,-3.2604,-3.2762,-3.3093,-3.3278,-3.3534,-3.3868,-3.4682,-3.5355,-3.554,-3.5577,-3.5388,-3.4836,-3.4272,-3.3774,-3.3352,-3.2345,-3.1515,-3.1293,-3.0563,-2.9834,-2.9394,-2.8931,-2.8538,-2.8166,-2.8121,-2.7968,-2.7367,-2.7428,-2.7665,-2.7799,-2.7978,-2.8367,-2.8873,-2.9059,-2.9198,-2.9243,-2.9229,-2.9045,-2.9091,-2.9335,-2.975,-3.0054,-3.0518,-3.1079,-3.1712,-3.1106,-3.07,-3.054,-2.9567,-2.869,-2.8005,-2.6528,-2.5288,-4.8352,-4.7993,-4.6758,-4.5622,-4.4803,-4.5129,-4.5597,-4.6309,-4.7826,-4.8296,-4.8066,-4.8547,-4.8025,-4.6914,-4.7398,-4.7761,-4.7803,-4.7571,-4.6977,-4.6056,-4.5415,-4.4929,-4.4503,-4.3778,-4.3442,-4.3494,-4.2932,-4.2415,-4.1917,-4.1105,-4.0191,-3.9333,-3.8745,-3.794,-3.7082,-3.6739,-3.6429,-3.6014,-3.5815,-3.539,-3.4625,-3.3196,-3.2235,-3.2065,-3.1483,-3.1366,-3.1777,-3.1389,-3.155,-3.2248,-3.1518,-3.129,-3.1727,-3.1287,-3.1688,-3.3111,-3.4576,-3.5059,-3.4112,-3.4022,-3.399,-3.3889,-3.3593,-3.3571,-3.3899,-3.3949,-3.361,-3.3193,-3.3634,-3.4101,-3.4302,-3.4342,-3.4037,-3.346,-3.3253,-3.2898,-3.2576,-3.1781,-3.1278,-3.1154,-3.0392,-2.9463,-2.9058,-2.8546,-2.8023,-2.76,-2.7561,-2.7571,-2.7371,-2.7561,-2.7859,-2.8308,-2.8685,-2.8967,-2.9289,-2.938,-2.947,-2.9592,-2.9502,-2.9321,-2.9366,-2.9738,-3.0097,-3.0477,-3.0918,-3.1258,-3.1568,-3.124,-3.0816,-3.0639,-2.961,-2.8315,-2.8334,-2.7038,-2.6214,-4.7745,-4.6319,-4.4467,-4.3861,-4.3814,-4.4846,-4.5743,-4.6346,-4.7476,-4.7956,-4.7935,-4.8129,-4.7968,-4.7439,-4.8063,-4.8289,-4.8163,-4.7836,-4.7276,-4.6421,-4.5824,-4.5346,-4.4929,-4.4184,-4.3789,-4.3836,-4.3025,-4.2019,-4.0989,-4.0607,-4.0383,-4.0295,-3.9505,-3.8951,-3.8318,-3.7862,-3.7563,-3.709,-3.6684,-3.6116,-3.539,-3.4393,-3.3367,-3.2698,-3.2392,-3.2299,-3.2378,-3.2435,-3.2725,-3.3193,-3.253,-3.2266,-3.2234,-3.1932,-3.2628,-3.43,-3.5545,-3.6142,-3.5796,-3.4994,-3.4536,-3.4727,-3.4142,-3.3726,-3.4298,-3.4233,-3.3815,-3.2949,-3.2827,-3.2807,-3.2877,-3.2764,-3.2646,-3.2526,-3.2615,-3.2855,-3.3457,-3.2254,-3.1973,-3.1806,-3.0614,-2.9331,-2.8481,-2.8026,-2.7894,-2.7709,-2.7685,-2.7659,-2.7997,-2.8039,-2.8291,-2.8776,-2.9013,-2.9028,-2.9316,-2.9355,-2.9641,-2.9783,-2.9632,-2.9673,-2.9913,-3.0172,-3.0518,-3.0804,-3.1078,-3.1269,-3.138,-3.1185,-3.0816,-3.0201,-2.8919,-2.8104,-2.8761,-2.6954,-2.6318,-4.7129,-4.5714,-4.394,-4.3703,-4.4609,-4.5119,-4.5784,-4.6578,-4.7755,-4.8107,-4.7869,-4.8258,-4.8163,-4.7537,-4.8227,-4.842,-4.8227,-4.8227,-4.79,-4.7342,-4.6519,-4.605,-4.5713,-4.4692,-4.4192,-4.4067,-4.3637,-4.2929,-4.2248,-4.1981,-4.1331,-4.0313,-3.983,-3.9075,-3.8139,-3.7784,-3.767,-3.7625,-3.7291,-3.6921,-3.6413,-3.5447,-3.4538,-3.372,-3.2908,-3.2515,-3.2544,-3.2791,-3.2956,-3.3011,-3.2919,-3.3085,-3.3393,-3.4331,-3.5399,-3.672,-3.759,-3.7684,-3.6847,-3.6507,-3.6217,-3.6007,-3.5253,-3.4781,-3.4868,-3.4493,-3.3866,-3.3161,-3.2492,-3.2144,-3.1865,-3.1634,-3.1397,-3.1336,-3.1599,-3.2044,-3.2279,-3.2115,-3.1916,-3.1628,-3.0409,-2.9149,-2.8546,-2.8222,-2.8026,-2.7946,-2.7642,-2.7806,-2.8168,-2.8154,-2.8152,-2.8635,-2.9059,-2.9188,-2.8941,-2.8973,-2.9092,-2.9401,-2.9484,-2.9568,-2.9766,-3.0468,-3.0891,-3.1123,-3.1351,-3.1521,-3.1628,-3.1402,-3.0958,-3.0041,-2.8769,-2.857,-2.9249,-2.7721,-2.7377,-4.6506,-4.5342,-4.3808,-4.373,-4.4697,-4.5172,-4.5786,-4.6486,-4.768,-4.8052,-4.7935,-4.8258,-4.8163,-4.7902,-4.8389,-4.8483,-4.8292,-4.8356,-4.8292,-4.8065,-4.7243,-4.6745,-4.6491,-4.5469,-4.4778,-4.4555,-4.3945,-4.3287,-4.2509,-4.2425,-4.1725,-4.0646,-4.04,-3.9794,-3.8859,-3.8543,-3.8371,-3.8198,-3.7863,-3.7376,-3.6749,-3.5968,-3.5123,-3.4158,-3.3378,-3.2882,-3.268,-3.2795,-3.284,-3.2832,-3.3083,-3.3634,-3.4643,-3.629,-3.7718,-3.8608,-3.9268,-3.9137,-3.8187,-3.784,-3.7511,-3.7209,-3.6416,-3.5887,-3.5855,-3.5277,-3.4659,-3.3985,-3.306,-3.2353,-3.1865,-3.1367,-3.0895,-3.0804,-3.1322,-3.2003,-3.2402,-3.2537,-3.2207,-3.1442,-3.0306,-2.9338,-2.8803,-2.861,-2.8465,-2.8174,-2.7809,-2.7909,-2.8533,-2.8293,-2.8198,-2.8662,-2.8841,-2.8984,-2.8833,-2.8759,-2.9165,-2.953,-2.9749,-2.9761,-3.0123,-3.0818,-3.1244,-3.147,-3.1606,-3.1773,-3.1743,-3.1508,-3.0964,-3.0141,-2.95,-2.9035,-2.9093,-2.8706,-2.8393,-4.5874,-4.5022,-4.3906,-4.3727,-4.4308,-4.5122,-4.5689,-4.6214,-4.7153,-4.787,-4.8099,-4.7968,-4.8098,-4.842,-4.8644,-4.8707,-4.8483,-4.8356,-4.8356,-4.8386,-4.7901,-4.7539,-4.727,-4.648,-4.5737,-4.5142,-4.4,-4.2812,-4.1882,-4.2105,-4.1851,-4.1458,-4.1362,-4.1163,-4.096,-4.0118,-3.9576,-3.8948,-3.8294,-3.7531,-3.6447,-3.6071,-3.5382,-3.4254,-3.4025,-3.3654,-3.2911,-3.2629,-3.2646,-3.2788,-3.3011,-3.4098,-3.5974,-3.758,-3.8915,-3.9901,-4.0447,-4.0397,-3.9918,-3.8853,-3.8342,-3.8195,-3.7481,-3.6916,-3.6865,-3.6612,-3.6169,-3.5345,-3.4384,-3.3512,-3.2874,-3.2045,-3.1279,-3.0864,-3.1953,-3.306,-3.3517,-3.3698,-3.3066,-3.1575,-3.0473,-2.9837,-2.9623,-2.9289,-2.8969,-2.8591,-2.8276,-2.8196,-2.8693,-2.8278,-2.8393,-2.8927,-2.8747,-2.8372,-2.8506,-2.8725,-2.933,-2.9803,-3.001,-3.0187,-3.0859,-3.1524,-3.1696,-3.1839,-3.1579,-3.1709,-3.1427,-3.1191,-3.0912,-3.0261,-2.9778,-2.9546,-2.9606,-2.9469,-2.894,-4.4785,-4.4573,-4.4203,-4.4388,-4.5034,-4.5881,-4.6373,-4.6793,-4.7697,-4.8013,-4.8068,-4.8227,-4.8292,-4.8356,-4.8644,-4.8769,-4.8707,-4.8736,-4.8673,-4.8483,-4.8292,-4.7934,-4.7404,-4.703,-4.6474,-4.5873,-4.5248,-4.4642,-4.4049,-4.4025,-4.3635,-4.2698,-4.2376,-4.187,-4.1204,-4.0341,-3.9718,-3.9437,-3.8823,-3.8341,-3.793,-3.7303,-3.6722,-3.6259,-3.5683,-3.5024,-3.4237,-3.3565,-3.3073,-3.2697,-3.3423,-3.5054,-3.7534,-3.9122,-4.0211,-4.1235,-4.1786,-4.1786,-4.1252,-4.0595,-4.0117,-3.9897,-3.889,-3.8051,-3.7765,-3.7246,-3.6653,-3.6001,-3.5331,-3.4785,-3.4353,-3.3542,-3.2536,-3.119,-3.2437,-3.3668,-3.4089,-3.3999,-3.3578,-3.2886,-3.1693,-3.0805,-3.0392,-3.0038,-2.9664,-2.9288,-2.8653,-2.8345,-2.8385,-2.7846,-2.7386,-2.7941,-2.7686,-2.7905,-2.8383,-2.9038,-2.9769,-3.0326,-3.0653,-3.0764,-3.1429,-3.1882,-3.2056,-3.1948,-3.1691,-3.1492,-3.1207,-3.0975,-3.0869,-3.0705,-3.0427,-3.0416,-3.0618,-3.0326,-2.9743,-4.5442,-4.5286,-4.5154,-4.5546,-4.6385,-4.708,-4.7612,-4.8163,-4.8663,-4.879,-4.8893,-4.9251,-4.9312,-4.9236,-4.9424,-4.9424,-4.9266,-4.9092,-4.8798,-4.8547,-4.8547,-4.8258,-4.7737,-4.7337,-4.6961,-4.6474,-4.612,-4.5746,-4.5309,-4.5238,-4.4651,-4.3574,-4.3351,-4.2938,-4.2089,-4.1053,-4.0456,-4.0232,-3.9327,-3.8585,-3.8288,-3.7653,-3.7068,-3.6763,-3.6377,-3.5904,-3.5339,-3.4718,-3.3901,-3.3304,-3.403,-3.6062,-3.8857,-4.0135,-4.1332,-4.2529,-4.2879,-4.2775,-4.2388,-4.1681,-4.1273,-4.0967,-3.9901,-3.9059,-3.8702,-3.8096,-3.7584,-3.7124,-3.6483,-3.6071,-3.5864,-3.5126,-3.4195,-3.3346,-3.3798,-3.4472,-3.4806,-3.4685,-3.4143,-3.3539,-3.243,-3.1687,-3.1217,-3.0923,-3.0421,-2.9982,-2.9156,-2.8478,-2.8302,-2.7365,-2.7185,-2.6974,-2.6828,-2.7436,-2.8436,-2.9274,-3.0168,-3.084,-3.1391,-3.1498,-3.1844,-3.2091,-3.2301,-3.1875,-3.1579,-3.1652,-3.1429,-3.1366,-3.121,-3.1102,-3.1102,-3.1268,-3.1321,-3.0968,-3.0443,-4.7391,-4.6873,-4.6637,-4.7019,-4.7913,-4.8506,-4.9156,-4.9801,-4.9968,-4.9998,-5.0221,-5.0615,-5.09,-5.0891,-5.0591,-5.0339,-5.0057,-4.9413,-4.8984,-4.8798,-4.8765,-4.8702,-4.842,-4.7671,-4.7202,-4.6997,-4.6652,-4.6121,-4.5667,-4.5691,-4.5123,-4.4362,-4.4278,-4.4236,-4.3579,-4.244,-4.1595,-4.125,-3.9685,-3.8581,-3.7978,-3.7315,-3.6748,-3.6394,-3.6543,-3.6581,-3.647,-3.5984,-3.5058,-3.395,-3.4963,-3.6896,-3.9242,-4.0659,-4.2135,-4.3835,-4.3757,-4.3519,-4.3138,-4.2393,-4.1715,-4.1461,-4.0595,-4.0037,-3.9647,-3.9235,-3.8884,-3.8472,-3.7741,-3.7252,-3.7177,-3.681,-3.6356,-3.6365,-3.5838,-3.5823,-3.6242,-3.5685,-3.4804,-3.3836,-3.2875,-3.2221,-3.2023,-3.1732,-3.12,-3.0526,-2.9729,-2.9094,-2.8554,-2.7671,-2.6828,-2.6709,-2.6833,-2.8081,-2.9415,-3.0629,-3.1589,-3.2706,-3.2913,-3.2651,-3.2299,-3.2371,-3.2232,-3.1802,-3.1739,-3.1772,-3.1825,-3.1855,-3.19,-3.1945,-3.1966,-3.2108,-3.184,-3.1457,-3.099,-4.8061,-4.7232,-4.7689,-4.8084,-4.8606,-4.9791,-5.0629,-5.0897,-5.1307,-5.1338,-5.133,-5.1447,-5.1623,-5.163,-5.1202,-5.0901,-5.0635,-5.0026,-4.959,-4.9411,-4.9411,-4.9229,-4.8798,-4.8258,-4.7934,-4.7869,-4.7704,-4.7373,-4.677,-4.6657,-4.6205,-4.5394,-4.5196,-4.5024,-4.4432,-4.3113,-4.2352,-4.2035,-4.0781,-3.9657,-3.9076,-3.8836,-3.8499,-3.7881,-3.8044,-3.8068,-3.7801,-3.754,-3.664,-3.5344,-3.6164,-3.7786,-3.9987,-4.1351,-4.2626,-4.3804,-4.446,-4.4353,-4.361,-4.3103,-4.258,-4.1918,-4.0948,-4.0288,-4.0037,-3.9625,-3.9255,-3.8898,-3.8537,-3.8439,-3.8428,-3.8553,-3.8413,-3.7774,-3.7253,-3.697,-3.6901,-3.6143,-3.5166,-3.4219,-3.3396,-3.2889,-3.2571,-3.2129,-3.1542,-3.1019,-3.0043,-2.8987,-2.8565,-2.7712,-2.6773,-2.7456,-2.7992,-2.9342,-3.0627,-3.1918,-3.3172,-3.4644,-3.4772,-3.4189,-3.3457,-3.2686,-3.2227,-3.1654,-3.2066,-3.2225,-3.2378,-3.2475,-3.261,-3.2691,-3.2766,-3.2803,-3.2315,-3.1891,-3.1441,-4.9364,-4.8764,-4.9178,-4.961,-5.0143,-5.1325,-5.2094,-5.2476,-5.2506,-5.2516,-5.2438,-5.2626,-5.2619,-5.2313,-5.2379,-5.1987,-5.128,-5.0772,-5.031,-4.9708,-4.9791,-4.9615,-4.9229,-4.8951,-4.8793,-4.8606,-4.8606,-4.8225,-4.7737,-4.7437,-4.6961,-4.6442,-4.5977,-4.5687,-4.5416,-4.3944,-4.3083,-4.27,-4.1523,-4.0341,-3.9651,-3.9437,-3.9,-3.8592,-3.8867,-3.9106,-3.8978,-3.9009,-3.8165,-3.7024,-3.7621,-3.9076,-4.0636,-4.2056,-4.3366,-4.4425,-4.4865,-4.4642,-4.4042,-4.3423,-4.2757,-4.2063,-4.116,-4.0539,-4.0188,-3.9884,-3.9573,-3.9202,-3.9169,-3.9222,-3.9276,-3.9644,-3.9546,-3.9005,-3.8593,-3.8274,-3.7893,-3.6744,-3.5819,-3.4962,-3.4155,-3.3309,-3.3128,-3.256,-3.2106,-3.1542,-3.0458,-2.9545,-2.88,-2.7726,-2.7166,-2.7841,-2.877,-2.9971,-3.1862,-3.3371,-3.5023,-3.6429,-3.6353,-3.5754,-3.446,-3.3343,-3.2766,-3.2383,-3.2591,-3.2715,-3.2817,-3.3015,-3.3172,-3.3274,-3.347,-3.3161,-3.2656,-3.2104,-3.1652,-5.114,-5.0895,-5.0994,-5.1512,-5.2362,-5.2887,-5.3509,-5.4146,-5.3757,-5.3528,-5.3653,-5.4045,-5.3791,-5.3067,-5.3835,-5.3414,-5.1939,-5.1695,-5.0818,-5.0287,-5.0102,-5.0137,-4.9907,-4.9907,-4.9595,-4.9291,-4.924,-4.8877,-4.8346,-4.7802,-4.7538,-4.727,-4.6582,-4.6308,-4.5885,-4.4692,-4.3981,-4.3441,-4.2204,-4.1055,-4.029,-3.9902,-3.945,-3.9001,-3.9436,-3.9976,-4.0193,-4.0287,-3.9689,-3.7772,-3.9092,-4.0124,-4.122,-4.2732,-4.4057,-4.501,-4.4953,-4.4669,-4.4341,-4.3193,-4.2298,-4.1912,-4.112,-4.0617,-4.0337,-4.0087,-3.9833,-3.952,-3.9558,-3.9558,-3.9729,-3.9935,-3.9952,-3.9698,-3.9662,-3.9329,-3.8668,-3.7437,-3.645,-3.6002,-3.4788,-3.3906,-3.353,-3.3234,-3.285,-3.2026,-3.0964,-3.0132,-2.9403,-2.8685,-2.8207,-2.8274,-2.9311,-3.0455,-3.2664,-3.4864,-3.6673,-3.8215,-3.7681,-3.695,-3.544,-3.4347,-3.3652,-3.3262,-3.2975,-3.2961,-3.3139,-3.3313,-3.3616,-3.3612,-3.3578,-3.314,-3.2687,-3.2191,-3.1739,-5.3414,-5.3164,-5.3315,-5.3427,-5.3664,-5.4137,-5.4659,-5.5021,-5.4514,-5.4389,-5.4698,-5.475,-5.4809,-5.4934,-5.4909,-5.465,-5.3863,-5.2709,-5.1485,-5.0544,-5.0768,-5.0982,-5.084,-5.0697,-5.02,-4.9791,-4.9916,-4.9412,-4.8575,-4.8422,-4.8289,-4.7803,-4.7539,-4.7008,-4.6222,-4.5505,-4.4496,-4.3944,-4.3002,-4.2252,-4.1629,-4.1363,-4.0939,-4.0359,-4.0684,-4.118,-4.1566,-4.1821,-4.1501,-4.0697,-4.0043,-4.0344,-4.1399,-4.2402,-4.3647,-4.4629,-4.4817,-4.4341,-4.375,-4.2914,-4.202,-4.1311,-4.0995,-4.0617,-4.0421,-4.0087,-3.9935,-3.9781,-3.9662,-3.9747,-4.0002,-4.0071,-4.0037,-3.9935,-3.9781,-3.9677,-3.9235,-3.7996,-3.6979,-3.6345,-3.531,-3.4277,-3.443,-3.3699,-3.3114,-3.2358,-3.1592,-3.069,-3.0153,-2.9594,-2.9588,-2.9566,-3.1025,-3.2467,-3.4373,-3.6607,-3.8275,-3.9306,-3.8841,-3.7983,-3.6509,-3.5011,-3.4158,-3.3604,-3.3151,-3.3226,-3.3472,-3.3711,-3.3973,-3.3885,-3.3642,-3.3224,-3.2796,-3.2302,-3.1853,-5.4728,-5.4451,-5.4476,-5.4498,-5.4528,-5.4832,-5.5081,-5.5296,-5.4796,-5.4684,-5.4955,-5.4967,-5.5061,-5.5177,-5.5541,-5.5473,-5.4491,-5.3211,-5.2289,-5.1828,-5.1765,-5.1585,-5.1455,-5.1262,-5.078,-5.0161,-4.987,-4.9275,-4.8737,-4.8644,-4.8609,-4.8259,-4.8216,-4.7761,-4.7068,-4.6411,-4.5851,-4.5218,-4.4483,-4.3813,-4.3265,-4.2774,-4.2484,-4.2038,-4.2129,-4.2479,-4.2982,-4.308,-4.2867,-4.2228,-4.1328,-4.0978,-4.1533,-4.2213,-4.3027,-4.3769,-4.363,-4.3325,-4.2784,-4.2288,-4.1615,-4.1093,-4.0871,-4.068,-4.0519,-4.0222,-4.0037,-3.9986,-3.9986,-4.0071,-4.029,-4.0256,-4.0138,-4.0087,-3.9986,-3.9884,-3.9631,-3.8571,-3.765,-3.7316,-3.647,-3.5803,-3.5331,-3.4558,-3.377,-3.3222,-3.2573,-3.1753,-3.1362,-3.0955,-3.1266,-3.1777,-3.3288,-3.482,-3.6584,-3.8315,-3.9904,-4.0239,-3.9777,-3.8791,-3.749,-3.6005,-3.4543,-3.4027,-3.3624,-3.3689,-3.3924,-3.412,-3.4101,-3.3797,-3.3519,-3.3256,-3.2935,-3.2468,-3.2079,-5.5796,-5.5224,-5.5323,-5.5261,-5.5095,-5.5164,-5.5164,-5.5231,-5.4742,-5.4514,-5.4628,-5.4941,-5.4965,-5.5072,-5.6062,-5.5757,-5.4629,-5.3897,-5.3381,-5.2888,-5.2618,-5.2242,-5.1891,-5.15,-5.1084,-5.0556,-4.9925,-4.9208,-4.8776,-4.882,-4.8875,-4.8747,-4.888,-4.8575,-4.8022,-4.7767,-4.7327,-4.649,-4.6099,-4.5705,-4.5128,-4.4495,-4.4113,-4.3765,-4.3396,-4.3574,-4.3896,-4.4021,-4.39,-4.3517,-4.2949,-4.2543,-4.2233,-4.2044,-4.2359,-4.2877,-4.2496,-4.2348,-4.238,-4.1801,-4.1279,-4.1209,-4.1059,-4.0776,-4.0534,-4.0387,-4.0238,-4.0188,-4.0188,-4.0372,-4.0554,-4.0421,-4.0337,-4.0238,-4.0188,-4.0087,-3.9935,-3.9126,-3.8653,-3.8402,-3.7451,-3.6668,-3.6274,-3.5658,-3.4777,-3.4036,-3.3414,-3.2976,-3.2644,-3.2783,-3.3284,-3.3917,-3.5392,-3.6999,-3.8674,-3.9355,-4.1008,-4.0974,-4.0528,-3.9363,-3.8248,-3.6812,-3.5394,-3.457,-3.4182,-3.4153,-3.3958,-3.3939,-3.3802,-3.3559,-3.3414,-3.3203,-3.2935,-3.2633,-3.2308,-5.705,-5.6524,-5.6582,-5.6082,-5.521,-5.5246,-5.5164,-5.4856,-5.4509,-5.4326,-5.4409,-5.4664,-5.5157,-5.5667,-5.6403,-5.6185,-5.5482,-5.5014,-5.4439,-5.3639,-5.3327,-5.3053,-5.255,-5.159,-5.1009,-5.0707,-5.0155,-4.9352,-4.8755,-4.8852,-4.9195,-4.9555,-4.9626,-4.9377,-4.9104,-4.8945,-4.8592,-4.7928,-4.7527,-4.7341,-4.7168,-4.666,-4.6014,-4.5405,-4.4695,-4.4538,-4.4715,-4.4783,-4.4858,-4.4989,-4.4372,-4.3819,-4.3182,-4.2446,-4.2327,-4.253,-4.2334,-4.2064,-4.2149,-4.1754,-4.137,-4.1209,-4.1105,-4.0871,-4.0631,-4.0485,-4.0387,-4.0353,-4.0353,-4.0451,-4.0485,-4.0417,-4.0353,-4.0337,-4.0188,-4.0087,-3.9901,-3.9562,-3.9272,-3.912,-3.8151,-3.7367,-3.7,-3.654,-3.5609,-3.5106,-3.4837,-3.4605,-3.4455,-3.5091,-3.5973,-3.6687,-3.7497,-3.9106,-4.072,-4.099,-4.166,-4.1449,-4.0899,-3.9808,-3.8621,-3.7435,-3.6288,-3.5218,-3.4414,-3.4007,-3.3924,-3.3838,-3.37,-3.3591,-3.3382,-3.3256,-3.2958,-3.2773,-3.2696,-5.7254,-5.6804,-5.6562,-5.5975,-5.5325,-5.5081,-5.4998,-5.4934,-5.4777,-5.4665,-5.48,-5.5042,-5.5299,-5.5719,-5.6366,-5.6541,-5.6559,-5.6151,-5.5607,-5.4942,-5.4226,-5.3818,-5.3463,-5.2165,-5.1327,-5.0925,-5.0325,-4.9423,-4.8566,-4.8887,-4.9415,-4.9923,-5.0199,-5.0204,-5.0079,-5.0206,-4.9872,-4.9275,-4.9082,-4.903,-4.889,-4.819,-4.7073,-4.6221,-4.5701,-4.5511,-4.5631,-4.5683,-4.5784,-4.5845,-4.5348,-4.4869,-4.4237,-4.3325,-4.231,-4.2215,-4.189,-4.1742,-4.1847,-4.1555,-4.138,-4.13,-4.1152,-4.1,-4.0728,-4.0583,-4.0534,-4.0466,-4.0233,-4.0363,-4.0659,-4.0336,-4.0206,-4.0368,-4.0238,-4.0071,-3.99,-3.9659,-3.9468,-3.9362,-3.8758,-3.815,-3.7894,-3.7316,-3.6422,-3.6121,-3.6094,-3.6195,-3.6291,-3.7219,-3.8244,-3.8685,-3.9313,-4.0425,-4.1716,-4.1997,-4.2039,-4.1767,-4.1187,-4.0121,-3.8974,-3.7741,-3.6635,-3.5547,-3.4841,-3.4365,-3.4021,-3.3935,-3.3764,-3.3623,-3.355,-3.3425,-3.3096,-3.2921,-3.2962,-5.7021,-5.6588,-5.6136,-5.5589,-5.5095,-5.4832,-5.4749,-5.4915,-5.4888,-5.4842,-5.493,-5.5223,-5.5372,-5.5609,-5.6237,-5.6876,-5.7364,-5.6635,-5.639,-5.6108,-5.5085,-5.4488,-5.4222,-5.3244,-5.2183,-5.1782,-5.0454,-4.9492,-4.8826,-4.9111,-4.9683,-5.0362,-5.0875,-5.1158,-5.1131,-5.1454,-5.1151,-5.0823,-5.056,-5.0524,-4.9827,-4.865,-4.7421,-4.6597,-4.6385,-4.6315,-4.6459,-4.6566,-4.666,-4.6656,-4.6355,-4.5927,-4.557,-4.4361,-4.3103,-4.2086,-4.1544,-4.144,-4.1635,-4.1585,-4.156,-4.1471,-4.1244,-4.1059,-4.0871,-4.068,-4.0583,-4.0672,-4.025,-4.0112,-4.0481,-4.0124,-3.9984,-4.0089,-4.0152,-4.0071,-3.9863,-3.9568,-3.9061,-3.8952,-3.904,-3.8756,-3.8205,-3.7947,-3.7011,-3.7345,-3.7369,-3.7995,-3.8185,-3.9157,-4.004,-4.0449,-4.101,-4.1808,-4.2526,-4.2712,-4.253,-4.2132,-4.1336,-4.0299,-3.9196,-3.8044,-3.7044,-3.6138,-3.5613,-3.5132,-3.4655,-3.4212,-3.4304,-3.4214,-3.3878,-3.3668,-3.3634,-3.349,-3.3377,-5.6225,-5.5811,-5.5364,-5.4885,-5.4422,-5.4613,-5.4528,-5.4264,-5.442,-5.4325,-5.4417,-5.4456,-5.4974,-5.5645,-5.6437,-5.6754,-5.6744,-5.6619,-5.641,-5.6209,-5.5522,-5.517,-5.5184,-5.4027,-5.3225,-5.2676,-5.112,-4.9711,-4.923,-4.9638,-5.038,-5.1118,-5.1777,-5.2283,-5.2404,-5.249,-5.2472,-5.2065,-5.1886,-5.1285,-5.0275,-4.9238,-4.8374,-4.7606,-4.7051,-4.6799,-4.7071,-4.7291,-4.747,-4.7512,-4.7601,-4.7202,-4.6535,-4.6194,-4.5372,-4.4221,-4.2987,-4.2018,-4.2555,-4.2317,-4.1912,-4.1745,-4.1495,-4.1198,-4.0965,-4.0776,-4.0776,-4.1012,-4.0331,-3.9926,-4.0065,-3.995,-3.9813,-3.9924,-4.0046,-4.0003,-3.9845,-3.9355,-3.8843,-3.8423,-3.8367,-3.8351,-3.8091,-3.795,-3.7812,-3.8267,-3.8807,-3.9345,-4.0008,-4.0801,-4.1469,-4.1779,-4.1866,-4.2571,-4.2907,-4.3189,-4.2789,-4.2367,-4.1588,-4.0591,-3.9688,-3.8678,-3.7818,-3.7036,-3.6502,-3.5803,-3.5026,-3.4762,-3.4943,-3.4884,-3.4622,-3.4441,-3.4311,-3.4132,-3.3892,-5.4935,-5.5592,-5.4787,-5.4442,-5.4274,-5.4528,-5.4528,-5.4549,-5.4709,-5.4649,-5.4528,-5.446,-5.4907,-5.5574,-5.5793,-5.6019,-5.639,-5.6621,-5.6161,-5.5574,-5.5227,-5.5085,-5.4796,-5.4035,-5.3528,-5.3088,-5.2228,-5.1241,-5.0501,-5.025,-5.085,-5.2151,-5.2493,-5.2864,-5.3252,-5.3198,-5.2944,-5.2672,-5.2325,-5.1466,-5.0354,-4.9567,-4.8805,-4.7761,-4.7427,-4.75,-4.7679,-4.7962,-4.8194,-4.8271,-4.8421,-4.8161,-4.7529,-4.7044,-4.6481,-4.6494,-4.4844,-4.3942,-4.3748,-4.3144,-4.2695,-4.2229,-4.1796,-4.1244,-4.0965,-4.0836,-4.0629,-4.0389,-3.9753,-3.945,-3.9504,-3.9434,-3.9569,-3.9686,-3.987,-3.98,-3.9573,-3.9073,-3.8567,-3.8141,-3.7828,-3.7987,-3.8211,-3.8348,-3.8388,-3.8832,-3.9561,-4.0291,-4.0988,-4.1814,-4.2385,-4.2827,-4.2911,-4.3026,-4.3211,-4.3389,-4.2756,-4.2294,-4.1855,-4.0983,-4.0279,-3.9397,-3.8626,-3.8023,-3.7609,-3.6718,-3.5558,-3.5513,-3.5844,-3.5647,-3.5412,-3.5249,-3.5031,-3.4698,-3.4519,-5.3989,-5.5225,-5.4355,-5.411,-5.4412,-5.4497,-5.4613,-5.4813,-5.5031,-5.5021,-5.4731,-5.4582,-5.4864,-5.5296,-5.5235,-5.5632,-5.6145,-5.6404,-5.5681,-5.4912,-5.4511,-5.4593,-5.4633,-5.4158,-5.3831,-5.3273,-5.2966,-5.2498,-5.2,-5.1593,-5.2015,-5.3128,-5.3225,-5.3385,-5.3608,-5.3563,-5.3281,-5.2937,-5.2663,-5.1647,-5.0281,-4.9911,-4.9025,-4.8212,-4.7875,-4.8117,-4.8384,-4.8603,-4.8853,-4.8956,-4.8956,-4.8779,-4.8455,-4.7942,-4.7644,-4.7524,-4.6527,-4.5888,-4.5198,-4.4378,-4.3558,-4.2864,-4.2061,-4.1185,-4.0666,-4.0642,-4.0597,-4.0145,-3.9425,-3.9129,-3.9033,-3.9111,-3.9051,-3.9295,-3.959,-3.9478,-3.9391,-3.9016,-3.8567,-3.8141,-3.7924,-3.8098,-3.8324,-3.8708,-3.8994,-3.9402,-4.013,-4.1146,-4.1846,-4.2512,-4.2798,-4.3146,-4.3262,-4.3224,-4.3257,-4.3224,-4.2654,-4.2215,-4.1833,-4.1387,-4.0679,-4.0248,-3.9632,-3.9088,-3.8657,-3.8046,-3.7229,-3.6994,-3.6731,-3.6443,-3.6117,-3.5951,-3.5784,-3.5388,-3.5143,-5.3744,-5.4585,-5.4016,-5.4049,-5.4497,-5.4697,-5.4813,-5.4883,-5.5213,-5.5052,-5.4623,-5.4256,-5.4178,-5.4797,-5.5255,-5.5486,-5.5566,-5.4963,-5.4501,-5.426,-5.4158,-5.4014,-5.4127,-5.4391,-5.4727,-5.4463,-5.3849,-5.3715,-5.3887,-5.3157,-5.3214,-5.3306,-5.3842,-5.4008,-5.3981,-5.3795,-5.3484,-5.3151,-5.293,-5.1988,-5.0773,-5.0155,-4.9596,-4.8553,-4.8383,-4.8603,-4.8956,-4.9188,-4.9377,-4.9469,-4.9439,-4.9309,-4.908,-4.8736,-4.8564,-4.8347,-4.7941,-4.7346,-4.6743,-4.5224,-4.3935,-4.3208,-4.2238,-4.1056,-4.0297,-4.0089,-4.004,-3.9975,-3.918,-3.8944,-3.8986,-3.9091,-3.8633,-3.8876,-3.9284,-3.9589,-3.9429,-3.9123,-3.8701,-3.8197,-3.8104,-3.8275,-3.873,-3.9145,-3.9782,-4.0162,-4.0734,-4.1721,-4.2104,-4.2645,-4.2834,-4.3023,-4.3328,-4.3355,-4.3141,-4.2921,-4.2545,-4.2291,-4.1911,-4.156,-4.1176,-4.0752,-4.0324,-4.0033,-3.9599,-3.9256,-3.8843,-3.8149,-3.7533,-3.7173,-3.6854,-3.6628,-3.6342,-3.5994,-3.5827,-5.4496,-5.5172,-5.5278,-5.5295,-5.5213,-5.5328,-5.515,-5.4922,-5.5129,-5.4985,-5.4495,-5.3212,-5.3514,-5.4719,-5.4634,-5.4652,-5.4574,-5.4638,-5.3518,-5.2568,-5.2269,-5.2377,-5.2746,-5.3374,-5.3808,-5.3752,-5.3729,-5.3967,-5.3943,-5.42,-5.4337,-5.4396,-5.442,-5.4397,-5.4231,-5.3944,-5.3563,-5.3281,-5.303,-5.2316,-5.1553,-5.0712,-5.0141,-4.938,-4.8927,-4.9155,-4.9401,-4.9674,-4.9852,-4.9933,-4.9868,-4.9693,-4.9521,-4.9277,-4.9123,-4.881,-4.834,-4.7941,-4.7461,-4.5838,-4.4317,-4.2619,-4.1798,-4.1021,-4.0155,-4.0051,-3.9556,-3.9153,-3.8699,-3.8489,-3.7866,-3.8021,-3.8165,-3.8538,-3.8984,-3.9453,-3.9562,-3.9306,-3.892,-3.8455,-3.8416,-3.8495,-3.9055,-3.9702,-4.0315,-4.0956,-4.1562,-4.2137,-4.2423,-4.2743,-4.2899,-4.2961,-4.3207,-4.3235,-4.3052,-4.2867,-4.2618,-4.2267,-4.2012,-4.1725,-4.1469,-4.118,-4.0761,-4.063,-4.0369,-3.9849,-3.9392,-3.8818,-3.8245,-3.7591,-3.7323,-3.7186,-3.6892,-3.65,-3.6261,-5.573,-5.6327,-5.6621,-5.6459,-5.6146,-5.6179,-5.5961,-5.5732,-5.5653,-5.5314,-5.4702,-5.2882,-5.3047,-5.4543,-5.4313,-5.3711,-5.3636,-5.345,-5.2194,-5.1487,-5.1062,-5.111,-5.1425,-5.2083,-5.3081,-5.2967,-5.3756,-5.4334,-5.4325,-5.4818,-5.4819,-5.4716,-5.4705,-5.4571,-5.4371,-5.4091,-5.3756,-5.3481,-5.3326,-5.2835,-5.2143,-5.1411,-5.0972,-5.0368,-4.9877,-4.9843,-5.0123,-5.0329,-5.0221,-5.0283,-5.0221,-4.9923,-4.9679,-4.9448,-4.9318,-4.8871,-4.8306,-4.7701,-4.7165,-4.5807,-4.4173,-4.2406,-4.1728,-4.1006,-4.0463,-4.0228,-3.9912,-3.9118,-3.8517,-3.7882,-3.7248,-3.7671,-3.793,-3.832,-3.8947,-3.9444,-3.9713,-3.9631,-3.9196,-3.8766,-3.8786,-3.8925,-3.9761,-4.0415,-4.0836,-4.1488,-4.2037,-4.2291,-4.2252,-4.2574,-4.2961,-4.2961,-4.3084,-4.3052,-4.2929,-4.2522,-4.2269,-4.2459,-4.2173,-4.1885,-4.1629,-4.1438,-4.1437,-4.134,-4.1016,-4.0397,-3.9817,-3.9151,-3.852,-3.7924,-3.7594,-3.7263,-3.6904,-3.6507,-3.6198,-5.7318,-5.7899,-5.7672,-5.7462,-5.7171,-5.7189,-5.7271,-5.719,-5.6693,-5.6167,-5.5322,-5.3584,-5.3462,-5.4434,-5.4056,-5.3351,-5.2708,-5.2495,-5.1565,-5.0623,-5.0515,-5.0741,-5.1231,-5.184,-5.2798,-5.3462,-5.4106,-5.4607,-5.4876,-5.5037,-5.499,-5.4912,-5.4799,-5.4641,-5.4409,-5.4198,-5.3981,-5.3832,-5.3795,-5.3312,-5.2717,-5.197,-5.1615,-5.1419,-5.0478,-5.0317,-5.0726,-5.0632,-5.0566,-5.0625,-5.0525,-5.0128,-4.9534,-4.9746,-4.9494,-4.8758,-4.8288,-4.7884,-4.7508,-4.5333,-4.366,-4.2383,-4.1788,-4.1174,-4.0569,-4.0411,-4.0235,-3.932,-3.8868,-3.8529,-3.82,-3.7914,-3.7957,-3.8524,-3.9258,-3.9687,-4.0008,-4.0012,-3.9595,-3.9367,-3.927,-3.9391,-4.0426,-4.1194,-4.1422,-4.1885,-4.2476,-4.2602,-4.2337,-4.2533,-4.2958,-4.2961,-4.2961,-4.2867,-4.268,-4.2206,-4.2013,-4.2302,-4.2302,-4.198,-4.2109,-4.2298,-4.2171,-4.2077,-4.1628,-4.1074,-4.0244,-3.939,-3.8508,-3.7571,-3.7361,-3.7027,-3.6785,-3.6476,-3.6163,-5.8033,-5.8002,-5.8624,-5.8651,-5.8199,-5.8074,-5.8183,-5.8141,-5.7166,-5.6516,-5.6124,-5.4595,-5.419,-5.4581,-5.4128,-5.3123,-5.1981,-5.2165,-5.1417,-4.9832,-4.9972,-5.007,-5.0647,-5.1771,-5.2688,-5.3274,-5.4001,-5.4752,-5.513,-5.5157,-5.5075,-5.4971,-5.489,-5.4673,-5.4476,-5.4268,-5.4198,-5.4055,-5.4017,-5.3867,-5.3562,-5.2606,-5.2039,-5.2295,-5.1002,-5.0572,-5.1125,-5.0855,-5.0868,-5.0897,-5.0794,-5.0471,-4.9967,-5.0168,-4.9873,-4.9121,-4.8485,-4.6697,-4.5769,-4.4236,-4.3674,-4.2696,-4.1881,-4.1384,-4.0757,-4.0574,-4.0165,-3.9512,-3.8936,-3.856,-3.8264,-3.8195,-3.8451,-3.9596,-4.0235,-4.0421,-4.0631,-4.0439,-4.0172,-4.0132,-4.0034,-3.9947,-4.0569,-4.0998,-4.1271,-4.1478,-4.1913,-4.2458,-4.2452,-4.272,-4.3052,-4.2867,-4.2837,-4.268,-4.2492,-4.2045,-4.1851,-4.198,-4.2109,-4.198,-4.2238,-4.268,-4.2585,-4.2269,-4.2011,-4.1752,-4.0507,-3.9211,-3.796,-3.7152,-3.6999,-3.6846,-3.66,-3.6289,-3.5973,-5.8588,-5.8657,-5.924,-5.9402,-5.9204,-5.8827,-5.8613,-5.8403,-5.781,-5.7412,-5.6684,-5.5257,-5.467,-5.4697,-5.4035,-5.3074,-5.1559,-5.1621,-5.1751,-5.0011,-4.9784,-5.0203,-5.0886,-5.165,-5.2373,-5.311,-5.4115,-5.502,-5.5183,-5.5236,-5.5183,-5.5085,-5.4941,-5.4852,-5.4667,-5.4571,-5.4476,-5.4371,-5.4405,-5.4434,-5.4,-5.3354,-5.2541,-5.2463,-5.1727,-5.076,-5.1134,-5.1254,-5.1237,-5.1175,-5.113,-5.0924,-5.0567,-5.035,-5.0092,-4.9327,-4.838,-4.6652,-4.5519,-4.4856,-4.4225,-4.318,-4.2334,-4.1662,-4.1195,-4.1153,-4.0526,-3.9787,-3.8997,-3.8929,-3.8973,-3.8905,-3.9579,-4.0691,-4.147,-4.1736,-4.1821,-4.1704,-4.1302,-4.1172,-4.0624,-4.0572,-4.05,-4.0715,-4.0955,-4.1133,-4.1288,-4.1815,-4.2308,-4.261,-4.2785,-4.2668,-4.2645,-4.2648,-4.2429,-4.2077,-4.1882,-4.1817,-4.198,-4.2142,-4.2238,-4.2618,-4.2555,-4.2492,-4.2235,-4.1659,-4.0322,-3.8997,-3.7746,-3.6971,-3.6692,-3.6569,-3.6445,-3.61,-3.5748,-5.8978,-5.9822,-5.9522,-5.9716,-6.0089,-5.9341,-5.87,-5.8248,-5.9072,-5.858,-5.7202,-5.5752,-5.5123,-5.4745,-5.3608,-5.2601,-5.1972,-5.1637,-5.1413,-5.112,-5.0438,-5.073,-5.1078,-5.1729,-5.2403,-5.3139,-5.4043,-5.5116,-5.5198,-5.5288,-5.5288,-5.521,-5.5102,-5.5047,-5.5,-5.4882,-5.4799,-5.4736,-5.473,-5.4822,-5.4591,-5.3682,-5.3364,-5.3037,-5.2184,-5.1493,-5.1678,-5.1981,-5.18,-5.1761,-5.1864,-5.1091,-5.0576,-5.0298,-4.9789,-4.911,-4.8428,-4.7491,-4.6298,-4.57,-4.4924,-4.3808,-4.2894,-4.2207,-4.176,-4.1576,-4.0971,-4.0458,-3.989,-4.0021,-4.008,-4.0479,-4.0861,-4.1974,-4.2959,-4.3297,-4.3462,-4.3196,-4.2694,-4.209,-4.1206,-4.0883,-4.0728,-4.0793,-4.0927,-4.0922,-4.0983,-4.0721,-4.1266,-4.2055,-4.2235,-4.2299,-4.2346,-4.252,-4.2333,-4.2206,-4.2077,-4.2077,-4.2459,-4.2678,-4.2648,-4.2618,-4.2743,-4.2648,-4.2364,-4.1597,-4.0451,-3.8999,-3.753,-3.6939,-3.6595,-3.6255,-3.61,-3.5812,-3.5489,-5.9418,-5.9329,-5.9789,-5.9793,-5.957,-5.985,-5.9997,-6.001,-5.9845,-5.9337,-5.8804,-5.7184,-5.6123,-5.5623,-5.4663,-5.3484,-5.2752,-5.2232,-5.1593,-5.118,-5.0903,-5.0643,-5.1065,-5.189,-5.2631,-5.3481,-5.4386,-5.527,-5.5408,-5.5461,-5.5389,-5.5314,-5.5288,-5.5262,-5.5236,-5.5195,-5.5085,-5.5028,-5.5028,-5.5102,-5.5033,-5.4288,-5.3985,-5.3282,-5.2553,-5.1939,-5.1748,-5.229,-5.2208,-5.2325,-5.2822,-5.2477,-5.1702,-5.147,-5.0947,-4.9061,-4.873,-4.8384,-4.6884,-4.6471,-4.5872,-4.469,-4.3918,-4.3173,-4.2505,-4.1929,-4.1565,-4.1103,-4.0871,-4.0964,-4.1405,-4.1899,-4.2451,-4.3427,-4.4156,-4.4334,-4.4389,-4.3885,-4.3429,-4.3078,-4.2208,-4.1835,-4.1614,-4.0968,-4.107,-4.0967,-4.0796,-4.0385,-4.0341,-4.1156,-4.1725,-4.1829,-4.2168,-4.2349,-4.2645,-4.2555,-4.2461,-4.2365,-4.2772,-4.2925,-4.271,-4.268,-4.2929,-4.2737,-4.2264,-4.1533,-4.0705,-3.9156,-3.7435,-3.6934,-3.6557,-3.6155,-3.5782,-3.5524,-3.5294,-5.9328,-5.9365,-5.9816,-5.9814,-5.9621,-6.0071,-6.0416,-6.0413,-6.022,-5.9953,-5.947,-5.8161,-5.7155,-5.6442,-5.5581,-5.457,-5.344,-5.3132,-5.2629,-5.222,-5.1395,-5.1116,-5.1391,-5.2226,-5.2948,-5.3759,-5.4647,-5.5609,-5.566,-5.5615,-5.5508,-5.5577,-5.5485,-5.5485,-5.5508,-5.5485,-5.5437,-5.5326,-5.5301,-5.5389,-5.5224,-5.4878,-5.4168,-5.352,-5.2806,-5.2214,-5.1901,-5.2535,-5.2908,-5.3063,-5.3649,-5.3367,-5.2288,-5.1588,-5.1037,-4.9429,-4.9287,-4.8858,-4.788,-4.7463,-4.6501,-4.5566,-4.509,-4.4449,-4.365,-4.2953,-4.2428,-4.1954,-4.1931,-4.2021,-4.2634,-4.3296,-4.4117,-4.4953,-4.5081,-4.5174,-4.4836,-4.4423,-4.4147,-4.395,-4.3577,-4.3219,-4.2671,-4.185,-4.1221,-4.1155,-4.0933,-4.0456,-4.028,-4.0513,-4.1153,-4.1519,-4.1927,-4.2299,-4.2598,-4.299,-4.2867,-4.2805,-4.3019,-4.308,-4.2805,-4.2867,-4.3141,-4.2635,-4.194,-4.1341,-4.0895,-3.8996,-3.743,-3.7018,-3.6611,-3.5963,-3.5653,-3.5394,-3.5228,-5.9039,-5.9715,-5.9748,-5.9853,-5.9975,-6.0051,-6.0051,-6.0144,-6.0399,-6.0292,-5.9639,-5.8769,-5.804,-5.7446,-5.6618,-5.5754,-5.4882,-5.4381,-5.385,-5.3518,-5.2234,-5.1682,-5.205,-5.2759,-5.3359,-5.3899,-5.4728,-5.5808,-5.5766,-5.5745,-5.5748,-5.5789,-5.5748,-5.5745,-5.5766,-5.5707,-5.5707,-5.5689,-5.5626,-5.5643,-5.5576,-5.5093,-5.4448,-5.3716,-5.3169,-5.268,-5.2745,-5.3185,-5.3741,-5.3973,-5.4095,-5.3939,-5.2685,-5.1442,-5.077,-5.0164,-4.9901,-4.9277,-4.8732,-4.8237,-4.7453,-4.6735,-4.6338,-4.5574,-4.4733,-4.3729,-4.3092,-4.2826,-4.2752,-4.3151,-4.3735,-4.459,-4.5439,-4.595,-4.6152,-4.5975,-4.555,-4.518,-4.4858,-4.464,-4.4362,-4.4073,-4.3888,-4.3047,-4.2295,-4.1852,-4.112,-4.0609,-4.0486,-4.04,-4.0923,-4.146,-4.2022,-4.2617,-4.3145,-4.3383,-4.3262,-4.3262,-4.3443,-4.3295,-4.299,-4.3113,-4.3383,-4.2851,-4.2288,-4.1662,-4.0923,-3.9116,-3.7793,-3.7471,-3.6844,-3.5894,-3.5459,-3.5359,-3.5133,-5.9785,-6.0007,-6.0007,-6.0038,-6.0068,-6.0068,-6.0167,-6.0264,-6.0387,-6.0349,-6.0065,-5.9369,-5.8945,-5.8668,-5.78,-5.6894,-5.6142,-5.5453,-5.4969,-5.4065,-5.2924,-5.2576,-5.2779,-5.3262,-5.3778,-5.4619,-5.5393,-5.5861,-5.5766,-5.5843,-5.5864,-5.5938,-5.5864,-5.5787,-5.5884,-5.5845,-5.5805,-5.5917,-5.5938,-5.5902,-5.5896,-5.583,-5.5374,-5.4784,-5.4283,-5.3895,-5.392,-5.4008,-5.4396,-5.4661,-5.5221,-5.4805,-5.3772,-5.2614,-5.1687,-5.0968,-5.0493,-4.9926,-4.9331,-4.8827,-4.8117,-4.7357,-4.6813,-4.6334,-4.5597,-4.4505,-4.385,-4.3701,-4.38,-4.4303,-4.4888,-4.5787,-4.6525,-4.6821,-4.7061,-4.666,-4.6175,-4.583,-4.5486,-4.5242,-4.5047,-4.4829,-4.4713,-4.4284,-4.3477,-4.2603,-4.1527,-4.0927,-4.0908,-4.0916,-4.1485,-4.2044,-4.2545,-4.3113,-4.3714,-4.414,-4.4148,-4.378,-4.3805,-4.3509,-4.3174,-4.3476,-4.3713,-4.3323,-4.2798,-4.2013,-4.0918,-3.9323,-3.8274,-3.7825,-3.6869,-3.5799,-3.5554,-3.5424,-3.5198,-6.0167,-6.0197,-6.0226,-6.0217,-6.0256,-6.0256,-6.0285,-6.038,-6.0436,-6.048,-6.0482,-6.0098,-5.9835,-5.9524,-5.8638,-5.7807,-5.7016,-5.639,-5.5391,-5.4395,-5.3874,-5.3494,-5.3569,-5.3774,-5.4249,-5.4971,-5.5219,-5.549,-5.5583,-5.5118,-5.4963,-5.5482,-5.5598,-5.5684,-5.5807,-5.5785,-5.5761,-5.6117,-5.6102,-5.618,-5.6311,-5.6388,-5.6233,-5.5744,-5.5327,-5.504,-5.4839,-5.4829,-5.4817,-5.4862,-5.5073,-5.471,-5.3771,-5.2867,-5.2172,-5.166,-5.123,-5.0759,-5.0079,-4.9529,-4.9038,-4.8457,-4.788,-4.7587,-4.6998,-4.5976,-4.5137,-4.4983,-4.5217,-4.5718,-4.5991,-4.6759,-4.6865,-4.7074,-4.7003,-4.6688,-4.6269,-4.5885,-4.578,-4.5775,-4.5684,-4.5635,-4.5486,-4.53,-4.4526,-4.3614,-4.2498,-4.1794,-4.1654,-4.1842,-4.2348,-4.2976,-4.3707,-4.4326,-4.5116,-4.5409,-4.5388,-4.4902,-4.4356,-4.4048,-4.3898,-4.3981,-4.4006,-4.3443,-4.274,-4.1949,-4.0692,-3.9283,-3.8354,-3.7782,-3.6706,-3.5519,-3.5489,-3.5489,-3.5294,-6.0082,-6.0323,-6.038,-6.0408,-6.0408,-6.037,-6.0436,-6.0491,-6.048,-6.0585,-6.0734,-6.0727,-6.0419,-5.9824,-5.9068,-5.8291,-5.7521,-5.6773,-5.5768,-5.5053,-5.463,-5.4452,-5.4404,-5.4452,-5.4846,-5.4968,-5.5151,-5.5126,-5.5124,-5.4568,-5.4373,-5.4863,-5.5046,-5.5216,-5.5605,-5.5514,-5.5307,-5.5903,-5.6162,-5.6434,-5.677,-5.7091,-5.683,-5.649,-5.6195,-5.6089,-5.5709,-5.5519,-5.5363,-5.5429,-5.5408,-5.5148,-5.4694,-5.4019,-5.318,-5.2693,-5.2348,-5.1815,-5.1193,-5.0786,-5.0435,-5.007,-4.9458,-4.8828,-4.8161,-4.75,-4.6653,-4.646,-4.6691,-4.6826,-4.7153,-4.7499,-4.7538,-4.7176,-4.7004,-4.6621,-4.6221,-4.5889,-4.5955,-4.6105,-4.607,-4.607,-4.588,-4.5765,-4.5217,-4.4371,-4.3784,-4.3231,-4.2921,-4.3299,-4.378,-4.4692,-4.5554,-4.6197,-4.6631,-4.6576,-4.6556,-4.5862,-4.532,-4.4868,-4.4541,-4.4428,-4.3981,-4.3169,-4.2458,-4.182,-4.0689,-3.9241,-3.8439,-3.7775,-3.655,-3.5519,-3.5489,-3.5424,-3.5294,-5.9674,-6.038,-6.0352,-6.0352,-6.0408,-6.0352,-6.0352,-6.0436,-6.0398,-6.048,-6.0635,-6.0766,-6.0745,-6.0713,-5.9978,-5.9124,-5.8153,-5.7288,-5.6571,-5.5891,-5.521,-5.5258,-5.5302,-5.5137,-5.5411,-5.5488,-5.5369,-5.5102,-5.4967,-5.4276,-5.4168,-5.4918,-5.4255,-5.4509,-5.5151,-5.5063,-5.508,-5.5653,-5.6562,-5.7055,-5.7496,-5.7649,-5.7358,-5.704,-5.6742,-5.6386,-5.6115,-5.6323,-5.6467,-5.6635,-5.6664,-5.6492,-5.6102,-5.5578,-5.4886,-5.4037,-5.3641,-5.2828,-5.227,-5.1822,-5.143,-5.0763,-5.0148,-4.9748,-4.9241,-4.8758,-4.8169,-4.792,-4.805,-4.7926,-4.8167,-4.8653,-4.8796,-4.7611,-4.6986,-4.6309,-4.5702,-4.5684,-4.5752,-4.5854,-4.5905,-4.5711,-4.5376,-4.5231,-4.5131,-4.4403,-4.4038,-4.3605,-4.3693,-4.4384,-4.5146,-4.6151,-4.7194,-4.7664,-4.7977,-4.7785,-4.7573,-4.6845,-4.6169,-4.566,-4.5094,-4.4586,-4.3989,-4.3202,-4.2458,-4.1885,-4.0563,-3.9198,-3.8476,-3.7728,-3.6466,-3.5549,-3.5519,-3.5424,-3.5294]},{"header":{"parameterUnit":"m.s-1","parameterCategory":1,"la1":31.0,"la2":29.5877,"lo1":-88.7671,"lo2":-86.6584,"dy":0.0162,"dx":0.0185,"nx":115,"ny":88,"refTime":"2023-07-05T00:00:00:Z","depth":0,"parameterNumber":3,"parameterNumberName":"V-component_of_WINDS"},"data":[0.0,0.0,0.0,0.0,0.0,0.0,0.0,0.0,0.0,0.0,0.0,0.0,0.0,0.0,0.0,0.0,0.0,0.0,0.0,0.0,0.0,0.0,0.0,0.0,0.0,0.0,0.0,0.0,0.0,0.0,0.0,0.0,0.0,0.0,0.0,0.0,0.0,0.0,0.0,0.0,0.0,0.0,0.0,0.0,0.0,0.0,0.0,0.0,0.0,0.0,0.0,0.0,0.0,0.0,0.0,0.0,0.0,0.0,0.0,0.0,0.0,0.0,0.0,0.0,0.0,0.0,0.0,0.0,0.0,0.0,0.0,0.0,0.0,0.0,0.0,0.0,0.0,0.0,0.0,0.0,0.0,0.0,0.0,0.0,0.0,0.0,0.0,0.0,0.0,0.0,0.0,0.0,0.0,0.0,0.0,0.0,0.0,0.0,0.0,0.0,0.0,0.0,0.0,0.0,0.0,0.0,0.0,0.0,0.0,0.0,0.0,0.0,0.0,0.0,0.0,0.0,0.0,0.0,0.0,0.0,0.0,0.0,0.0,0.0,0.0,0.0,0.0,0.0,0.0,0.0,0.0,0.0,0.0,0.0,0.0,0.0,0.0,0.0,0.0,0.0,0.0,0.0,0.0,0.0,0.0,0.0,0.0,0.0,0.0,0.0,0.0,0.0,0.0,0.0,0.0,0.0,0.0,0.0,0.0,0.0,0.0,0.0,0.0,0.0,0.0,0.0,0.0,0.0,0.0,0.0,0.0,0.0,0.0,0.0,0.0,0.0,0.0,0.0,0.0,0.0,0.0,0.0,0.0,0.0,0.0,0.0,0.0,0.0,0.0,0.0,0.0,0.0,0.0,0.0,0.0,0.0,0.0,0.0,0.0,0.0,0.0,0.0,0.0,0.0,0.0,0.0,0.0,0.0,0.0,0.0,0.0,0.0,0.0,0.0,0.0,0.0,0.0,0.0,0.0,0.0,0.0,0.0,0.0,0.0,0.0,0.0,0.0,0.0,0.0,0.0,0.0,0.0,0.0,0.0,0.0,0.0,0.0,0.0,0.0,0.0,0.0,0.0,0.0,0.0,0.0,0.0,0.0,0.0,0.0,0.0,0.0,0.0,0.0,0.0,0.0,0.0,0.0,0.0,0.0,0.0,0.0,0.0,0.0,0.0,0.0,0.0,0.0,0.0,0.0,0.0,0.0,0.0,0.0,0.0,0.0,0.0,0.0,0.0,0.0,0.0,0.0,0.0,0.0,0.0,0.0,0.0,0.0,0.0,0.0,0.0,0.0,0.0,0.0,0.0,0.0,0.0,0.0,0.0,0.0,0.0,0.0,0.0,0.0,0.0,0.0,0.0,0.0,0.0,0.0,0.0,0.0,0.0,0.0,0.0,0.0,0.0,0.0,0.0,0.0,0.0,0.0,0.0,0.0,0.0,0.0,0.0,0.0,0.0,0.0,0.0,0.0,0.0,0.0,0.0,0.0,0.0,0.0,0.0,0.0,0.0,0.0,0.0,0.0,0.0,0.0,0.0,0.0,0.0,0.0,0.0,0.0,0.0,0.0,0.0,0.0,0.0,0.0,0.0,0.0,0.0,0.0,0.0,0.0,0.0,0.0,0.0,0.0,0.0,0.0,0.0,0.0,0.0,0.0,0.0,0.0,0.0,0.0,0.0,0.0,0.0,0.0,0.0,0.0,0.0,0.0,0.0,0.0,0.0,0.0,0.0,0.0,0.0,0.0,0.0,0.0,0.0,0.0,0.0,0.0,0.0,0.0,0.0,0.0,0.0,0.0,0.0,0.0,0.0,0.0,0.0,0.0,0.0,0.0,0.0,0.0,0.0,0.0,0.0,0.0,0.0,0.0,0.0,0.0,0.0,0.0,0.0,0.0,0.0,0.0,0.0,0.0,0.0,0.0,0.0,0.0,0.0,0.0,0.0,0.0,0.0,0.0,0.0,0.0,0.0,0.0,0.0,0.0,0.0,0.0,0.0,0.0,0.0,0.0,0.0,0.0,0.0,0.0,0.0,0.0,0.0,0.0,0.0,0.0,0.0,0.0,0.0,0.0,0.0,0.0,0.0,0.0,0.0,0.0,0.0,0.0,0.0,0.0,0.0,0.0,0.0,0.0,0.0,0.0,0.0,0.0,0.0,0.0,0.0,0.0,0.0,0.0,0.0,0.0,0.0,0.0,0.0,0.0,0.0,0.0,0.0,0.0,0.0,0.0,0.0,0.0,0.0,0.0,0.0,0.0,0.0,0.0,0.0,0.0,0.0,0.0,0.0,0.0,0.0,0.0,0.0,0.0,0.0,0.0,0.0,0.0,0.0,0.0,0.0,0.0,0.0,0.0,0.0,0.0,0.0,0.0,0.0,0.0,0.0,0.0,0.0,0.0,0.0,0.0,0.0,0.0,0.0,0.0,0.0,0.0,0.0,0.0,0.0,0.0,0.0,0.0,0.0,0.0,0.0,0.0,0.0,0.0,0.0,0.0,0.0,0.0,0.0,0.0,0.0,0.0,0.0,0.0,0.0,0.0,0.0,0.0,0.0,0.0,0.0,0.0,0.0,0.0,0.0,0.0,0.0,0.0,0.0,0.0,0.0,0.0,0.0,0.0,0.0,0.0,0.0,0.0,0.0,0.0,0.0,0.0,0.0,0.0,0.0,0.0,0.0,0.0,0.0,0.0,0.0,0.0,0.0,0.0,0.0,0.0,0.0,0.0,0.0,0.0,0.0,0.0,0.0,0.0,0.0,0.0,0.0,0.0,0.0,0.0,0.0,0.0,0.0,0.0,0.0,0.0,0.0,0.0,0.0,0.0,0.0,0.0,0.0,0.0,0.0,0.0,0.0,0.0,0.0,0.0,0.0,0.0,0.0,0.0,0.0,0.0,0.0,0.0,0.0,0.0,0.0,0.0,0.0,0.0,0.0,0.0,0.0,0.0,0.0,0.0,0.0,0.0,0.0,0.0,0.0,0.0,0.0,0.0,0.0,0.0,0.0,0.0,0.0,0.0,0.0,0.0,0.0,0.0,0.0,0.0,0.0,0.0,0.0,0.0,0.0,0.0,0.0,0.0,0.0,0.0,0.0,0.0,0.0,0.0,0.0,0.0,0.0,0.0,0.0,0.0,0.0,0.0,0.0,0.0,0.0,0.0,0.0,0.0,0.0,0.0,0.0,0.0,0.0,0.0,0.0,0.0,0.0,0.0,0.0,0.0,0.0,0.0,0.0,0.0,0.0,0.0,0.0,0.0,0.0,0.0,0.0,0.0,0.0,0.0,0.0,0.0,0.0,0.0,0.0,0.0,0.0,0.0,0.0,0.0,0.0,0.0,0.0,0.0,0.0,0.0,0.0,0.0,0.0,0.0,0.0,0.0,0.0,0.0,0.0,0.0,0.0,0.0,0.0,0.0,0.0,0.0,0.0,0.0,0.0,0.0,0.0,0.0,0.0,0.0,0.0,0.0,0.0,0.0,0.0,0.0,0.0,0.0,0.0,0.0,0.0,0.0,0.0,0.0,0.0,0.0,0.0,0.0,0.0,0.0,0.0,0.0,0.0,0.0,0.0,0.0,0.0,0.0,0.0,0.0,0.0,0.0,0.0,0.0,0.0,0.0,0.0,0.0,0.0,0.0,0.0,0.0,0.0,0.0,0.0,0.0,0.0,0.0,0.0,0.0,0.0,0.0,0.0,0.0,0.0,0.0,0.0,0.0,0.0,0.0,0.0,0.0,0.0,0.0,0.0,0.0,0.0,0.0,0.0,0.0,0.0,0.0,0.0,0.0,0.0,0.0,0.0,0.0,0.0,0.0,0.0,0.0,0.0,0.0,0.0,0.0,0.0,0.0,0.0,0.0,0.0,0.0,0.0,0.0,0.0,0.0,0.0,0.0,0.0,0.0,0.0,0.0,0.0,0.0,0.0,0.0,0.0,0.0,0.0,0.0,0.0,0.0,0.0,0.0,0.0,0.0,0.0,0.0,0.0,0.0,0.0,0.0,0.0,0.0,0.0,0.0,0.0,0.0,0.0,0.0,0.0,0.0,0.0,0.0,0.0,0.0,0.0,0.0,0.0,0.0,0.0,0.0,0.0,0.0,0.0,0.0,0.0,0.0,0.0,0.0,0.0,0.0,0.0,0.0,0.0,0.0,0.0,0.0,0.0,0.0,0.0,0.0,0.0,0.0,0.0,0.0,0.0,0.0,0.0,0.0,0.0,0.0,0.0,0.0,0.0,0.0,0.0,0.0,0.0,0.0,0.0,0.0,0.0,0.0,0.0,-0.4705,0.0,0.0,0.0,0.0,0.0,0.0,0.0,0.0,0.0,0.0,0.0,0.0,0.0,0.0,0.0,0.0,0.0,0.0,0.0,0.0,0.0,0.0,0.0,0.0,0.0,0.0,0.0,0.0,0.0,0.0,0.0,0.0,0.0,0.0,0.0,0.0,0.0,0.0,0.0,0.0,0.0,0.0,0.0,0.0,0.0,0.0,0.0,0.0,0.0,0.0,0.0,0.0,0.0,0.0,0.0,0.0,0.0,0.0,0.0,0.0,0.0,0.0,0.0,0.0,0.0,0.0,0.0,0.0,0.0,0.0,0.0,0.0,0.0,0.0,0.0,0.0,0.0,0.0,0.0,0.0,0.0,0.0,0.0,0.0,0.0,0.0,0.0,0.0,0.0,0.0,0.0,0.0,0.0,0.0,0.0,0.0,0.0,0.0,0.0,0.0,0.0,0.0,0.0,0.0,0.0,0.0,0.0,0.0,0.0,0.0,-0.442,-0.504,-0.4061,-0.3966,-0.4882,0.0,0.0,0.0,0.0,0.0,0.0,0.0,0.0,0.0,0.0,0.0,0.0,0.0,0.0,0.0,0.0,0.0,0.0,0.0,0.0,0.0,0.0,0.0,0.0,0.0,0.0,0.0,0.0,0.0,0.0,0.0,0.0,0.0,0.0,0.0,0.0,0.0,0.0,0.0,0.0,0.0,0.0,0.0,0.0,0.0,0.0,0.0,0.0,0.0,0.0,0.0,0.0,0.0,0.0,0.0,0.0,0.0,0.0,0.0,0.0,0.0,0.0,0.0,0.0,0.0,0.0,0.0,0.0,0.0,0.0,0.0,0.0,0.0,0.0,0.0,0.0,0.0,0.0,0.0,0.0,0.0,0.0,0.0,0.0,0.0,0.0,0.0,0.0,0.0,0.0,0.0,0.0,0.0,0.0,0.0,0.0,0.0,0.0,0.0,0.0,0.0,0.0,0.0,0.0,0.0,0.0,0.0,0.0,0.0,0.0,0.0,0.0,-0.3855,-0.3702,-0.4628,0.0,0.0,0.0,0.0,0.0,0.0,0.0,0.0,0.0,0.0,0.0,0.0,0.0,0.0,0.0,0.0,0.0,0.0,0.0,0.0,0.0,0.0,0.0,0.0,0.0,0.0,0.0,0.0,0.0,0.0,0.0,0.0,0.0,0.0,0.0,0.0,0.0,0.0,0.0,0.0,0.0,0.0,0.0,0.0,0.0,0.0,0.0,0.0,0.0,0.0,0.0,0.0,0.0,0.0,0.0,0.0,0.0,0.0,0.0,0.0,0.0,0.0,0.0,0.0,0.0,0.0,0.0,0.0,0.0,0.0,0.0,0.0,0.0,0.0,0.0,0.0,0.0,0.0,0.0,0.0,0.0,0.0,0.0,0.0,0.0,0.0,0.0,0.0,0.0,0.0,0.0,0.0,0.0,0.0,0.0,0.0,0.0,0.0,0.0,0.0,0.0,0.0,0.0,0.0,0.0,0.0,0.0,0.0,0.0,0.0,-0.456,-0.4377,-0.3716,0.0,-0.3775,0.0,0.0,0.0,0.0,0.0,0.0,0.0,0.0,0.0,0.0,0.0,0.0,0.0,0.0,0.0,0.0,0.0,0.0,0.0,0.0,0.0,0.0,0.0,0.0,0.0,0.0,0.0,0.0,0.0,0.0,0.0,0.0,0.0,0.0,0.0,0.0,0.0,0.0,0.0,0.0,0.0,0.0,0.0,0.0,0.0,0.0,0.0,0.0,0.0,0.0,0.0,0.0,0.0,0.0,0.0,0.0,0.0,0.0,0.0,0.0,0.0,0.0,0.0,0.0,0.0,0.0,0.0,0.0,0.0,0.0,0.0,0.0,0.0,0.0,0.0,0.0,0.0,0.0,0.0,0.0,0.0,0.0,0.0,0.0,0.0,0.0,0.0,0.0,0.0,0.0,0.0,0.0,0.0,0.0,0.0,0.0,0.0,0.0,0.0,0.0,0.0,0.0,0.0,0.0,0.0,0.0,0.0,0.0,0.0,0.0,-0.4031,-0.4009,-0.354,-0.3293,0.0,0.0,0.0,0.0,0.0,0.0,0.0,0.0,0.0,0.0,0.0,0.0,0.0,0.0,0.0,0.0,0.0,0.0,0.0,0.0,0.0,0.0,0.0,0.0,0.0,0.0,0.0,0.0,0.0,0.0,0.0,0.0,0.0,0.0,0.0,0.0,0.0,0.0,0.0,0.0,0.0,0.0,0.0,0.0,0.0,0.0,0.0,0.0,0.0,0.0,0.0,0.0,0.0,0.0,0.0,0.0,0.0,0.0,0.0,0.0,0.0,0.0,0.0,0.0,0.0,0.0,0.0,0.0,0.0,0.0,0.0,0.0,0.0,0.0,0.0,0.0,0.0,0.0,0.0,0.0,0.0,0.0,0.0,0.0,0.0,0.0,0.0,0.0,0.0,0.0,0.0,0.0,0.0,0.0,0.0,0.0,0.0,0.0,0.0,0.0,0.0,0.0,0.0,0.0,0.0,0.0,0.0,0.0,0.0,0.0,-0.3738,-0.3352,-0.3142,-0.2761,-0.2611,-0.2671,0.0,0.0,0.0,0.0,0.0,0.0,0.0,0.0,0.0,0.0,0.0,0.0,0.0,0.0,0.0,0.0,0.0,0.0,0.0,0.0,0.0,0.0,0.0,0.0,0.0,0.0,0.0,0.0,0.0,0.0,0.0,0.0,0.0,0.0,0.0,0.0,0.0,0.0,0.0,0.0,0.0,0.0,0.0,0.0,0.0,0.0,0.0,0.0,0.0,0.0,0.0,0.0,0.0,0.0,0.0,0.0,0.0,0.0,0.0,0.0,0.0,0.0,0.0,0.0,0.0,0.0,0.0,0.0,0.0,0.0,0.0,0.0,0.0,0.0,0.0,0.0,0.0,0.0,0.0,0.0,0.0,0.0,0.0,0.0,0.0,0.0,0.0,0.0,0.0,0.0,0.0,0.0,0.0,0.0,0.0,0.0,0.0,0.0,0.0,0.0,0.0,0.0,0.0,0.0,0.0,0.0,0.0,0.0,0.0,-0.319,-0.2602,-0.1565,-0.1183,-0.1249,0.0,0.0,0.0,0.0,0.0,0.0,0.0,0.0,0.0,0.0,0.0,0.0,0.0,0.0,0.0,0.0,0.0,0.0,0.0,0.0,0.0,0.0,0.0,0.0,0.0,0.0,0.0,0.0,0.0,0.0,0.0,0.0,0.0,0.0,0.0,0.0,0.0,0.0,0.0,0.0,0.0,0.0,0.0,0.0,0.0,0.0,0.0,0.0,0.0,0.0,0.0,0.0,0.0,0.0,0.0,0.0,0.0,0.0,0.0,0.0,0.0,0.0,0.0,0.0,0.0,0.0,0.0,0.0,0.0,0.0,0.0,0.0,0.0,0.0,0.0,0.0,0.0,0.0,0.0,0.0,0.0,0.0,0.0,0.0,0.0,0.0,0.0,0.0,0.0,0.0,0.0,0.0,0.0,0.0,0.0,0.0,0.0,0.0,0.0,0.0,0.0,0.0,0.0,0.0,0.0,0.0,0.0,0.0,0.0,-0.4268,-0.3429,-0.2135,-0.0474,-0.0819,-0.1048,0.0,0.0,0.0,0.0,0.0,0.0,0.0,0.0,0.0,0.0,0.0,0.0,0.0,0.0,0.0,0.0,0.0,0.0,0.0,0.0,0.0,0.0,0.0,0.0,0.0,0.0,0.0,0.0,0.0,0.0,0.0,0.0,0.0,0.0,0.0,0.0,0.0,0.0,0.0,0.0,0.0,0.0,0.0,0.0,0.0,0.0,0.0,0.0,0.0,0.0,0.0,0.0,0.0,0.0,0.0,0.0,0.0,0.0,0.0,0.0,0.0,0.0,0.0,0.0,0.0,0.0,0.0,0.0,0.0,0.0,0.0,0.0,0.0,0.0,0.0,0.0,0.0,0.0,0.0,0.0,0.0,0.0,0.0,0.0,0.0,0.0,0.0,0.0,0.0,0.0,0.0,0.0,0.0,0.0,0.0,0.0,0.0,0.0,0.0,0.0,0.0,0.0,0.0,0.0,0.0,0.0,0.0,0.0,0.0,-0.418,0.0,-0.1175,0.0,-0.0292,-0.0613,0.0,0.0,0.0,0.0,0.0,0.0,0.0,0.0,0.0,0.0,0.0,0.0,0.0,0.0,0.0,0.0,0.0,0.0,0.0,0.0,0.0,0.0,0.0,0.0,0.0,0.0,0.0,0.0,0.0,0.0,0.0,0.0,0.0,0.0,0.0,0.0,0.0,0.0,0.0,0.0,0.0,0.0,0.0,0.0,0.0,0.0,0.0,0.0,0.0,0.0,0.0,0.0,0.0,0.0,0.0,0.0,0.0,0.0,0.0,0.0,0.0,0.0,0.0,0.0,0.0,0.0,0.0,0.0,0.0,0.0,0.0,0.0,0.0,0.0,0.0,0.0,0.0,0.0,0.0,0.0,0.0,0.0,0.0,0.0,0.0,0.0,0.0,0.0,0.0,0.0,0.0,0.0,0.0,0.0,0.0,0.0,0.0,0.0,0.0,0.0,0.0,0.0,0.0,0.0,0.0,0.0,0.0,0.0,-0.5524,-0.291,-0.0891,0.0304,0.0475,0.0579,0.0067,0.0,0.0,0.0,0.0,0.0,0.0,0.0,0.0,0.0,0.0,0.0,0.0,0.0,0.0,0.0,0.0,0.0,0.0,0.0,0.0,0.0,0.0,0.0,0.0,0.0,0.0,0.0,0.0,0.0,0.0,0.0,0.0,0.0,0.0,0.0,0.0,0.0,0.0,0.0,0.0,0.0,0.0,0.0,0.0,0.0,0.0,0.0,0.0,0.0,0.0,0.0,0.0,0.0,0.0,0.0,0.0,0.0,0.0,0.0,0.0,0.0,0.0,0.0,0.0,0.0,0.0,0.0,0.0,0.0,0.0,0.0,0.0,0.0,0.0,0.0,0.0,0.0,0.0,0.0,0.0,0.0,0.0,0.0,0.0,0.0,0.0,0.0,0.0,0.0,0.0,0.0,0.0,0.0,0.0,0.0,0.0,0.0,0.0,0.0,0.0,0.0,0.0,0.0,0.0,0.0,0.0,0.0,0.0,0.0,-0.306,-0.0581,0.1893,0.4148,0.2087,0.1435,0.0,0.0,0.0,0.0,0.0,0.0,0.0,0.0,0.0,0.0,0.0,0.0,0.0,0.0,0.0,0.0,0.0,0.0,0.0,0.0,0.0,0.0,0.0,0.0,0.0,0.0,0.0,0.0,0.0,0.0,0.0,0.0,0.0,0.0,0.0,0.0,0.0,0.0,0.0,0.0,0.0,0.0,0.0,0.0,0.0,0.0,0.0,0.0,0.0,0.0,0.0,0.0,0.0,0.0,0.0,0.0,0.0,0.0,0.0,0.0,0.0,0.0,0.0,0.0,0.0,0.0,0.0,0.0,0.0,0.0,0.0,0.0,0.0,0.0,0.0,0.0,0.0,0.0,0.0,0.0,0.0,0.0,0.0,0.0,0.0,0.0,0.0,0.0,0.0,0.0,0.0,0.0,0.0,0.0,0.0,0.0,0.0,0.0,0.0,0.0,0.0,0.0,0.0,0.0,0.0,0.0,0.0,0.0,0.0,0.0805,0.2768,0.4227,0.4925,0.2837,0.15,0.1006,0.0,0.0,0.0,0.0,0.0,0.0,0.0,0.0,0.0,0.0,0.0,0.0,0.0,0.0,0.0,0.0,0.0,0.0,0.0,0.0,0.0,0.0,0.0,0.0,0.0,0.0,0.0,0.0,0.0,0.0,0.0,0.0,0.0,0.0,0.0,0.0,0.0,0.0,0.0,0.0,0.0,0.0,0.0,0.0,0.0,0.0,0.0,0.0,0.0,0.0,0.0,0.0,0.0,0.0,0.0,0.0,0.0,0.0,0.0,0.0,0.0,0.0,0.0,0.0,0.0,0.0,0.0,0.0,0.0,0.0,0.0,0.0,0.0,0.0,0.0,0.0,0.0,0.0,0.0,0.0,0.0,0.0,0.0,0.0,0.0,0.0,0.0,0.0,0.0,0.0,0.0,0.0,0.0,0.0,0.0,0.0,0.0,0.0,0.0,0.0,0.0,0.0,0.0,0.0,0.0,0.0,0.0,0.0,0.7703,0.837,0.6912,0.3457,0.3249,0.0783,0.0,0.0,0.0,0.0,0.0,0.0,0.0,0.0,0.0,0.0,0.0,0.0,0.0,0.0,0.0,0.0,0.0,0.0,0.0,0.0,0.0,0.0,0.0,0.0,0.0,0.0,0.0,0.0,0.0,0.0,0.0,0.0,0.0,0.0,0.0,0.0,0.0,0.0,0.0,0.0,0.0,0.0,0.0,0.0,0.0,0.0,0.0,0.0,0.0,0.0,0.0,0.0,0.0,0.0,0.0,0.0,0.0,0.0,0.0,0.0,0.0,0.0,0.0,0.0,0.0,0.0,0.0,0.0,0.0,0.0,0.0,0.0,0.0,0.0,0.0,0.0,0.0,0.0,0.0,0.0,0.0,0.0,0.0,0.0,0.0,0.0,0.0,0.0,0.0,0.0,0.0,0.0,0.0,0.0,0.0,0.0,0.0,0.0,0.0,0.0,0.0,0.0,0.0,0.0,0.0,0.0,0.0,0.0,0.0,1.2597,0.9512,0.7254,0.6349,0.5605,0.2419,0.0,0.0,0.0,0.0,0.0,0.0,0.0,0.0,0.0,0.0,0.0,0.0,0.0,0.0,0.0,0.0,0.0,0.0,0.0,0.0,0.0,0.0,0.0,0.0,0.0,0.0,0.0,0.0,0.0,0.0,0.0,0.0,0.0,0.0,0.0,0.0,0.0,0.0,0.0,0.0,0.0,0.0,0.0,0.0,0.0,0.0,0.0,0.0,0.0,0.0,0.0,0.0,0.0,0.0,0.0,0.0,0.0,0.0,0.0,0.0,0.0,0.0,0.0,0.0,0.0,0.0,0.0,0.0,0.0,0.0,0.0,0.0,0.0,0.0,0.0,0.0,0.0,0.0,0.0,0.0,0.0,0.0,0.0,0.0,0.0,0.0,0.0,0.0,0.0,0.0,0.0,0.0,0.0,0.0,0.0,0.0,0.0,0.0,0.0,0.0,0.0,0.0,0.0,0.0,0.0,0.0,0.0,0.0,1.0278,1.6928,1.133,0.7118,0.4727,0.0705,-0.3229,0.0,0.0,0.0,0.0,0.0,0.0,0.0,0.0,0.0,0.0,0.0,0.0,0.0,0.0,0.0,0.0,0.0,0.0,0.0,0.0,0.0,0.0,0.0,0.0,0.0,0.0,0.0,0.0,0.0,0.0,0.0,0.0,0.0,0.0,0.0,0.0,0.0,0.0,0.0,0.0,0.0,0.0,0.0,0.0,0.0,0.0,0.0,0.0,0.0,0.0,0.0,0.0,0.0,0.0,0.0,0.0,0.0,0.0,0.0,0.0,0.0,0.0,0.0,0.0,0.0,0.0,0.0,0.0,0.0,0.0,0.0,0.0,0.0,0.0,0.0,0.0,0.0,0.0,0.0,0.0,0.0,0.0,0.0,0.0,0.0,0.0,0.0,0.0,0.0,0.0,0.0,0.0,0.0,0.0,0.0,0.0,0.0,0.0,0.0,0.0,0.0,0.0,0.0,0.0,0.0,0.0,0.0,0.0,0.945,1.7832,1.1005,0.4712,-0.0482,-0.7499,-1.1844,0.0,0.0,0.0,0.0,0.0,0.0,0.0,0.0,0.0,0.0,0.0,0.0,0.0,0.0,0.0,0.0,0.0,0.0,0.0,0.0,0.0,0.0,0.0,0.0,0.0,0.0,0.0,0.0,0.0,0.0,0.0,0.0,0.0,0.0,0.0,0.0,0.0,0.0,0.0,0.0,0.0,0.0,0.0,0.0,0.0,0.0,0.0,0.0,0.0,0.0,0.0,0.0,0.0,0.0,0.0,0.0,0.0,0.0,0.0,0.0,0.0,0.0,0.0,0.0,0.0,0.0,0.0,0.0,0.0,0.0,0.0,0.0,0.0,0.0,0.0,0.0,0.0,0.0,0.0,0.0,0.0,0.0,0.0,0.0,0.0,0.0,0.0,0.0,0.0,0.0,0.0,0.0,0.0,0.0,0.0,0.0,0.0,0.0,0.0,0.0,0.0,0.0,0.0,0.0,0.0,0.0,0.0,0.0,0.0916,0.4092,-0.3937,-0.8667,-0.9421,-0.8873,-1.1119,0.0,0.0,0.0,0.0,0.0,0.0,0.0,0.0,0.0,0.0,0.0,0.0,0.0,0.0,0.0,0.0,0.0,0.0,0.0,0.0,0.0,0.0,0.0,0.0,0.0,0.0,0.0,0.0,0.0,0.0,0.0,0.0,0.0,0.0,0.0,0.0,0.0,0.0,0.0,0.0,0.0,0.0,0.0,0.0,0.0,0.0,0.0,0.0,-1.362,0.0,0.0,0.0,0.0,0.0,0.0,0.0,0.0,0.0,0.0,0.0,0.0,0.0,0.0,0.0,0.0,0.0,0.0,0.0,0.0,0.0,0.0,0.0,0.0,0.0,0.0,0.0,0.0,0.0,0.0,0.0,0.0,0.0,0.0,0.0,0.0,0.0,0.0,0.0,0.0,0.0,0.0,0.0,0.0,0.0,0.0,0.0,0.0,0.0,0.0,0.0,0.0,0.0,0.0,0.0,0.0,0.0,0.0,0.0,-0.1916,0.1083,-0.7586,-1.1985,-1.1277,-1.2882,-1.5125,0.0,0.0,0.0,0.0,0.0,0.0,0.0,0.0,0.0,0.0,0.0,0.0,0.0,0.0,0.0,0.0,0.0,0.0,0.0,0.0,0.0,0.0,0.0,0.0,0.0,0.0,0.0,0.0,0.0,0.0,0.0,0.0,0.0,0.0,0.0,0.0,0.0,0.0,0.0,0.0,0.0,0.0,0.0,0.0,0.0,0.0,0.0,0.0,0.0,0.0,0.0,0.0,0.0,0.0,0.0,0.0,0.0,0.0,0.0,0.0,0.0,0.0,0.0,0.0,0.0,0.0,0.0,0.0,0.0,0.0,0.0,0.0,0.0,0.0,0.0,0.0,0.0,0.0,0.0,0.0,0.0,0.0,0.0,0.0,0.0,0.0,0.0,0.0,0.0,0.0,0.0,0.0,0.0,0.0,0.0,0.0,0.0,0.0,0.0,0.0,0.0,0.0,0.0,0.0,0.0,0.0,0.0,-0.6023,-0.4366,-0.0644,-0.8546,-1.2605,-1.1911,-1.7469,-1.9799,-1.8223,0.0,0.0,0.0,0.0,0.0,0.0,0.0,0.0,0.0,0.0,0.0,0.0,0.0,0.0,0.0,0.0,0.0,0.0,0.0,0.0,0.0,0.0,0.0,0.0,0.0,0.0,0.0,0.0,0.0,0.0,0.0,0.0,0.0,0.0,0.0,0.0,0.0,0.0,-1.4371,-1.5648,0.0,0.0,0.0,0.0,0.0,0.0,0.0,0.0,-1.4615,0.0,0.0,0.0,0.0,0.0,0.0,0.0,0.0,0.0,0.0,0.0,0.0,0.0,0.0,0.0,0.0,0.0,0.0,0.0,0.0,0.0,0.0,0.0,0.0,0.0,0.0,0.0,0.0,0.0,0.0,0.0,0.0,0.0,0.0,0.0,0.0,0.0,0.0,0.0,0.0,0.0,0.0,0.0,0.0,0.0,0.0,0.0,0.0,0.0,0.0,0.0,0.0,0.0,0.0,0.0,0.0,-1.1192,-1.3277,-1.4264,-1.412,-1.7873,-1.9772,-1.9473,-2.0094,-1.9198,-1.6607,0.0,0.0,0.0,0.0,0.0,0.0,0.0,0.0,0.0,0.0,0.0,0.0,0.0,0.0,0.0,0.0,0.0,0.0,0.0,0.0,0.0,0.0,0.0,0.0,0.0,0.0,0.0,0.0,0.0,0.0,0.0,0.0,0.0,0.0,0.0,0.0,0.0,0.0,0.0,-1.6465,-1.7309,0.0,0.0,0.0,0.0,0.0,0.0,0.0,0.0,-1.4831,0.0,0.0,0.0,0.0,0.0,0.0,0.0,0.0,0.0,0.0,0.0,0.0,0.0,0.0,0.0,0.0,0.0,0.0,0.0,0.0,0.0,0.0,0.0,0.0,0.0,0.0,0.0,0.0,0.0,0.0,0.0,0.0,0.0,0.0,0.0,0.0,0.0,0.0,0.0,0.0,0.0,0.0,0.0,0.0,0.0,0.0,0.0,0.0,0.0,0.0,0.0,0.0,0.0,0.0,0.0,-1.3642,-1.4572,-1.5673,-1.7077,-1.8721,-1.9659,-1.9811,-1.8833,-1.7332,0.0,0.0,0.0,0.0,0.0,0.0,0.0,0.0,0.0,0.0,0.0,0.0,0.0,0.0,0.0,0.0,0.0,0.0,0.0,0.0,0.0,0.0,0.0,0.0,0.0,0.0,0.0,0.0,0.0,0.0,0.0,0.0,0.0,0.0,0.0,0.0,0.0,0.0,0.0,0.0,-1.7114,-1.7698,-1.7296,0.0,0.0,0.0,0.0,0.0,0.0,-1.6123,-1.5471,0.0,0.0,0.0,0.0,0.0,0.0,0.0,0.0,0.0,0.0,0.0,0.0,0.0,0.0,0.0,0.0,0.0,0.0,0.0,0.0,0.0,0.0,0.0,0.0,0.0,0.0,0.0,0.0,0.0,0.0,0.0,0.0,0.0,0.0,0.0,0.0,0.0,0.0,0.0,0.0,0.0,0.0,0.0,0.0,0.0,0.0,0.0,0.0,0.0,0.0,0.0,0.0,0.0,0.0,0.0,-1.4171,-1.443,-1.5348,-1.6963,-1.7691,-1.8235,-1.8598,-1.7242,-1.5945,0.0,0.0,0.0,0.0,0.0,0.0,0.0,0.0,0.0,0.0,0.0,0.0,0.0,0.0,0.0,0.0,0.0,0.0,0.0,0.0,0.0,0.0,0.0,0.0,0.0,0.0,0.0,0.0,0.0,0.0,0.0,0.0,0.0,0.0,0.0,0.0,0.0,0.0,0.0,0.0,0.0,-1.8274,-1.8525,-1.9218,0.0,0.0,0.0,0.0,-1.8227,-1.7492,0.0,0.0,0.0,0.0,0.0,0.0,0.0,0.0,0.0,0.0,0.0,0.0,0.0,0.0,0.0,0.0,0.0,0.0,0.0,0.0,0.0,0.0,0.0,0.0,0.0,0.0,0.0,0.0,0.0,0.0,0.0,0.0,0.0,0.0,0.0,0.0,0.0,0.0,0.0,0.0,0.0,0.0,0.0,0.0,0.0,0.0,0.0,0.0,0.0,0.0,0.0,0.0,0.0,0.0,0.0,0.0,-1.2784,-1.5536,-1.7262,-1.7895,-1.8745,-1.9169,-1.9109,-1.7824,-1.6454,0.0,0.0,0.0,0.0,0.0,0.0,0.0,0.0,0.0,0.0,0.0,0.0,0.0,0.0,0.0,0.0,0.0,0.0,0.0,0.0,0.0,0.0,0.0,0.0,0.0,0.0,0.0,0.0,0.0,0.0,0.0,0.0,0.0,0.0,0.0,0.0,0.0,0.0,0.0,0.0,0.0,-1.9534,-1.9778,-1.9696,-1.9551,0.0,0.0,0.0,-1.9562,-1.9606,0.0,0.0,0.0,0.0,0.0,0.0,0.0,0.0,0.0,0.0,0.0,0.0,0.0,0.0,0.0,0.0,0.0,0.0,0.0,0.0,0.0,0.0,0.0,0.0,0.0,0.0,0.0,0.0,0.0,0.0,0.0,0.0,0.0,0.0,0.0,0.0,0.0,0.0,0.0,0.0,0.0,0.0,0.0,0.0,0.0,0.0,0.0,0.0,0.0,0.0,0.0,0.0,0.0,0.0,0.0,-1.3657,-1.424,-1.5455,-1.6816,-1.8242,-1.8576,-1.9119,-1.9754,-1.8376,-1.7196,0.0,0.0,0.0,0.0,0.0,0.0,0.0,0.0,0.0,0.0,0.0,0.0,0.0,0.0,0.0,0.0,0.0,0.0,0.0,0.0,0.0,0.0,0.0,0.0,0.0,0.0,0.0,0.0,0.0,0.0,0.0,0.0,0.0,0.0,0.0,0.0,0.0,0.0,0.0,0.0,0.0,0.0,-1.997,-1.9935,0.0,0.0,0.0,-2.0328,-2.0005,0.0,0.0,0.0,0.0,0.0,0.0,0.0,0.0,0.0,0.0,0.0,0.0,0.0,0.0,0.0,0.0,0.0,0.0,0.0,0.0,0.0,0.0,0.0,0.0,0.0,0.0,0.0,0.0,0.0,0.0,0.0,0.0,0.0,0.0,0.0,0.0,0.0,0.0,0.0,0.0,0.0,0.0,0.0,0.0,0.0,0.0,0.0,0.0,0.0,0.0,0.0,0.0,0.0,0.0,0.0,0.0,0.0,-1.5196,-1.5488,-1.6755,-1.8941,-1.8959,-1.9416,-2.0444,-1.9219,0.0,0.0,0.0,0.0,0.0,0.0,0.0,0.0,0.0,0.0,0.0,0.0,0.0,0.0,0.0,0.0,0.0,0.0,0.0,0.0,0.0,0.0,0.0,0.0,0.0,0.0,0.0,-1.0522,0.0,0.0,0.0,0.0,0.0,0.0,0.0,0.0,0.0,0.0,0.0,0.0,0.0,0.0,-2.0015,-2.0181,-2.0185,-2.0115,0.0,0.0,-2.0624,-2.0246,-2.0308,-2.0042,0.0,0.0,0.0,0.0,0.0,0.0,0.0,0.0,0.0,0.0,0.0,0.0,0.0,0.0,0.0,0.0,0.0,0.0,0.0,0.0,0.0,0.0,0.0,0.0,0.0,0.0,0.0,0.0,0.0,0.0,0.0,0.0,0.0,0.0,0.0,0.0,0.0,0.0,0.0,0.0,0.0,0.0,0.0,0.0,0.0,0.0,0.0,0.0,0.0,0.0,0.0,0.0,0.0,0.0,0.0,-1.4201,-1.6053,-1.8157,-2.0434,-2.0489,-2.0753,-2.1355,-2.043,-1.9298,0.0,0.0,0.0,0.0,0.0,0.0,0.0,0.0,0.0,0.0,0.0,0.0,0.0,0.0,0.0,0.0,0.0,0.0,0.0,0.0,0.0,0.0,0.0,0.0,0.0,0.0,0.0,0.0,0.0,0.0,0.0,0.0,0.0,0.0,0.0,0.0,0.0,0.0,0.0,0.0,0.0,-2.0494,-2.066,-2.0494,-2.0357,0.0,0.0,-2.045,-2.0392,-2.1027,-2.1167,-1.9909,0.0,0.0,0.0,0.0,0.0,0.0,0.0,0.0,0.0,0.0,0.0,0.0,0.0,0.0,0.0,0.0,0.0,0.0,0.0,0.0,0.0,0.0,0.0,0.0,0.0,0.0,0.0,0.0,0.0,0.0,0.0,0.0,0.0,0.0,0.0,0.0,0.0,0.0,0.0,0.0,0.0,0.0,0.0,0.0,0.0,0.0,0.0,0.0,0.0,0.0,0.0,0.0,0.0,-1.3594,-1.4793,-1.6532,-1.8477,-2.0578,-2.0914,-2.1355,-2.1981,-2.0646,-1.9467,0.0,0.0,0.0,0.0,0.0,0.0,0.0,0.0,0.0,0.0,0.0,0.0,0.0,0.0,0.0,0.0,0.0,0.0,0.0,0.0,0.0,0.0,0.0,0.0,0.0,0.0,0.0,0.0,-1.1395,-1.1659,-1.1766,0.0,0.0,0.0,0.0,0.0,0.0,0.0,0.0,0.0,0.0,-2.1023,-2.0794,-2.1072,0.0,0.0,-2.0855,-2.1063,-2.0516,-2.0914,-2.0953,-1.9909,-2.0098,0.0,0.0,0.0,0.0,0.0,0.0,0.0,0.0,0.0,0.0,0.0,0.0,0.0,0.0,0.0,0.0,0.0,0.0,0.0,0.0,0.0,0.0,0.0,0.0,0.0,0.0,0.0,0.0,0.0,0.0,0.0,0.0,0.0,0.0,0.0,0.0,0.0,0.0,0.0,0.0,0.0,0.0,0.0,0.0,0.0,0.0,0.0,0.0,0.0,0.0,0.0,0.0,-1.4173,-1.5903,-1.709,-1.8854,-2.1226,-2.1371,-2.1689,-2.2133,-2.0939,-1.9843,0.0,0.0,0.0,0.0,0.0,0.0,0.0,0.0,0.0,0.0,0.0,0.0,0.0,0.0,0.0,0.0,0.0,0.0,0.0,0.0,0.0,0.0,0.0,0.0,0.0,0.0,0.0,0.0,-1.1726,-1.1945,-1.2259,0.0,0.0,0.0,0.0,0.0,0.0,0.0,0.0,0.0,0.0,-2.2018,-2.1342,-2.1903,-2.1945,-2.0685,-2.1402,-2.1819,-2.0952,-2.1167,-2.1178,-2.0278,0.0,0.0,0.0,0.0,0.0,0.0,0.0,0.0,0.0,0.0,0.0,0.0,0.0,0.0,0.0,0.0,0.0,0.0,0.0,0.0,0.0,0.0,0.0,0.0,0.0,0.0,0.0,0.0,0.0,0.0,0.0,0.0,0.0,0.0,0.0,0.0,0.0,0.0,0.0,0.0,0.0,0.0,0.0,0.0,0.0,0.0,0.0,0.0,0.0,0.0,0.0,0.0,0.0,0.0,-1.746,-1.7798,-1.9408,-2.2401,-2.197,-2.1776,-2.2102,-2.1508,-2.0498,-1.895,0.0,0.0,0.0,0.0,0.0,0.0,0.0,0.0,0.0,0.0,0.0,0.0,0.0,0.0,0.0,0.0,0.0,0.0,0.0,0.0,0.0,0.0,0.0,0.0,0.0,0.0,-1.1895,-1.1836,-1.1995,0.0,0.0,0.0,0.0,0.0,0.0,0.0,0.0,0.0,0.0,-2.3579,-2.3587,-2.2443,-2.3092,-2.2998,-2.1173,-2.1991,-2.2586,-2.1853,-2.2034,-2.204,0.0,0.0,0.0,0.0,0.0,0.0,0.0,0.0,0.0,0.0,0.0,0.0,0.0,0.0,0.0,0.0,0.0,0.0,0.0,0.0,0.0,0.0,0.0,0.0,0.0,0.0,0.0,0.0,-1.8365,0.0,0.0,0.0,0.0,0.0,0.0,0.0,0.0,0.0,0.0,0.0,-2.1924,-2.145,0.0,0.0,0.0,0.0,0.0,0.0,0.0,0.0,0.0,0.0,0.0,0.0,-1.5525,-1.7845,-1.8582,-1.9998,-2.2072,-2.1826,-2.198,-2.2449,-2.0887,-1.9626,-1.8673,0.0,0.0,0.0,0.0,0.0,0.0,0.0,0.0,0.0,0.0,0.0,0.0,0.0,0.0,0.0,0.0,0.0,0.0,0.0,0.0,0.0,0.0,0.0,0.0,0.0,-1.355,0.0,0.0,0.0,0.0,0.0,0.0,0.0,0.0,0.0,0.0,0.0,-2.3748,-2.3958,-2.3759,-2.3383,-2.2891,-2.2739,-2.2371,0.0,0.0,0.0,0.0,0.0,0.0,0.0,0.0,0.0,0.0,0.0,0.0,0.0,0.0,-2.602,-2.3206,-2.209,-2.1541,-2.1474,0.0,0.0,0.0,0.0,0.0,0.0,0.0,0.0,0.0,0.0,0.0,0.0,0.0,0.0,0.0,0.0,-2.0009,0.0,0.0,0.0,0.0,0.0,0.0,0.0,0.0,-2.528,-2.5571,-2.4674,-2.408,-2.2874,0.0,-2.0025,-1.7803,0.0,0.0,0.0,0.0,0.0,0.0,0.0,0.0,-1.6338,-1.837,-1.9158,-2.0391,-2.2169,-2.2131,-2.216,-2.2311,-2.0399,-1.9118,-1.858,-1.6791,-1.548,0.0,0.0,0.0,0.0,0.0,0.0,0.0,0.0,0.0,0.0,0.0,0.0,0.0,0.0,0.0,0.0,0.0,0.0,0.0,0.0,0.0,0.0,0.0,-1.4803,0.0,0.0,0.0,0.0,0.0,0.0,0.0,0.0,0.0,-2.2297,-2.3782,-2.4944,-2.5473,-2.4741,-2.4017,-2.3597,0.0,0.0,0.0,0.0,0.0,0.0,0.0,-2.3288,-2.3897,-2.4,-2.42,-2.4678,-2.6137,-2.7207,-2.6927,0.0,0.0,-2.4368,-2.3391,-2.2826,-2.2445,-2.2491,-2.2434,-2.1908,-2.1827,-2.1843,0.0,0.0,0.0,0.0,0.0,0.0,0.0,0.0,-2.1638,-2.1846,0.0,-2.2205,0.0,0.0,0.0,0.0,0.0,0.0,0.0,0.0,-2.8436,-2.8583,-2.5955,-2.509,-2.4157,-2.3182,-2.2707,-2.1595,-1.9806,-1.5648,0.0,0.0,0.0,0.0,0.0,0.0,-1.7114,-1.9124,-1.949,-2.0668,-2.2774,-2.2702,-2.2337,-2.1635,-2.0246,-1.9269,-1.8719,-1.7617,-1.6319,-1.494,-1.3719,0.0,0.0,0.0,0.0,0.0,0.0,0.0,0.0,0.0,0.0,0.0,0.0,0.0,0.0,0.0,0.0,0.0,0.0,0.0,0.0,-1.4407,0.0,0.0,0.0,0.0,0.0,0.0,0.0,0.0,0.0,0.0,-2.4476,-2.4599,-2.5308,-2.7291,0.0,0.0,0.0,0.0,-2.4239,-2.3094,-2.4253,-2.5206,-2.5147,-2.5461,-2.5631,-2.5456,0.0,0.0,-2.5666,-2.6055,-2.6228,-2.5536,-2.5404,-2.5543,-2.6873,-2.5524,-2.4449,-2.4396,-2.3944,-2.3623,-2.3484,-2.3142,-2.3099,-2.6193,0.0,0.0,0.0,0.0,-2.4933,-2.4519,-2.4213,-2.4361,-2.4196,-2.3624,-2.4049,0.0,0.0,0.0,0.0,0.0,0.0,-2.7176,-2.74,-2.8906,-2.8881,-2.7487,-2.681,-2.5685,-2.415,-2.305,-2.2003,-2.0992,-1.9246,-1.8171,-1.7718,0.0,0.0,0.0,0.0,-1.8851,-2.0379,-2.0558,-2.1069,-2.2149,-2.1873,-2.1384,-2.0807,-2.0977,-2.045,-1.9243,-1.8728,-1.7835,-1.6499,-1.5047,0.0,0.0,0.0,0.0,0.0,0.0,0.0,0.0,0.0,0.0,0.0,0.0,0.0,0.0,0.0,0.0,0.0,0.0,0.0,-1.673,-1.638,-1.6612,0.0,0.0,0.0,0.0,0.0,0.0,0.0,0.0,0.0,-2.7559,-2.6986,-2.7002,0.0,0.0,-2.5822,-2.6421,-2.5018,-2.3902,-2.3951,0.0,0.0,0.0,-2.5589,-2.6031,-2.6206,-2.713,-2.79,-2.8141,-2.7961,-2.767,-2.7259,-2.6387,-2.5638,-2.5383,-2.4702,-2.397,-2.3806,-2.3643,-2.3299,-2.2825,-2.2867,-2.3052,-2.8313,-2.7049,-2.6989,-2.7139,-2.7261,-2.6497,-2.5966,-2.5662,-2.5597,-2.547,-2.5373,-2.5836,-2.5949,-2.558,-2.5365,0.0,0.0,0.0,-2.8225,-2.8637,-2.921,-2.8944,-2.7903,-2.7176,-2.6193,-2.4925,-2.3794,-2.3104,-2.2702,-2.2317,-2.1812,-2.1256,0.0,0.0,-2.0304,-2.0037,-2.044,-2.1341,-2.1143,-2.1495,-2.2391,-2.193,-2.1399,-2.0877,-2.1201,-2.0834,-1.962,-1.9608,-1.8941,-1.7638,-1.677,-1.5112,0.0,0.0,0.0,0.0,0.0,0.0,0.0,0.0,0.0,0.0,0.0,-1.163,0.0,0.0,0.0,0.0,-1.3735,-1.5936,-1.8838,-1.8686,0.0,0.0,0.0,0.0,0.0,0.0,0.0,-2.4194,-2.5308,-2.6673,-2.8389,-2.818,-2.8225,-2.9391,-2.7473,-2.6296,-2.7143,0.0,-2.4305,-2.4981,-2.4918,-2.5013,-2.5495,-2.5843,-2.6155,-2.636,-2.7261,-2.7905,-2.8106,-2.7871,-2.7442,-2.6881,-2.5914,-2.4876,-2.4283,-2.3416,-2.2933,-2.3376,-2.3434,-2.3198,-2.2714,-2.2838,-2.3184,-3.0088,-3.0206,-2.9183,-2.8536,-2.8009,-2.6841,-2.621,-2.5945,-2.5806,-2.6084,-2.6701,-2.7509,-2.7734,-2.736,-2.7072,0.0,0.0,-2.9144,-2.9165,-2.9171,-2.9581,-2.8987,-2.7544,-2.6576,-2.5914,-2.5488,-2.4979,-2.4648,-2.4536,-2.4672,-2.4637,-2.4303,-2.2464,-2.1547,-2.156,-2.172,-2.1832,-2.2005,-2.1539,-2.1892,-2.3109,-2.2639,-2.2089,-2.1462,-2.1288,-2.0759,-1.9956,-2.0207,-1.9744,-1.8583,-1.8714,-1.7503,-1.467,0.0,0.0,0.0,0.0,0.0,0.0,0.0,0.0,0.0,0.0,0.0,0.0,0.0,0.0,0.0,-1.6043,0.0,-1.962,-2.1019,0.0,0.0,0.0,-2.2961,-2.4134,-2.4791,-2.5257,-2.5485,0.0,0.0,0.0,0.0,-2.916,-2.9559,-2.803,-2.6949,-2.7229,-2.6018,-2.5292,-2.596,-2.559,-2.5445,-2.6083,-2.6119,-2.6068,-2.6236,-2.6663,-2.6999,-2.6705,-2.6369,-2.5948,-2.5392,-2.4315,-2.3478,-2.3171,-2.2015,-2.1545,-2.2865,-2.3073,-2.3005,-2.2679,-2.2881,-2.3174,-3.1895,-3.1937,-3.1644,-3.0603,-2.9012,-2.8274,-2.7435,-2.6693,-2.678,-2.6705,-2.6513,-2.8058,-2.8846,-2.9071,-2.9346,-2.9196,-2.8845,-2.9503,-2.9696,-2.9588,-2.9854,-2.9306,-2.8046,-2.7126,-2.6192,-2.5304,-2.49,-2.4648,-2.443,-2.4797,-2.4938,-2.4661,-2.442,-2.391,-2.3013,-2.2574,-2.2492,-2.2694,-2.2451,-2.2448,-2.2549,-2.2831,-2.2421,-2.1294,-2.1644,-2.1251,-1.9956,-2.0468,-2.0556,-2.0089,-1.9855,-1.9211,-1.8013,-1.5425,0.0,0.0,0.0,0.0,0.0,0.0,0.0,0.0,0.0,-1.6752,-1.4417,0.0,-1.8084,0.0,-1.8681,-2.0193,-2.167,-2.176,0.0,0.0,-2.4638,-2.5105,-2.7021,-2.7391,-2.7469,-2.7489,-2.9049,-2.9959,-2.9638,-2.9811,-2.9865,-2.9628,-2.8511,-2.7939,-2.8782,-2.7279,-2.6105,-2.6245,-2.5688,-2.5301,-2.5467,-2.566,-2.5993,-2.6526,-2.675,-2.6807,-2.661,-2.5939,-2.5273,-2.4721,-2.3098,-2.1878,-2.1616,-2.0759,-2.0348,-2.0753,-2.1179,-2.1524,-2.1453,-2.1529,-2.1893,-3.4508,-3.4716,-3.4429,-3.3107,-3.1375,-3.0024,-2.8914,-2.8014,-2.8099,-2.7719,-2.7297,-2.8533,-2.9343,-2.9756,-3.0259,-3.0124,-2.9584,-2.9966,-2.9934,-2.9546,-2.9498,-2.9019,-2.7943,-2.7334,-2.6729,-2.5964,-2.5724,-2.5507,-2.5498,-2.587,-2.5709,-2.513,-2.5445,-2.5181,-2.4208,-2.3831,-2.372,-2.3956,-2.3676,-2.3234,-2.2692,-2.3248,-2.3034,-2.1895,-2.1984,-2.1668,-2.0663,-2.1062,-2.1355,-2.1423,-2.1385,-2.1277,-2.0981,-1.8576,-1.6279,0.0,0.0,0.0,0.0,0.0,0.0,0.0,0.0,0.0,0.0,0.0,-2.0219,0.0,-2.1299,0.0,-2.3309,-2.3519,-2.4269,-2.5964,-2.6253,-2.6955,-2.8435,-2.8657,-2.9047,-2.9829,-3.0074,-3.0199,-3.0059,-2.9876,-2.9538,-2.8914,-2.8456,-2.8493,-2.919,-2.8196,-2.7214,-2.6851,-2.6125,-2.5488,-2.5016,-2.5104,-2.5382,-2.574,-2.5823,-2.5766,-2.5652,-2.5067,-2.4403,-2.3686,-2.2398,-2.1131,-2.0686,-2.0196,-1.9873,-1.9814,-2.011,-2.0527,-2.0887,-2.1167,-2.1709,-3.7445,-3.7887,-3.7109,-3.5848,-3.4403,-3.209,-3.0543,-2.9514,-2.9268,-2.8892,-2.8432,-2.8907,-2.9439,-2.9959,-3.0489,-3.0734,-3.066,-3.0482,-3.0109,-2.9425,-2.9253,-2.8717,-2.7895,-2.755,-2.7334,-2.7119,-2.6691,-2.667,-2.6871,-2.7023,-2.6611,-2.5722,-2.6067,-2.5973,-2.5397,-2.5135,-2.506,-2.5117,-2.4699,-2.4096,-2.3232,-2.3741,-2.3628,-2.2719,-2.2463,-2.201,-2.1527,-2.1801,-2.214,-2.2562,-2.2979,-2.3375,-2.3693,-2.1783,-2.0026,0.0,-1.7082,0.0,0.0,0.0,0.0,0.0,0.0,0.0,0.0,-2.1502,-2.2062,-2.264,-2.3618,-2.4331,-2.4561,-2.5371,-2.6074,-2.6453,-2.7275,-2.8093,-2.8825,-2.9138,-2.9878,-3.1523,-3.0604,-2.9843,-2.9656,-2.9361,-2.8911,-2.8243,-2.8346,-2.8669,-2.9122,-2.8697,-2.7991,-2.7405,-2.6507,-2.5391,-2.4727,-2.462,-2.4677,-2.462,-2.4647,-2.4478,-2.4505,-2.4073,-2.3456,-2.2614,-2.1864,-2.1056,-2.0182,-2.0006,-1.9796,-1.9479,-1.9618,-1.9995,-2.0542,-2.1069,-2.1957,-4.0058,-4.0286,-3.9109,-3.8178,-3.7331,-3.5596,-3.2848,-2.9546,-2.985,-2.9503,-2.8656,-2.8231,-2.8803,-3.0049,-3.0841,-3.1033,-3.0821,-3.0818,-3.0566,-3.003,-3.003,-2.9665,-2.916,-2.8509,-2.7951,-2.7544,-2.7047,-2.6758,-2.6611,-2.6916,-2.6931,-2.6668,-2.6892,-2.6918,0.0,0.0,0.0,0.0,-2.4776,-2.459,-2.4266,-2.4171,-2.3666,-2.2604,-2.305,0.0,-2.1008,-2.2138,-2.2885,-2.301,-2.3718,0.0,0.0,0.0,0.0,0.0,0.0,0.0,0.0,0.0,0.0,0.0,-2.1883,-2.2516,-2.2238,-2.3041,-2.3798,-2.4334,-2.4961,-2.5152,-2.4632,-2.5184,-2.5803,-2.6637,-2.6406,-2.7033,-2.9082,-2.9023,-2.9228,-3.0038,-3.0498,-3.0223,-2.9073,-2.9388,-2.9361,-2.8333,-2.8616,-2.8914,-2.8853,-2.8558,-2.798,-2.7166,-2.5765,-2.4516,-2.4242,-2.4125,-2.4157,-2.4247,-2.4247,-2.4131,-2.3956,-2.3543,-2.298,-2.2298,-2.1378,-2.067,-2.0152,-1.987,-1.9736,-1.9575,-1.9596,-1.9593,-1.98,-2.0194,-2.0887,-4.2387,0.0,-4.1234,-4.0235,0.0,-3.7613,-3.468,-3.1105,-3.0734,-2.9715,-2.8228,-2.8206,-2.8856,-2.9785,-3.0584,-3.0796,-3.0584,-3.1078,-3.0719,-2.9874,-3.0491,-3.0374,-2.9546,-2.9381,-2.9127,-2.8786,-2.8364,-2.8078,-2.7988,-2.8397,-2.8195,-2.7448,-2.802,-2.8124,-2.773,-2.7112,-2.6284,-2.5206,-2.5206,-2.5083,-2.4871,-2.4624,-2.4255,-2.3688,0.0,0.0,0.0,0.0,0.0,0.0,0.0,0.0,0.0,0.0,0.0,-2.4162,-2.3172,-2.1871,-2.0369,-2.1475,-2.2364,-2.2743,-2.3636,-2.4096,-2.371,-2.4664,-2.5319,-2.5383,-2.5752,-2.5906,-2.5721,-2.6043,-2.6408,-2.6871,-2.7259,-2.7823,-2.8445,-2.8692,-2.8969,-2.9273,-2.9443,-2.924,-2.8957,-2.8617,-2.8356,-2.7786,-2.7985,-2.8283,-2.8346,-2.8636,-2.8463,-2.7188,-2.5335,-2.4067,-2.3891,-2.3772,-2.3713,-2.378,-2.3721,-2.3543,-2.3365,-2.2944,-2.2396,-2.1729,-2.1042,-2.0529,-2.0191,-2.0138,-2.0098,-1.9909,-1.9934,-1.9932,-1.9818,-2.0132,-2.0914,-4.4462,-4.4847,-4.3131,-4.1869,-4.0893,-3.8931,-3.5987,-3.2555,0.0,0.0,0.0,-2.8293,-2.8829,-2.9304,-3.0145,-3.0466,-3.042,-3.111,-3.079,-2.9691,-3.0859,-3.0788,-2.9796,-3.0214,-3.0279,-3.0074,-2.973,-2.9555,-2.9579,-3.0001,-2.9682,-2.8807,-2.9518,-2.9503,-2.8692,-2.8033,-2.7193,-2.6251,-2.5914,-2.5664,-2.556,-2.5234,-2.5014,-2.4875,-2.3633,-2.3337,-2.4148,-2.3513,-2.3946,-2.5691,-2.5901,-2.6534,-2.7793,-2.771,-2.7249,-2.659,-2.685,-2.6287,-2.4637,-2.5586,-2.5736,-2.4515,-2.4641,-2.4895,-2.5121,-2.5772,-2.6155,-2.6005,-2.6142,-2.6354,-2.6562,-2.6776,-2.6869,-2.6948,-2.7741,-2.813,-2.7782,-2.815,-2.8589,-2.8776,-2.8418,-2.8213,-2.8866,-2.8038,-2.7216,-2.7163,-2.7461,-2.7633,-2.7982,-2.8546,-2.8469,-2.71,-2.5335,-2.3982,-2.3628,-2.339,-2.3271,-2.3271,-2.3065,-2.2969,-2.2787,-2.2396,-2.1839,-2.125,-2.0828,-2.0442,-2.014,-2.0291,-2.0459,-2.0245,-2.0396,-2.0437,-2.0056,-2.036,-2.0983,-4.5757,-4.4858,-4.4163,-4.2995,-4.1445,-3.9474,-3.5938,-3.1396,-2.904,-2.7862,-2.7631,-2.7694,-2.8093,-2.8835,-2.9779,-3.0422,-3.0734,-3.0738,-3.0557,0.0,-3.1043,-3.1157,-3.08,-3.1021,-3.1049,-3.0769,-3.0217,-3.0145,-3.0337,-3.0445,-3.0606,-3.0923,-3.1297,-3.1161,-3.0563,-2.9568,-2.8853,-2.8492,-2.7031,-2.6389,-2.6519,-2.6294,-2.5716,-2.4796,-2.4998,-2.452,-2.3178,-2.4096,-2.4723,-2.4903,-2.5533,-2.6341,-2.7121,-2.6729,-2.6374,-2.6366,-2.5631,-2.5062,-2.4753,-2.4831,-2.4905,-2.4915,-2.4891,-2.5148,-2.5879,-2.5693,-2.5679,-2.5925,-2.606,-2.5959,-2.573,-2.5859,-2.6154,-2.6223,-2.5816,-2.6013,-2.7382,-2.7434,-2.7607,-2.8283,-2.8618,-2.8518,-2.8358,-2.8052,-2.7733,-2.7322,-2.7637,-2.8018,-2.7954,-2.7848,-2.7423,-2.6821,-2.5308,-2.3975,-2.3305,-2.2969,-2.2787,-2.2726,-2.258,-2.2543,-2.2665,-2.2173,-2.1526,-2.1019,-2.0506,-2.0118,-1.9747,-1.9922,-2.0204,-2.0287,-2.0421,-2.0372,-2.0216,-2.0193,-2.0325,-4.5641,-4.5194,-4.4439,-4.3679,-4.2538,-3.907,-3.5365,-3.1788,-2.9621,-2.8362,-2.7827,-2.771,-2.8158,-2.8948,-2.927,-2.9752,-3.0574,-3.0941,-3.0876,-3.0328,-3.1738,-3.2066,-3.1454,-3.2213,-3.2485,-3.2333,-3.2445,-3.2326,-3.2167,-3.2425,-3.2466,-3.2275,-3.2349,-3.2176,-3.157,-3.0877,-3.0368,-2.9908,-2.8221,-2.7352,-2.7309,-2.6734,-2.6168,-2.5714,-2.5074,-2.4516,-2.3989,-2.394,-2.419,-2.4905,-2.5189,-2.5771,-2.6626,-2.616,-2.5707,-2.5464,-2.5396,-2.5107,-2.4486,-2.4771,-2.5071,-2.5257,-2.5012,-2.4789,-2.4921,-2.4578,-2.4683,-2.5564,-2.5629,-2.5701,-2.5994,-2.6161,-2.6183,-2.6132,-2.5858,-2.597,-2.6439,-2.6773,-2.7026,-2.7421,-2.7915,-2.8279,-2.821,-2.8145,-2.8026,-2.7733,-2.8076,-2.8184,-2.7537,-2.7396,-2.7006,-2.6234,-2.4919,-2.3654,-2.2859,-2.2482,-2.2297,-2.2211,-2.2149,-2.2235,-2.2321,-2.1839,-2.1187,-2.07,-2.0183,-1.9791,-1.9462,-1.9726,-1.9987,-2.0226,-2.0501,-2.0488,-2.0193,-1.9937,-2.0238,-4.5538,-4.5478,-4.4915,-4.4211,-4.2968,-3.8617,-3.5058,-3.2241,-3.0387,-2.9081,-2.8198,-2.8037,-2.839,-2.8891,-2.8781,-2.9168,-3.0035,-3.0975,-3.0979,-3.0476,-3.2106,-3.2535,-3.1946,-3.3088,-3.3722,-3.3814,-3.4338,-3.441,-3.4098,-3.4451,-3.4203,-3.3566,-3.3513,-3.3251,-3.2667,-3.2337,-3.1951,-3.1322,-2.9847,-2.8786,-2.8291,-2.7572,-2.7065,-2.6791,-2.5439,-2.4754,-2.4883,-2.3842,-2.3765,-2.484,-2.4786,-2.5087,-2.5782,-2.5408,-2.4801,-2.42,-2.4819,-2.5056,-2.4406,-2.4962,-2.535,-2.5361,-2.4915,-2.4369,-2.3909,-2.349,-2.3777,-2.4898,-2.5351,-2.5825,-2.6413,-2.6513,-2.6459,-2.6234,-2.6063,-2.6031,-2.6052,-2.6481,-2.7026,-2.7327,-2.7878,-2.8305,-2.8341,-2.8314,-2.8314,-2.8379,-2.8536,-2.8175,-2.7115,-2.7023,-2.669,-2.5335,-2.4216,-2.3305,-2.2494,-2.2025,-2.18,-2.1753,-2.1714,-2.1862,-2.1862,-2.1463,-2.0869,-2.042,-1.9857,-1.9417,-1.9218,-1.9417,-1.9726,-1.9901,-2.0333,-2.0511,-2.0141,-1.9817,-2.0142,-4.6125,-4.5942,-4.5962,-4.462,-4.2164,-3.8894,-3.56,-3.2449,-3.0391,-2.9311,-2.8737,-2.8553,-2.833,-2.8368,-2.8676,-2.906,-2.9444,-3.0057,-3.0303,-3.0382,-3.1642,-3.1973,-3.183,-3.3204,-3.4089,-3.4388,-3.4866,-3.5251,-3.5328,-3.5366,-3.5295,-3.5129,-3.511,-3.4821,-3.4258,-3.4054,-3.3805,-3.3369,-3.2165,-3.0967,-2.9688,-2.9555,-2.8929,-2.7736,-2.7328,-2.6453,-2.5129,-2.4543,-2.43,-2.4439,-2.428,-2.4187,-2.431,-2.3825,-2.3195,-2.2519,-2.3219,-2.3974,-2.4804,-2.5512,-2.5541,-2.4828,-2.4554,-2.4141,-2.3653,-2.3041,-2.3156,-2.4363,-2.5597,-2.6256,-2.6519,-2.6439,-2.6371,-2.629,-2.5492,-2.5447,-2.6952,-2.7311,-2.7723,-2.9293,-2.9053,-2.9104,-2.8784,-2.8739,-2.8803,-2.8876,-2.8911,-2.8408,-2.6979,-2.6674,-2.5935,-2.4167,-2.3399,-2.304,-2.2187,-2.1628,-2.14,-2.1273,-2.1296,-2.1423,-2.1486,-2.1169,-2.0506,-2.0096,-1.9528,-1.8998,-1.8859,-1.8865,-1.9285,-1.9724,-2.0074,-2.0242,-2.0358,-1.996,-1.9927,-4.5951,-4.5786,-4.6566,-4.5422,-4.2888,-4.0024,-3.6792,-3.3538,-3.1336,-3.0118,-2.9413,-2.8765,-2.8733,-2.9265,-2.8819,-2.9127,-2.9905,-3.0333,-3.0578,-3.0678,-3.1615,-3.2268,-3.2582,-3.369,-3.4613,-3.5376,-3.5957,-3.6416,-3.6664,-3.6649,-3.6201,-3.5621,-3.5782,-3.5466,-3.4579,-3.4597,-3.4299,-3.3638,-3.3181,-3.2482,-3.1548,-3.0458,-2.9667,-2.9023,-2.8024,-2.6915,-2.5829,-2.4566,-2.3881,-2.3986,-2.3796,-2.3847,-2.4164,-2.3523,-2.2989,-2.2523,-2.3143,-2.386,-2.4496,-2.5206,-2.5278,-2.433,-2.4236,-2.4022,-2.3496,-2.3301,-2.3481,-2.4158,-2.4967,-2.557,-2.6178,-2.6325,-2.6186,-2.6013,-2.5592,-2.5799,-2.653,-2.6901,-2.7396,-2.8177,-2.8625,-2.8937,-2.8885,-2.9184,-2.9296,-2.9167,-2.8993,-2.8213,-2.6544,-2.5915,-2.4909,-2.3326,-2.2555,-2.2063,-2.1463,-2.121,-2.1019,-2.0955,-2.1042,-2.1296,-2.1233,-2.0828,-2.0161,-1.9704,-1.8977,-1.8582,-1.8587,-1.869,-1.8906,-1.9456,-1.9943,-2.0183,-2.0534,-2.0355,-2.0477,-4.6085,-4.6347,-4.7374,-4.6628,-4.4413,-4.1353,-3.8091,-3.4738,-3.2411,-3.0916,-2.9889,-2.9026,-2.9286,-3.0032,-2.9188,-2.9268,-3.0162,-3.0599,-3.0653,-3.0773,-3.1506,-3.2195,-3.2781,-3.3744,-3.4866,-3.5854,-3.6344,-3.6708,-3.6922,-3.7011,-3.6507,-3.5884,-3.6289,-3.6004,-3.5036,-3.517,-3.4873,-3.4176,-3.3987,-3.3584,-3.2858,-3.164,-3.0724,-3.0164,-2.8723,-2.7507,-2.6546,-2.4856,-2.3883,-2.3863,-2.3536,-2.3579,-2.3908,-2.3257,-2.2707,-2.265,-2.2994,-2.3536,-2.422,-2.4946,-2.4923,-2.4062,-2.4073,-2.3835,-2.3298,-2.3224,-2.3644,-2.4227,-2.4549,-2.5233,-2.6202,-2.647,-2.6354,-2.6142,-2.6215,-2.6285,-2.6498,-2.6905,-2.743,-2.7806,-2.8465,-2.8702,-2.9058,-2.956,-2.9789,-2.9597,-2.9043,-2.8056,-2.6202,-2.5255,-2.4218,-2.2517,-2.1714,-2.1336,-2.0892,-2.0764,-2.0635,-2.0529,-2.0658,-2.0914,-2.085,-2.0248,-1.9639,-1.9044,-1.8395,-1.8047,-1.8134,-1.831,-1.8792,-1.9519,-1.9878,-2.0104,-2.068,-2.0653,-2.0758,-4.6714,-4.7965,-4.874,-4.8076,-4.6576,-4.2744,-3.9068,-3.5723,-3.3398,-3.1441,-3.0099,-2.9638,-2.9973,-3.066,-2.9597,-2.9303,-2.9659,-3.0183,-3.0263,-3.029,-3.0908,-3.1605,-3.2195,-3.3144,-3.4366,-3.5498,-3.5625,-3.5729,-3.5788,-3.5926,-3.5885,-3.5807,-3.6678,-3.6641,-3.5889,-3.6087,-3.6116,-3.5197,-3.466,-3.4124,-3.3584,-3.3213,-3.2364,-3.103,-2.9812,-2.8575,-2.7289,-2.58,-2.466,-2.4227,-2.3743,-2.3442,-2.342,-2.2567,-2.2111,-2.2275,-2.2211,-2.2804,-2.4259,-2.4732,-2.4634,-2.4091,-2.3906,-2.3615,-2.2917,-2.2874,-2.335,-2.4492,-2.4849,-2.5517,-2.6623,-2.7008,-2.7151,-2.7172,-2.7005,-2.7204,-2.758,-2.7915,-2.8412,-2.8891,-2.8799,-2.8949,-2.9623,-3.0054,-3.0176,-2.9975,-2.9302,-2.8024,-2.6337,-2.5136,-2.3529,-2.1981,-2.1273,-2.1187,-2.0719,-2.0459,-2.0182,-1.9901,-1.9987,-2.0204,-1.9987,-1.9594,-1.8977,-1.8509,-1.8124,-1.7872,-1.7754,-1.8095,-1.8792,-1.9333,-1.9506,-1.9862,-2.1088,-2.0311,-2.0562,-4.7335,-4.8596,-4.8374,-4.7903,-4.7008,-4.3192,-3.9799,-3.6885,-3.422,-3.1992,-3.035,-2.9428,-2.9659,-3.0724,-2.9554,-2.9237,-2.9554,-2.9554,-2.9786,-3.0015,-3.0354,-3.1061,-3.2307,-3.292,-3.391,-3.521,-3.5494,-3.5862,-3.6243,-3.6493,-3.6406,-3.6139,-3.6498,-3.6279,-3.5565,-3.5544,-3.5437,-3.5086,-3.4927,-3.458,-3.3807,-3.3638,-3.3063,-3.228,-3.1092,-2.9795,-2.8415,-2.6791,-2.5517,-2.4539,-2.4137,-2.3709,-2.3274,-2.2083,-2.148,-2.163,-2.1922,-2.2531,-2.3587,-2.4393,-2.4544,-2.3946,-2.3667,-2.346,-2.3188,-2.3047,-2.3276,-2.4204,-2.5158,-2.5914,-2.6502,-2.7018,-2.7293,-2.7481,-2.7834,-2.7978,-2.8184,-2.8664,-2.9118,-2.8855,-2.8732,-2.9022,-2.956,-2.987,-3.0054,-2.9968,-2.875,-2.7324,-2.6038,-2.4474,-2.2899,-2.1972,-2.121,-2.0628,-1.9891,-1.9913,-1.9808,-1.9276,-1.9147,-1.9019,-1.8781,-1.8762,-1.8287,-1.7969,-1.7647,-1.7743,-1.7712,-1.8497,-1.9157,-1.9509,-1.9588,-2.0285,-2.1742,-2.1175,-2.168,-4.7948,-4.8837,-4.8441,-4.8143,-4.7515,-4.3813,-4.0508,-3.7811,-3.5121,-3.2564,-3.0391,-2.9428,-2.9659,-3.0078,-2.9363,-2.9132,-2.9448,-2.9343,-2.9448,-2.9743,-2.9952,-3.0794,-3.1803,-3.2582,-3.359,-3.4654,-3.5112,-3.5367,-3.5512,-3.5915,-3.5953,-3.5646,-3.6217,-3.6305,-3.5764,-3.5473,-3.5315,-3.5156,-3.5001,-3.455,-3.3674,-3.354,-3.3185,-3.2556,-3.1675,-3.0663,-2.9555,-2.7763,-2.6357,-2.5421,-2.4704,-2.3881,-2.2821,-2.159,-2.0907,-2.1072,-2.1655,-2.2368,-2.3059,-2.3991,-2.436,-2.3819,-2.3536,-2.3417,-2.3396,-2.3349,-2.3709,-2.4465,-2.5253,-2.5966,-2.6502,-2.6909,-2.7214,-2.7494,-2.8203,-2.8438,-2.8042,-2.866,-2.862,-2.8186,-2.8385,-2.883,-2.931,-2.9498,-2.9476,-2.9431,-2.7931,-2.66,-2.5579,-2.3952,-2.253,-2.2193,-2.1244,-2.0579,-1.9909,-1.9673,-1.885,-1.8274,-1.8141,-1.7971,-1.7744,-1.7793,-1.7677,-1.7354,-1.743,-1.7612,-1.8143,-1.8932,-1.9443,-1.9856,-2.018,-2.071,-2.1626,-2.2327,-2.2787,-4.8553,-4.9133,-4.9193,-4.8777,-4.7932,-4.4535,-4.1319,-3.8266,-3.6019,-3.29,-2.991,-2.9973,-2.9764,-2.9237,-2.894,-2.8834,-2.9132,-2.9343,-2.9343,-2.9217,-2.9932,-3.0432,-3.0991,-3.2095,-3.3078,-3.4017,-3.4222,-3.3902,-3.3314,-3.4096,-3.4653,-3.4942,-3.5955,-3.6418,-3.6881,-3.6123,-3.5791,-3.5378,-3.4936,-3.4091,-3.2961,-3.3198,-3.2851,-3.1942,-3.1729,-3.1383,-3.069,-2.8615,-2.7272,-2.667,-2.5445,-2.3765,-2.2261,-2.1154,-2.0583,-2.0551,-2.128,-2.2277,-2.3047,-2.3693,-2.4075,-2.3867,-2.3535,-2.3405,-2.3486,-2.3663,-2.4054,-2.498,-2.5443,-2.5947,-2.6502,-2.6652,-2.6833,-2.7426,-2.8022,-2.8236,-2.7875,-2.7779,-2.7623,-2.7327,-2.7802,-2.8314,-2.8481,-2.8657,-2.8592,-2.7974,-2.6951,-2.595,-2.5163,-2.3728,-2.2787,-2.2297,-2.1761,-2.109,-2.024,-1.9375,-1.815,-1.7207,-1.7239,-1.7166,-1.6842,-1.6762,-1.6853,-1.6751,-1.7235,-1.7486,-1.8144,-1.8927,-1.9599,-2.0029,-2.0466,-2.127,-2.2309,-2.3128,-2.354,-4.8448,-4.8643,-4.8663,-4.8229,-4.7249,-4.3922,-4.0668,-3.7555,-3.5294,-3.2691,-3.0182,-2.9554,-2.9448,-2.9343,-2.894,-2.8727,-2.8834,-2.8708,-2.8814,-2.9132,-2.9448,-2.9953,-3.0785,-3.1424,-3.224,-3.3024,-3.3482,-3.364,-3.3647,-3.3935,-3.4245,-3.473,-3.5244,-3.5603,-3.566,-3.5223,-3.4986,-3.4891,-3.4347,-3.3772,-3.3411,-3.3294,-3.3064,-3.2935,-3.2697,-3.2376,-3.1787,-3.009,-2.8877,-2.8298,-2.7066,-2.5119,-2.2553,-2.0692,-1.9939,-1.9889,-2.072,-2.1753,-2.2749,-2.3437,-2.3867,-2.3854,-2.3483,-2.3432,-2.3598,-2.3614,-2.4031,-2.4859,-2.5202,-2.5622,-2.6005,-2.5971,-2.6113,-2.6875,-2.7582,-2.7754,-2.736,-2.7409,-2.7556,-2.7473,-2.7309,-2.7374,-2.7485,-2.7525,-2.7182,-2.6956,-2.5913,-2.4968,-2.4566,-2.3994,-2.339,-2.3033,-2.2419,-2.1704,-2.0811,-1.9679,-1.8332,-1.7158,-1.673,-1.6444,-1.61,-1.607,-1.6158,-1.6542,-1.7028,-1.7636,-1.8291,-1.8981,-1.9666,-2.042,-2.1108,-2.22,-2.3494,-2.4122,-2.4409,-4.7886,-4.8141,-4.8211,-4.7787,-4.6588,-4.333,-4.0307,-3.746,-3.5032,-3.2447,-2.9962,-2.9447,-2.9192,-2.8858,-2.8535,-2.8535,-2.8731,-2.8486,-2.8601,-2.9026,-2.9026,-2.9428,-3.0266,-3.0888,-3.1527,-3.224,-3.2745,-3.2932,-3.307,-3.3627,-3.3953,-3.4197,-3.4792,-3.5238,-3.5161,-3.4754,-3.4553,-3.4514,-3.3589,-3.2954,-3.2701,-3.2301,-3.2081,-3.1957,-3.2042,-3.2045,-3.168,-3.0851,-3.0125,-2.9207,-2.7557,-2.5251,-2.2774,-2.1116,-2.0048,-2.0172,-2.0798,-2.1795,-2.2538,-2.3104,-2.359,-2.3652,-2.3387,-2.3353,-2.3716,-2.3805,-2.4175,-2.4805,-2.5192,-2.5374,-2.5464,-2.5287,-2.5303,-2.5587,-2.6406,-2.6812,-2.6828,-2.6856,-2.6916,-2.6798,-2.6615,-2.6471,-2.6544,-2.6527,-2.6212,-2.6063,-2.5345,-2.4756,-2.4602,-2.4424,-2.4157,-2.3865,-2.3321,-2.2416,-2.1331,-2.0026,-1.8578,-1.736,-1.6428,-1.5963,-1.5531,-1.5738,-1.5929,-1.6682,-1.7235,-1.7908,-1.8606,-1.9315,-2.0075,-2.088,-2.1778,-2.2822,-2.3925,-2.4633,-2.5095,-4.7184,-4.7699,-4.7875,-4.7225,-4.5867,-4.2915,-4.0162,-3.7699,-3.5151,-3.2314,-2.9879,-2.9518,-2.8945,-2.792,-2.7899,-2.8191,-2.861,-2.8242,-2.8281,-2.8601,-2.8581,-2.8688,-2.9237,-3.037,-3.1094,-3.1403,-3.1913,-3.1995,-3.1828,-3.2742,-3.3389,-3.3429,-3.4438,-3.5187,-3.5132,-3.4675,-3.4289,-3.4155,-3.286,-3.1804,-3.1307,-3.076,-3.0158,-2.9603,-3.0528,-3.0968,-3.0738,-3.1006,-3.088,-2.9774,-2.7071,-2.5004,-2.3579,-2.1961,-2.0893,-2.0791,-2.1579,-2.2055,-2.2456,-2.2778,-2.3123,-2.3338,-2.3202,-2.3232,-2.3587,-2.4043,-2.4534,-2.5103,-2.5218,-2.5245,-2.5076,-2.4712,-2.4407,-2.4183,-2.5094,-2.5789,-2.6211,-2.6046,-2.599,-2.5846,-2.5685,-2.563,-2.5816,-2.5926,-2.5834,-2.5728,-2.5279,-2.5179,-2.5262,-2.5135,-2.5127,-2.4797,-2.4373,-2.3354,-2.2367,-2.0952,-1.9548,-1.8504,-1.7225,-1.6279,-1.5666,-1.5788,-1.607,-1.6821,-1.7593,-1.8251,-1.8934,-1.9712,-2.0519,-2.1446,-2.2383,-2.3328,-2.4212,-2.5022,-2.566,-4.7229,-4.7232,-4.666,-4.563,-4.415,-4.1965,-3.9378,-3.6809,-3.4444,-3.2392,-3.069,-2.9405,-2.8615,-2.8033,-2.7512,-2.7493,-2.7492,-2.7303,-2.7206,-2.753,-2.753,-2.7853,-2.8601,-2.9428,-2.9953,-3.0057,-3.0245,-3.0618,-3.1251,-3.1768,-3.2353,-3.3284,-3.3749,-3.4237,-3.4558,-3.3835,-3.3538,-3.3436,-3.2439,-3.1404,-3.0943,-3.0616,-3.035,-2.9997,-3.067,-3.0827,-3.0474,-3.0671,-3.0473,-2.9526,-2.7625,-2.5848,-2.4384,-2.2569,-2.1485,-2.1483,-2.1565,-2.1873,-2.2221,-2.2438,-2.276,-2.2997,-2.2815,-2.2794,-2.3232,-2.3927,-2.4529,-2.502,-2.5146,-2.5082,-2.4955,-2.4325,-2.3887,-2.3949,-2.454,-2.5172,-2.548,-2.5543,-2.5432,-2.5205,-2.4938,-2.4897,-2.4992,-2.4989,-2.4978,-2.5007,-2.5209,-2.5421,-2.572,-2.6297,-2.6425,-2.6055,-2.5537,-2.4404,-2.329,-2.1834,-2.0628,-1.9601,-1.8391,-1.7046,-1.6499,-1.6208,-1.6598,-1.7097,-1.805,-1.8793,-1.9455,-2.0194,-2.1076,-2.1947,-2.2943,-2.3833,-2.4684,-2.5481,-2.6034,-4.6437,-4.6276,-4.5261,-4.4084,-4.2637,-4.0643,-3.8547,-3.6404,-3.4261,-3.2498,-3.1043,-2.9623,-2.8422,-2.7669,-2.7122,-2.6775,-2.6695,-2.6571,-2.661,-2.6989,-2.6754,-2.7079,-2.7853,-2.8262,-2.8455,-2.8774,-2.8774,-2.9408,-3.0266,-3.0806,-3.1527,-3.2218,-3.2946,-3.3346,-3.3453,-3.2814,-3.2465,-3.2323,-3.129,-3.0261,-2.9879,-2.9449,-2.8858,-2.8818,-2.9555,-3.0143,-3.018,-3.0204,-2.9952,-2.9318,-2.8093,-2.6731,-2.5269,-2.3794,-2.2695,-2.2514,-2.2247,-2.2258,-2.232,-2.2245,-2.2258,-2.2483,-2.2348,-2.2587,-2.2969,-2.3493,-2.4013,-2.4615,-2.4594,-2.4509,-2.4423,-2.382,-2.3527,-2.3669,-2.4115,-2.4619,-2.52,-2.5018,-2.4848,-2.4709,-2.4362,-2.42,-2.4513,-2.4425,-2.4636,-2.4978,-2.5444,-2.591,-2.639,-2.7127,-2.7523,-2.7121,-2.6595,-2.5597,-2.4119,-2.2615,-2.1044,-2.0089,-1.9329,-1.8021,-1.7464,-1.6989,-1.7422,-1.8043,-1.8627,-1.9271,-2.0012,-2.0731,-2.1645,-2.255,-2.3436,-2.4204,-2.4945,-2.5652,-2.6208,-4.5244,-4.5226,-4.3746,-4.2463,-4.1094,-3.9313,-3.7992,-3.6522,-3.4412,-3.2641,-3.1133,-2.9804,-2.8301,-2.6893,-2.6403,-2.6196,-2.6179,-2.6056,-2.6313,-2.6318,-2.6082,-2.61,-2.6536,-2.6536,-2.6788,-2.7182,-2.7435,-2.8077,-2.8906,-2.987,-3.0578,-3.0991,-3.2015,-3.2275,-3.2129,-3.1585,-3.1371,-3.0986,-2.9827,-2.888,-2.8474,-2.7939,-2.7495,-2.7182,-2.8259,-2.9311,-2.9741,-2.9811,-2.9502,-2.9378,-2.8402,-2.7064,-2.5882,-2.5046,-2.4296,-2.3681,-2.3028,-2.2638,-2.2593,-2.2008,-2.1785,-2.1934,-2.2094,-2.2283,-2.2706,-2.3144,-2.358,-2.41,-2.3887,-2.3887,-2.3754,-2.3406,-2.3299,-2.3501,-2.3714,-2.4337,-2.4872,-2.4545,-2.4126,-2.4513,-2.3797,-2.3631,-2.4027,-2.4368,-2.4754,-2.5247,-2.5752,-2.6425,-2.7061,-2.7822,-2.8085,-2.7906,-2.7333,-2.6709,-2.5064,-2.3406,-2.171,-2.0319,-1.9825,-1.903,-1.8547,-1.8359,-1.8654,-1.9107,-1.9521,-2.0001,-2.0607,-2.1428,-2.225,-2.2886,-2.3621,-2.4299,-2.4969,-2.5606,-2.6164,-4.4819,-4.402,-4.2409,-4.0996,-3.9709,-3.8794,-3.7918,-3.7112,-3.4896,-3.333,-3.1899,-2.9573,-2.7776,-2.6645,-2.5605,-2.5049,-2.526,-2.5141,-2.525,-2.5476,-2.4761,-2.4317,-2.4522,-2.4727,-2.5029,-2.5233,-2.5846,-2.655,-2.7343,-2.8239,-2.9303,-3.0016,-3.0432,-3.082,-3.0594,-3.0262,-2.9872,-2.9363,-2.8733,-2.8099,-2.7554,-2.7248,-2.6969,-2.6713,-2.77,-2.8701,-2.9376,-2.942,-2.8924,-2.8233,-2.7392,-2.6451,-2.5743,-2.4604,-2.407,-2.398,-2.3206,-2.2593,-2.2292,-2.1866,-2.1642,-2.1735,-2.1913,-2.2283,-2.2637,-2.3144,-2.3406,-2.3667,-2.3714,-2.3647,-2.3446,-2.3251,-2.3232,-2.3406,-2.3667,-2.3841,-2.4043,-2.3743,-2.3671,-2.3716,-2.3371,-2.3229,-2.4108,-2.426,-2.4728,-2.5394,-2.6158,-2.6915,-2.7631,-2.8454,-2.8573,-2.8427,-2.8182,-2.7485,-2.5784,-2.3887,-2.1987,-2.068,-2.0219,-2.009,-1.9617,-1.9507,-1.9821,-1.9992,-2.0215,-2.0762,-2.1324,-2.1892,-2.27,-2.318,-2.3666,-2.425,-2.4826,-2.5465,-2.6025,-4.4516,-4.2925,-4.1425,-3.996,-3.8716,-3.8216,-3.7856,-3.7122,-3.5755,-3.4336,-3.2695,-3.0156,-2.8055,-2.6318,-2.5165,-2.4553,-2.4261,-2.425,-2.4106,-2.3893,-2.3183,-2.243,-2.1841,-2.2289,-2.2609,-2.3124,-2.3653,-2.4433,-2.5236,-2.6411,-2.7362,-2.8285,-2.8971,-2.9268,-2.9127,-2.9001,-2.879,-2.8255,-2.7662,-2.7112,-2.6513,-2.6341,-2.629,-2.6268,-2.671,-2.7323,-2.7913,-2.7977,-2.7441,-2.6773,-2.6076,-2.5606,-2.5451,-2.4618,-2.422,-2.3765,-2.3198,-2.2434,-2.2035,-2.1547,-2.1318,-2.1392,-2.1731,-2.2087,-2.246,-2.2989,-2.3232,-2.3319,-2.3319,-2.3251,-2.3027,-2.3008,-2.3057,-2.3144,-2.3319,-2.3493,-2.3461,-2.3406,-2.3412,-2.3431,-2.3234,-2.3474,-2.3831,-2.4198,-2.4761,-2.5492,-2.6377,-2.7119,-2.7747,-2.849,-2.8902,-2.8864,-2.8809,-2.8071,-2.6337,-2.4409,-2.2119,-2.1171,-2.0706,-2.0734,-2.0674,-2.0683,-2.0858,-2.0954,-2.101,-2.1565,-2.2136,-2.2691,-2.3001,-2.3446,-2.3909,-2.4273,-2.4706,-2.5253,-2.5746,-4.4184,-4.2184,-4.075,-3.9236,-3.8043,-3.7736,-3.7736,-3.7429,-3.6405,-3.4896,-3.3313,-3.1084,-2.8157,-2.6268,-2.496,-2.4099,-2.3754,-2.3575,-2.3488,-2.2859,-2.22,-2.1373,-2.0571,-2.0286,-2.0381,-2.146,-2.1838,-2.2296,-2.3134,-2.4208,-2.5308,-2.6056,-2.6956,-2.7343,-2.7447,-2.7578,-2.7324,-2.6976,-2.6481,-2.599,-2.5662,-2.5431,-2.5469,-2.5523,-2.569,-2.5924,-2.6376,-2.632,-2.5988,-2.5251,-2.4672,-2.4438,-2.4506,-2.452,-2.421,-2.328,-2.2834,-2.228,-2.171,-2.1298,-2.1032,-2.0997,-2.1374,-2.1909,-2.2353,-2.2618,-2.2882,-2.2969,-2.2969,-2.2725,-2.2479,-2.2637,-2.2706,-2.2882,-2.2969,-2.3144,-2.3173,-2.3393,-2.3571,-2.3533,-2.3289,-2.336,-2.3896,-2.4393,-2.5036,-2.5648,-2.6578,-2.7304,-2.7881,-2.8497,-2.8933,-2.9096,-2.8917,-2.7881,-2.6209,-2.4592,-2.2382,-2.1786,-2.121,-2.1483,-2.164,-2.201,-2.201,-2.1707,-2.1881,-2.2286,-2.2583,-2.2892,-2.3231,-2.3717,-2.4055,-2.4345,-2.4706,-2.504,-2.5584,-4.3974,-4.2017,-4.0546,-3.9087,-3.7945,-3.7616,-3.7736,-3.7701,-3.5908,-3.461,-3.3669,-3.0301,-2.7953,-2.6106,-2.4671,-2.3994,-2.3551,-2.3352,-2.3108,-2.2493,-2.1817,-2.1032,-2.0172,-1.9289,-1.8945,-1.9085,-1.9757,-2.0695,-2.1199,-2.2135,-2.3071,-2.3769,-2.4339,-2.4753,-2.529,-2.5344,-2.543,-2.535,-2.5271,-2.5039,-2.4948,-2.5071,-2.5114,-2.5168,-2.5158,-2.5198,-2.5042,-2.508,-2.4865,-2.43,-2.3717,-2.3176,-2.296,-2.2927,-2.2982,-2.2852,-2.2391,-2.1897,-2.1476,-2.1046,-2.0852,-2.0997,-2.1284,-2.1731,-2.2176,-2.2441,-2.2618,-2.2599,-2.2599,-2.2422,-2.2441,-2.2403,-2.2599,-2.2706,-2.2969,-2.3144,-2.3387,-2.3654,-2.3831,-2.3856,-2.3494,-2.335,-2.4143,-2.4763,-2.5283,-2.5977,-2.6852,-2.7403,-2.7901,-2.8543,-2.9131,-2.9052,-2.8903,-2.7509,-2.5941,-2.4386,-2.2737,-2.2388,-2.2091,-2.2293,-2.2636,-2.3166,-2.3229,-2.2436,-2.2242,-2.2509,-2.2774,-2.304,-2.3379,-2.374,-2.4032,-2.4273,-2.4611,-2.4921,-2.566,-4.4732,-4.2032,-4.0907,-3.9376,-3.7846,-3.7856,-3.7976,-3.7932,-3.6774,-3.567,-3.4077,-3.1459,-2.8787,-2.6726,-2.4949,-2.3855,-2.2995,-2.2544,-2.2326,-2.1781,-2.136,-2.0794,-1.9856,-1.8858,-1.8302,-1.8033,-1.8317,-1.8725,-1.8886,-1.9876,-2.0848,-2.1449,-2.2088,-2.2747,-2.3485,-2.3947,-2.3921,-2.39,-2.3939,-2.4046,-2.3977,-2.4158,-2.4115,-2.4061,-2.4045,-2.3818,-2.3502,-2.3402,-2.3203,-2.2733,-2.224,-2.1884,-2.1576,-2.1483,-2.1675,-2.1859,-2.1807,-2.1499,-2.1207,-2.0832,-2.0744,-2.0817,-2.1195,-2.1571,-2.1998,-2.2264,-2.2353,-2.2315,-2.1845,-2.1688,-2.1961,-2.1901,-2.2058,-2.2492,-2.2882,-2.3251,-2.362,-2.3947,-2.4186,-2.4358,-2.4219,-2.4304,-2.4844,-2.5289,-2.5622,-2.6244,-2.7199,-2.7648,-2.7973,-2.8559,-2.9213,-2.8888,-2.8563,-2.7525,-2.6194,-2.4985,-2.3664,-2.3271,-2.2948,-2.3164,-2.3418,-2.3928,-2.3339,-2.2428,-2.2518,-2.2746,-2.284,-2.3106,-2.3423,-2.3762,-2.3931,-2.4173,-2.449,-2.492,-2.5637,-4.5154,-4.2257,-4.1161,-3.9651,-3.8043,-3.8216,-3.8335,-3.8096,-3.7723,-3.6818,-3.5332,-3.2855,-3.0065,-2.7574,-2.5333,-2.3559,-2.202,-2.174,-2.1505,-2.1257,-2.087,-2.0237,-1.9601,-1.8855,-1.8223,-1.783,-1.7127,-1.68,-1.729,-1.7996,-1.8699,-1.9332,-2.0168,-2.0929,-2.1704,-2.224,-2.264,-2.2894,-2.2908,-2.2892,-2.3102,-2.2945,-2.2619,-2.235,-2.2249,-2.2215,-2.1912,-2.1591,-2.1387,-2.1017,-2.0639,-2.0448,-2.0289,-2.0216,-2.0329,-2.064,-2.094,-2.0887,-2.0759,-2.0508,-2.0382,-2.0564,-2.1015,-2.1374,-2.1731,-2.2087,-2.2264,-2.1854,-2.1401,-2.0992,-2.1298,-2.1222,-2.1484,-2.2108,-2.2717,-2.3251,-2.3834,-2.4247,-2.4765,-2.4935,-2.4871,-2.5168,-2.5648,-2.5959,-2.6278,-2.6885,-2.7778,-2.8115,-2.8514,-2.8842,-2.9091,-2.8587,-2.8054,-2.7281,-2.6445,-2.5918,-2.4927,-2.4447,-2.4106,-2.4095,-2.4255,-2.4471,-2.3714,-2.3245,-2.2907,-2.3144,-2.3156,-2.3185,-2.3466,-2.3735,-2.3942,-2.4237,-2.4549,-2.5008,-2.5611,-4.4523,-4.3214,-4.1154,-3.9694,-3.8999,-3.8596,-3.8716,-3.8885,-3.7577,-3.6816,-3.6189,-3.337,-3.0787,-2.82,-2.498,-2.293,-2.1782,-2.1451,-2.1231,-2.0876,-2.0483,-2.008,-1.9813,-1.8867,-1.8197,-1.7625,-1.6733,-1.6392,-1.6353,-1.6488,-1.6857,-1.7477,-1.8081,-1.8643,-2.0116,-2.0544,-2.0802,-2.1699,-2.2024,-2.2432,-2.2779,-2.2699,-2.2429,-2.1947,-2.1566,-2.1081,-2.0467,-1.9952,-1.942,-1.9317,-1.8991,-1.8832,-1.892,-1.9134,-1.9376,-1.9573,-1.9931,-2.0154,-2.0298,-2.0071,-2.0103,-2.036,-2.0689,-2.1105,-2.1553,-2.1909,-2.1909,-2.1463,-2.0995,-2.0674,-2.0745,-2.0797,-2.1058,-2.1677,-2.2427,-2.3212,-2.3941,-2.4592,-2.5105,-2.5673,-2.5757,-2.599,-2.6302,-2.6573,-2.6971,-2.7676,-2.8195,-2.8586,-2.8802,-2.8969,-2.8902,-2.8313,-2.7974,-2.7252,-2.6941,-2.6337,-2.6093,-2.5583,-2.5361,-2.5118,-2.5162,-2.5359,-2.5031,-2.4514,-2.4046,-2.3474,-2.3515,-2.3558,-2.3569,-2.3863,-2.4243,-2.4566,-2.4814,-2.5257,-2.5772,-4.3698,-4.3433,-4.1661,-4.0101,-3.9072,-3.8716,-3.8716,-3.8551,-3.7777,-3.7035,-3.6091,-3.4031,-3.1065,-2.7557,-2.4115,-2.2349,-2.1505,-2.0889,-2.0441,-2.0227,-1.9693,-1.9507,-1.927,-1.8606,-1.791,-1.7122,-1.6217,-1.53,-1.5319,-1.5603,-1.5911,-1.6069,-1.6677,-1.7432,-1.8597,-1.91,-1.9795,-2.0615,-2.1274,-2.1714,-2.1634,-2.1681,-2.1475,-2.0643,-2.0132,-1.9554,-1.8902,-1.8171,-1.766,-1.745,-1.7147,-1.741,-1.777,-1.8058,-1.8426,-1.9021,-1.892,-1.9335,-2.0053,-1.9776,-1.9909,-2.0256,-2.0611,-2.1015,-2.1553,-2.1713,-2.1603,-2.1137,-2.0584,-2.0318,-2.0128,-2.0093,-2.0598,-2.1213,-2.21,-2.3095,-2.4013,-2.4892,-2.5527,-2.6091,-2.661,-2.6723,-2.688,-2.7228,-2.7508,-2.7827,-2.8218,-2.8607,-2.8567,-2.847,-2.8321,-2.8079,-2.7734,-2.7411,-2.7264,-2.6981,-2.7108,-2.6815,-2.6922,-2.6615,-2.6408,-2.6324,-2.5931,-2.5287,-2.4424,-2.4073,-2.3984,-2.3841,-2.3837,-2.4271,-2.4681,-2.4912,-2.5219,-2.5675,-2.6368,-4.2753,-4.2759,-4.152,-4.0222,-3.8812,-3.8693,-3.8596,-3.838,-3.7998,-3.7112,-3.5712,-3.3612,-3.0099,-2.6523,-2.3731,-2.2054,-2.1271,-2.0112,-1.9581,-1.9176,-1.8903,-1.8665,-1.8546,-1.8121,-1.7491,-1.6669,-1.5941,-1.5178,-1.4788,-1.4794,-1.5161,-1.5109,-1.5892,-1.6704,-1.7418,-1.8052,-1.8868,-1.9924,-2.0744,-2.0867,-2.0699,-2.0674,-2.0056,-1.9357,-1.8617,-1.7871,-1.7134,-1.638,-1.5873,-1.5553,-1.5553,-1.5849,-1.633,-1.686,-1.7459,-1.8005,-1.8094,-1.854,-1.9185,-1.9411,-1.9621,-2.0102,-2.0514,-2.0872,-2.1282,-2.1496,-2.1246,-2.0676,-2.0196,-1.983,-1.9674,-1.9606,-1.9898,-2.0784,-2.172,-2.2793,-2.3786,-2.4617,-2.5527,-2.6091,-2.6678,-2.7175,-2.7463,-2.7866,-2.8071,-2.8105,-2.8361,-2.8544,-2.8492,-2.8272,-2.8193,-2.8019,-2.7694,-2.7537,-2.7558,-2.7537,-2.77,-2.7942,-2.7952,-2.7916,-2.7568,-2.702,-2.6606,-2.5872,-2.5104,-2.5182,-2.5348,-2.4718,-2.4196,-2.4697,-2.5172,-2.5408,-2.5643,-2.6186,-2.6966,-4.1801,-4.0761,-4.0152,-3.9449,-3.8693,-3.8477,-3.838,-3.8074,-3.7594,-3.6785,-3.5304,-3.1959,-2.8655,-2.5844,-2.3882,-2.1997,-2.0362,-1.9734,-1.9166,-1.8551,-1.8121,-1.7811,-1.7718,-1.7411,-1.6993,-1.6521,-1.5568,-1.4896,-1.4565,-1.4119,-1.4508,-1.4908,-1.5312,-1.5998,-1.6762,-1.7349,-1.8286,-1.9345,-2.0053,-2.0217,-2.0,-1.9757,-1.9038,-1.8153,-1.7252,-1.638,-1.5553,-1.4804,-1.4159,-1.3835,-1.3943,-1.4256,-1.4888,-1.56,-1.6249,-1.6765,-1.7213,-1.7702,-1.8295,-1.8617,-1.8762,-1.9351,-2.0147,-2.0694,-2.0977,-2.0869,-2.0622,-2.0149,-1.9641,-1.9417,-1.9332,-1.9384,-1.9685,-2.0238,-2.1219,-2.2284,-2.3342,-2.4447,-2.5253,-2.6008,-2.6557,-2.6925,-2.7499,-2.7793,-2.8245,-2.8384,-2.8522,-2.8674,-2.8668,-2.8495,-2.8351,-2.8207,-2.7736,-2.762,-2.7882,-2.8006,-2.8293,-2.8392,-2.8536,-2.8564,-2.8432,-2.7877,-2.7327,-2.713,-2.6584,-2.6604,-2.6447,-2.5732,-2.5317,-2.5429,-2.5686,-2.6006,-2.6404,-2.6878,-2.7615,-3.9231,-3.8274,-3.7637,-3.7473,-3.7594,-3.7495,-3.7199,-3.6698,-3.6316,-3.5029,-3.3231,-3.0568,-2.8155,-2.61,-2.4325,-2.2498,-2.0676,-1.9483,-1.8428,-1.7207,-1.6606,-1.6263,-1.6126,-1.5937,-1.5429,-1.4907,-1.4397,-1.3957,-1.3575,-1.3514,-1.3926,-1.4321,-1.4837,-1.5213,-1.5935,-1.6879,-1.8052,-1.8868,-1.9564,-1.969,-1.9275,-1.896,-1.825,-1.7244,-1.5897,-1.4911,-1.3932,-1.3078,-1.2545,-1.2219,-1.2318,-1.2852,-1.3501,-1.4363,-1.5018,-1.5624,-1.6057,-1.6625,-1.7392,-1.771,-1.8357,-1.9423,-2.0161,-2.0676,-2.057,-2.0517,-1.9938,-1.9521,-1.9295,-1.919,-1.8776,-1.9164,-1.9656,-1.9955,-2.0619,-2.1644,-2.2726,-2.3851,-2.4914,-2.5695,-2.6034,-2.6334,-2.6967,-2.7542,-2.8098,-2.8545,-2.8699,-2.869,-2.8615,-2.856,-2.8395,-2.8301,-2.7925,-2.7809,-2.8092,-2.8373,-2.8746,-2.8914,-2.9009,-2.9081,-2.9037,-2.8701,-2.8277,-2.8055,-2.7745,-2.726,-2.6821,-2.6554,-2.6285,-2.6199,-2.6377,-2.677,-2.7174,-2.7505,-2.8203,-3.6539,-3.5539,-3.4697,-3.5108,-3.6114,-3.6135,-3.5823,-3.5164,-3.4776,-3.3236,-3.0792,-2.9163,-2.7615,-2.6016,-2.4182,-2.2523,-2.0723,-1.9322,-1.759,-1.6357,-1.5489,-1.4776,-1.4382,-1.42,-1.4099,-1.3452,-1.303,-1.2794,-1.3168,-1.2782,-1.3287,-1.4023,-1.453,-1.4878,-1.5591,-1.6537,-1.7596,-1.8415,-1.8622,-1.884,-1.8337,-1.7828,-1.7055,-1.5881,-1.4538,-1.3355,-1.2265,-1.1388,-1.0789,-1.0688,-1.0789,-1.1411,-1.2271,-1.3018,-1.3793,-1.436,-1.4884,-1.5499,-1.624,-1.7355,-1.8297,-1.9325,-2.0127,-2.0445,-2.0395,-2.0167,-1.9574,-1.9504,-1.9309,-1.9094,-1.8876,-1.9506,-1.9431,-1.9525,-1.9844,-2.0753,-2.19,-2.2997,-2.4255,-2.5295,-2.555,-2.5764,-2.6693,-2.7261,-2.7545,-2.8116,-2.8488,-2.8392,-2.8099,-2.8179,-2.8301,-2.8301,-2.8113,-2.8092,-2.8279,-2.8817,-2.9187,-2.891,-2.912,-2.9601,-2.9557,-2.915,-2.888,-2.8813,-2.8321,-2.7635,-2.7238,-2.7034,-2.6847,-2.6678,-2.694,-2.7197,-2.7683,-2.8012,-2.8536,-3.3763,-3.2758,-3.1477,-3.218,-3.4013,-3.4363,-3.4073,-3.3519,-3.2897,-3.1455,-2.9415,-2.7598,-2.6364,-2.5238,-2.3504,-2.1963,-2.063,-1.8977,-1.7253,-1.5719,-1.4724,-1.4072,-1.3608,-1.3286,-1.3164,-1.3082,-1.274,-1.2482,-1.3048,-1.2706,-1.3075,-1.3564,-1.4172,-1.4769,-1.5601,-1.6183,-1.6891,-1.7361,-1.7349,-1.7193,-1.7002,-1.6386,-1.5412,-1.426,-1.2937,-1.1617,-1.0667,-0.9957,-0.9258,-0.8927,-0.9478,-1.0085,-1.0642,-1.1828,-1.2685,-1.3179,-1.3846,-1.4526,-1.5207,-1.7062,-1.8308,-1.9092,-1.982,-2.0193,-2.0007,-1.971,-1.9624,-1.9712,-1.9911,-2.0057,-2.0098,-2.0053,-1.9549,-1.9207,-1.9573,-2.0112,-2.1273,-2.2408,-2.3674,-2.4719,-2.5018,-2.5337,-2.6253,-2.7008,-2.7158,-2.7592,-2.8114,-2.8064,-2.7757,-2.7886,-2.8164,-2.8301,-2.8301,-2.8373,-2.8653,-2.9279,-2.9555,-2.9209,-2.9209,-2.9669,-2.9485,-2.88,-2.8848,-2.919,-2.8878,-2.8098,-2.7789,-2.7581,-2.7341,-2.7172,-2.7394,-2.7649,-2.8099,-2.8498,-2.8895,-3.0049,-2.9077,-2.8435,-2.829,-2.8858,-3.0393,-3.0774,-3.0266,-2.96,-2.8641,-2.7678,-2.6628,-2.5847,-2.473,-2.3535,-2.2004,-2.0345,-1.8858,-1.7079,-1.5235,-1.4211,-1.3416,-1.2745,-1.2429,-1.2285,-1.2177,-1.1972,-1.2013,-1.2475,-1.2354,-1.2715,-1.3324,-1.3813,-1.465,-1.5364,-1.5946,-1.6183,-1.6655,-1.6644,-1.6469,-1.5993,-1.5085,-1.4065,-1.2918,-1.1424,-1.0059,-0.9015,-0.851,-0.7943,-0.7493,-0.8159,-0.8899,-0.9486,-1.0664,-1.1629,-1.2247,-1.2991,-1.3722,-1.4871,-1.6539,-1.7867,-1.8675,-1.953,-1.985,-1.944,-1.9462,-1.959,-2.0024,-2.0377,-2.0503,-2.056,-2.0523,-2.0123,-1.9419,-1.9624,-2.0043,-2.0926,-2.1957,-2.3076,-2.3994,-2.4533,-2.46,-2.5228,-2.5868,-2.6166,-2.6424,-2.683,-2.7572,-2.7437,-2.7742,-2.8092,-2.8373,-2.8488,-2.8653,-2.8932,-2.9577,-2.9852,-2.9669,-2.9485,-2.9669,-2.9301,-2.8653,-2.8724,-2.905,-2.8873,-2.8561,-2.8232,-2.7969,-2.7833,-2.7743,-2.7881,-2.8018,-2.8339,-2.8736,-2.9131,-2.6392,-2.5657,-2.4994,-2.4605,-2.4675,-2.6809,-2.7644,-2.7079,-2.6498,-2.5862,-2.5386,-2.5036,-2.4341,-2.35,-2.2659,-2.1713,-1.9921,-1.8407,-1.694,-1.5051,-1.3573,-1.275,-1.2099,-1.1569,-1.1371,-1.1289,-1.1256,-1.1319,-1.2234,-1.1993,-1.2234,-1.2844,-1.3444,-1.3803,-1.452,-1.4878,-1.5364,-1.5591,-1.5472,-1.5224,-1.4595,-1.3674,-1.2735,-1.1511,-1.0055,-0.8608,-0.7756,-0.7203,-0.6746,-0.6624,-0.6959,-0.7838,-0.8575,-0.9559,-1.0647,-1.1388,-1.2625,-1.3598,-1.501,-1.6437,-1.7756,-1.844,-1.9293,-1.9538,-1.9429,-1.9519,-2.0095,-2.0602,-2.0845,-2.1137,-2.1381,-2.1344,-2.0494,-1.9847,-1.9669,-2.0019,-2.0737,-2.1826,-2.2659,-2.3531,-2.393,-2.4018,-2.4215,-2.4464,-2.4974,-2.5206,-2.555,-2.6256,-2.7083,-2.7408,-2.7785,-2.8107,-2.8495,-2.8631,-2.9024,-2.96,-2.9874,-2.9966,-2.9669,-2.9371,-2.9301,-2.8746,-2.8839,-2.8932,-2.8892,-2.8765,-2.8496,-2.8333,-2.8187,-2.8241,-2.8539,-2.857,-2.8602,-2.8973,-2.9468,-2.2935,-2.2367,-2.1371,-2.1293,-2.1871,-2.3825,-2.4464,-2.4127,-2.3866,-2.3519,-2.2966,-2.2384,-2.1853,-2.1427,-2.0578,-1.9929,-1.9045,-1.7528,-1.6334,-1.5021,-1.3397,-1.2413,-1.1441,-1.0642,-1.0661,-1.057,-1.0627,-1.0838,-1.1985,-1.1752,-1.1752,-1.2113,-1.2595,-1.2835,-1.3204,-1.3684,-1.4172,-1.4411,-1.4282,-1.3923,-1.3232,-1.2147,-1.1221,-1.0069,-0.8616,-0.7466,-0.6689,-0.6152,-0.5673,-0.5669,-0.6139,-0.6953,-0.7784,-0.8756,-0.9791,-1.1112,-1.275,-1.4068,-1.5267,-1.6633,-1.7583,-1.8258,-1.9098,-1.957,-1.9695,-1.972,-2.0427,-2.1174,-2.1658,-2.207,-2.2446,-2.1636,-2.082,-2.0246,-1.9805,-2.019,-2.0847,-2.1655,-2.2462,-2.3091,-2.3313,-2.3485,-2.3752,-2.4029,-2.4108,-2.4346,-2.4625,-2.4832,-2.5661,-2.6535,-2.6907,-2.7601,-2.8028,-2.868,-2.9095,-2.9416,-2.96,-2.96,-2.891,-2.8516,-2.8631,-2.8746,-2.856,-2.8631,-2.898,-2.8991,-2.8854,-2.8727,-2.8539,-2.873,-2.8979,-2.8968,-2.8973,-2.939,-2.9779,-1.9881,-1.9277,-1.8995,-1.8853,-1.8782,-1.9446,-2.0366,-2.1398,-2.1045,-2.0722,-2.0824,-2.025,-1.9736,-1.9153,-1.8822,-1.8286,-1.7523,-1.6594,-1.602,-1.4676,-1.3164,-1.2275,-1.1321,-1.0439,-1.0111,-1.0033,-1.008,-1.0244,-1.077,-1.0906,-1.1269,-1.1631,-1.1752,-1.1872,-1.1993,-1.2363,-1.2844,-1.3084,-1.3084,-1.2595,-1.1823,-1.0799,-0.9884,-0.8678,-0.7503,-0.6492,-0.5782,-0.5496,-0.5142,-0.5154,-0.6018,-0.6909,-0.7381,-0.8382,-0.9557,-1.1327,-1.283,-1.4217,-1.5234,-1.6799,-1.7839,-1.8169,-1.9096,-1.9335,-1.9483,-1.9887,-2.0724,-2.1626,-2.2307,-2.2706,-2.2715,-2.2044,-2.1397,-2.083,-2.0473,-2.0555,-2.1172,-2.1761,-2.2488,-2.2905,-2.3037,-2.3309,-2.3544,-2.3415,-2.3473,-2.3652,-2.3791,-2.4027,-2.448,-2.5468,-2.6326,-2.7034,-2.7515,-2.8164,-2.8495,-2.8839,-2.9046,-2.9117,-2.8445,-2.8143,-2.8538,-2.8653,-2.8279,-2.8287,-2.8642,-2.9082,-2.9304,-2.9106,-2.8855,-2.9117,-2.934,-2.9278,-2.9365,-2.9677,-3.0011,-1.7433,-1.7023,-1.7011,-1.6729,-1.6254,-1.6236,-1.6897,-1.7895,-1.8267,-1.8473,-1.8182,-1.792,-1.7338,-1.6585,-1.6464,-1.6164,-1.5576,-1.5235,-1.4719,-1.3992,-1.2814,-1.1801,-1.0923,-1.0152,-0.9694,-0.96,-0.9513,-0.968,-1.0065,-1.0308,-1.0664,-1.0301,-1.0785,-1.0785,-1.0664,-1.0785,-1.1027,-1.1382,-1.1503,-1.1269,-1.0485,-0.9553,-0.8579,-0.7641,-0.6484,-0.5834,-0.5455,-0.5406,-0.5211,-0.5226,-0.635,-0.7026,-0.7698,-0.8864,-0.9921,-1.1639,-1.2861,-1.4125,-1.5327,-1.6808,-1.7618,-1.8294,-1.914,-1.9443,-1.9892,-2.0372,-2.127,-2.219,-2.2648,-2.3054,-2.2908,-2.2659,-2.1996,-2.1441,-2.1262,-2.1065,-2.1506,-2.1907,-2.2373,-2.2757,-2.3048,-2.3222,-2.3168,-2.296,-2.2967,-2.3403,-2.3633,-2.383,-2.4203,-2.4948,-2.5841,-2.6578,-2.7098,-2.7601,-2.7929,-2.8186,-2.8373,-2.8466,-2.807,-2.7977,-2.8466,-2.8373,-2.7882,-2.8086,-2.8422,-2.8948,-2.9576,-2.9385,-2.9244,-2.9577,-2.9647,-2.9514,-2.9521,-2.9831,-3.0088,-1.5406,-1.5443,-1.5313,-1.5062,-1.4399,-1.4417,-1.4417,-1.4024,-1.5761,-1.6014,-1.5424,-1.5199,-1.474,-1.4057,-1.3985,-1.3901,-1.3684,-1.3433,-1.3302,-1.2849,-1.1819,-1.0868,-1.0235,-0.9422,-0.8929,-0.902,-0.9036,-0.8964,-0.9457,-0.9579,-0.9329,-0.8836,-0.9329,-0.9579,-0.9457,-0.9572,-0.9572,-0.9444,-0.9808,-0.9937,-0.9176,-0.848,-0.7773,-0.7072,-0.6411,-0.5886,-0.6009,-0.5942,-0.5886,-0.6269,-0.6882,-0.7461,-0.8698,-0.9883,-1.1023,-1.1928,-1.3138,-1.4363,-1.5482,-1.6845,-1.786,-1.8527,-1.9194,-1.9698,-2.0151,-2.0741,-2.1602,-2.2294,-2.2852,-2.3429,-2.35,-2.2965,-2.2408,-2.2163,-2.2013,-2.1929,-2.2093,-2.2403,-2.261,-2.2868,-2.2725,-2.2943,-2.3213,-2.313,-2.3204,-2.3438,-2.3621,-2.3801,-2.4087,-2.4757,-2.5324,-2.616,-2.6514,-2.6889,-2.7223,-2.7505,-2.7694,-2.7694,-2.741,-2.7715,-2.8186,-2.7998,-2.7505,-2.7828,-2.8256,-2.9307,-2.9869,-2.9744,-2.9794,-3.0074,-3.0103,-2.9721,-2.9754,-2.9934,-3.0139,-1.4353,-1.4268,-1.4268,-1.4137,-1.4006,-1.4006,-1.3752,-1.3498,-1.3664,-1.3656,-1.3316,-1.3026,-1.2395,-1.1803,-1.176,-1.1705,-1.1678,-1.1913,-1.1935,-1.1492,-1.0647,-0.9982,-0.9306,-0.8555,-0.8037,-0.7676,-0.7785,-0.8099,-0.821,-0.8221,-0.8349,-0.8111,-0.8349,-0.8337,-0.8477,-0.8471,-0.8216,-0.7983,-0.8111,-0.8355,-0.7856,-0.7474,-0.7044,-0.6727,-0.6305,-0.626,-0.6382,-0.6631,-0.6679,-0.7075,-0.7884,-0.8803,-0.9966,-1.1183,-1.1933,-1.259,-1.3648,-1.4789,-1.5791,-1.6932,-1.7871,-1.8654,-1.9271,-1.9907,-2.042,-2.1109,-2.1744,-2.2387,-2.3044,-2.368,-2.3993,-2.3456,-2.2944,-2.2963,-2.2826,-2.2758,-2.2771,-2.285,-2.2927,-2.2804,-2.2582,-2.2841,-2.3152,-2.3299,-2.3484,-2.3615,-2.3855,-2.4108,-2.4217,-2.4585,-2.4927,-2.5513,-2.5817,-2.6162,-2.6526,-2.6653,-2.679,-2.7092,-2.6976,-2.7452,-2.7904,-2.7431,-2.7051,-2.76,-2.8193,-2.9282,-3.014,-3.031,-3.0445,-3.063,-3.0258,-2.9774,-2.9702,-2.9856,-3.0062,-1.3752,-1.3621,-1.349,-1.335,-1.3358,-1.3358,-1.3227,-1.2972,-1.2708,-1.2305,-1.1894,-1.141,-1.0685,-0.9961,-0.9813,-0.9803,-0.9797,-1.0197,-1.0016,-0.9591,-0.9621,-0.9072,-0.8365,-0.7797,-0.7504,-0.7115,-0.7025,-0.7059,-0.6948,-0.689,-0.687,-0.6812,-0.6827,-0.7084,-0.7347,-0.722,-0.7094,-0.6766,-0.6888,-0.6898,-0.6789,-0.6799,-0.678,-0.6598,-0.6793,-0.688,-0.722,-0.7584,-0.7948,-0.8444,-0.934,-1.0263,-1.1184,-1.2205,-1.2766,-1.336,-1.4207,-1.5277,-1.6272,-1.7054,-1.797,-1.8844,-1.9345,-1.9955,-2.0925,-2.1561,-2.2137,-2.2796,-2.3538,-2.4181,-2.4583,-2.4212,-2.4008,-2.3856,-2.3563,-2.3405,-2.3195,-2.3003,-2.295,-2.2698,-2.2529,-2.2629,-2.2927,-2.3206,-2.3426,-2.3804,-2.4044,-2.4251,-2.4414,-2.4401,-2.4697,-2.4938,-2.5234,-2.5334,-2.5525,-2.5561,-2.5679,-2.6055,-2.652,-2.6729,-2.69,-2.6688,-2.6572,-2.741,-2.8423,-2.951,-3.0248,-3.0553,-3.0783,-3.0869,-3.0393,-2.9804,-2.9779,-2.9779,-3.0011,-1.3595,-1.3235,-1.2972,-1.284,-1.284,-1.2832,-1.2708,-1.2444,-1.2305,-1.1776,-1.0982,-1.0571,-0.9569,-0.8807,-0.8301,-0.7933,-0.8084,-0.8865,-0.8459,-0.8228,-0.8408,-0.8016,-0.7525,-0.7169,-0.6856,-0.6506,-0.6284,-0.5794,-0.5429,-0.5495,-0.5475,-0.5283,-0.5422,-0.5682,-0.5722,-0.5835,-0.5935,-0.5876,-0.6027,-0.6056,-0.6217,-0.6505,-0.6726,-0.6936,-0.7398,-0.7883,-0.8326,-0.8793,-0.9265,-1.0023,-1.077,-1.1848,-1.2627,-1.3594,-1.3877,-1.4489,-1.5134,-1.5965,-1.6634,-1.724,-1.8357,-1.922,-1.9607,-2.0225,-2.1191,-2.1898,-2.2503,-2.3164,-2.3919,-2.4506,-2.4808,-2.499,-2.4747,-2.4427,-2.4079,-2.3883,-2.3551,-2.3256,-2.3038,-2.2736,-2.2719,-2.2719,-2.275,-2.3067,-2.3538,-2.3966,-2.4145,-2.4335,-2.4407,-2.4373,-2.4393,-2.4519,-2.4734,-2.4693,-2.4794,-2.4896,-2.5016,-2.5553,-2.6034,-2.6035,-2.5976,-2.617,-2.6688,-2.7767,-2.8773,-2.9692,-3.0384,-3.0797,-3.0989,-3.1001,-3.0398,-2.9804,-2.9779,-2.9856,-3.0011,-1.3093,-1.2972,-1.3104,-1.3104,-1.284,-1.3104,-1.3104,-1.2708,-1.27,-1.2305,-1.1512,-1.0578,-0.9757,-0.8938,-0.8563,-0.8178,-0.7785,-0.8051,-0.7825,-0.7606,-0.7391,-0.703,-0.6668,-0.6404,-0.6068,-0.571,-0.5331,-0.4821,-0.4567,-0.4391,-0.4263,-0.4202,-0.4151,-0.441,-0.4704,-0.4817,-0.5061,-0.5236,-0.5571,-0.5745,-0.6043,-0.6441,-0.6916,-0.7256,-0.7722,-0.8553,-0.9265,-0.9678,-1.0211,-1.1009,-1.2044,-1.3172,-1.4118,-1.4892,-1.535,-1.5622,-1.6272,-1.6783,-1.7363,-1.7591,-1.8592,-1.9486,-1.988,-2.0352,-2.1156,-2.1964,-2.259,-2.3114,-2.3826,-2.442,-2.4807,-2.5058,-2.4863,-2.4521,-2.4199,-2.3978,-2.3791,-2.3655,-2.3438,-2.3238,-2.3138,-2.2915,-2.2624,-2.3171,-2.387,-2.4234,-2.4411,-2.4545,-2.4469,-2.435,-2.4258,-2.4281,-2.4307,-2.4417,-2.4578,-2.4611,-2.4765,-2.5303,-2.5724,-2.5833,-2.6035,-2.6132,-2.6825,-2.7788,-2.8773,-2.9601,-3.029,-3.104,-3.088,-3.0688,-3.0194,-2.9829,-2.9804,-2.9856,-3.0011]}]]